[[{"header":{"parameterUnit":"m.s-1","parameterCategory":1,"la1":30.6,"la2":28.766,"lo1":-90.7593,"lo2":-88.6598,"dy":0.0162,"dx":0.0183,"nx":116,"ny":114,"refTime":"2023-10-03T06:00:00:Z","depth":0,"parameterNumber":2,"parameterNumberName":"U-component_of_WINDS"},"data":[0.0,0.0,0.0,0.0,0.0,0.0,0.0,0.0,0.0,0.0,0.0,0.0,0.0,0.0,0.0,0.0,0.0,0.0,0.0,0.0,0.0,0.0,0.0,0.0,0.0,0.0,0.0,0.0,0.0,0.0,0.0,0.0,0.0,0.0,0.0,0.0,0.0,0.0,0.0,0.0,0.0,0.0,0.0,0.0,0.0,0.0,0.0,0.0,0.0,0.0,0.0,0.0,0.0,0.0,0.0,0.0,0.0,0.0,0.0,0.0,0.0,0.0,0.0,0.0,0.0,0.0,0.0,0.0,0.0,0.0,0.0,0.0,0.0,0.0,0.0,0.0,0.0,0.0,0.0,0.0,0.0,0.0,0.0,0.0,0.0,0.0,0.0,0.0,0.0,0.0,0.0,0.0,0.0,0.0,0.0,0.0,0.0,0.0,0.0,0.0,0.0,0.0,0.0,0.0,0.0,0.0,0.0,0.0,0.0,0.0,0.0,0.0,0.0,0.0,0.0,0.0,0.0,0.0,0.0,0.0,0.0,0.0,0.0,0.0,0.0,0.0,0.0,0.0,0.0,0.0,0.0,0.0,0.0,0.0,0.0,0.0,0.0,0.0,0.0,0.0,0.0,0.0,0.0,0.0,0.0,0.0,0.0,0.0,0.0,0.0,0.0,0.0,0.0,0.0,0.0,0.0,0.0,0.0,0.0,0.0,0.0,0.0,0.0,0.0,0.0,0.0,0.0,0.0,0.0,0.0,0.0,0.0,0.0,0.0,0.0,0.0,0.0,0.0,0.0,0.0,0.0,0.0,0.0,0.0,0.0,0.0,0.0,0.0,0.0,0.0,0.0,0.0,0.0,0.0,0.0,0.0,0.0,0.0,0.0,0.0,0.0,0.0,0.0,0.0,0.0,0.0,0.0,0.0,0.0,0.0,0.0,0.0,0.0,0.0,0.0,0.0,0.0,0.0,0.0,0.0,0.0,0.0,0.0,0.0,0.0,0.0,0.0,0.0,0.0,0.0,0.0,0.0,0.0,0.0,0.0,0.0,0.0,0.0,0.0,0.0,0.0,0.0,0.0,0.0,0.0,0.0,0.0,0.0,0.0,0.0,0.0,0.0,0.0,0.0,0.0,0.0,0.0,0.0,0.0,0.0,0.0,0.0,0.0,0.0,0.0,0.0,0.0,0.0,0.0,0.0,0.0,0.0,0.0,0.0,0.0,0.0,0.0,0.0,0.0,0.0,0.0,0.0,0.0,0.0,0.0,0.0,0.0,0.0,0.0,0.0,0.0,0.0,0.0,0.0,0.0,0.0,0.0,0.0,0.0,0.0,0.0,0.0,0.0,0.0,0.0,0.0,0.0,0.0,0.0,0.0,0.0,0.0,0.0,0.0,0.0,0.0,0.0,0.0,0.0,0.0,0.0,0.0,0.0,0.0,0.0,0.0,0.0,0.0,0.0,0.0,0.0,0.0,0.0,0.0,0.0,0.0,0.0,0.0,0.0,0.0,0.0,0.0,0.0,0.0,0.0,0.0,0.0,0.0,0.0,0.0,0.0,0.0,0.0,0.0,0.0,0.0,0.0,0.0,0.0,0.0,0.0,0.0,0.0,0.0,0.0,0.0,0.0,0.0,0.0,0.0,0.0,0.0,0.0,0.0,0.0,0.0,0.0,0.0,0.0,0.0,0.0,0.0,0.0,0.0,0.0,0.0,0.0,0.0,0.0,0.0,0.0,0.0,0.0,0.0,0.0,0.0,0.0,0.0,0.0,0.0,0.0,0.0,0.0,0.0,0.0,0.0,0.0,0.0,0.0,0.0,0.0,0.0,0.0,0.0,0.0,0.0,0.0,0.0,0.0,0.0,0.0,0.0,0.0,0.0,0.0,0.0,0.0,0.0,0.0,0.0,0.0,0.0,0.0,0.0,0.0,0.0,0.0,0.0,0.0,0.0,0.0,0.0,0.0,0.0,0.0,0.0,0.0,0.0,0.0,0.0,0.0,0.0,0.0,0.0,0.0,0.0,0.0,0.0,0.0,0.0,0.0,0.0,0.0,0.0,0.0,0.0,0.0,0.0,0.0,0.0,0.0,0.0,0.0,0.0,0.0,0.0,0.0,0.0,0.0,0.0,0.0,0.0,0.0,0.0,0.0,0.0,0.0,0.0,0.0,0.0,0.0,0.0,0.0,0.0,0.0,0.0,0.0,0.0,0.0,0.0,0.0,0.0,0.0,0.0,0.0,0.0,0.0,0.0,0.0,0.0,0.0,0.0,0.0,0.0,0.0,0.0,0.0,0.0,0.0,0.0,0.0,0.0,0.0,0.0,0.0,0.0,0.0,0.0,0.0,0.0,0.0,0.0,0.0,0.0,0.0,0.0,0.0,0.0,0.0,0.0,0.0,0.0,0.0,0.0,0.0,0.0,0.0,0.0,0.0,0.0,0.0,0.0,0.0,0.0,0.0,0.0,0.0,0.0,0.0,0.0,0.0,0.0,0.0,0.0,0.0,0.0,0.0,0.0,0.0,0.0,0.0,0.0,0.0,0.0,0.0,0.0,0.0,0.0,0.0,0.0,0.0,0.0,0.0,0.0,0.0,0.0,0.0,0.0,0.0,0.0,0.0,0.0,0.0,0.0,0.0,0.0,0.0,0.0,0.0,0.0,0.0,0.0,0.0,0.0,0.0,0.0,0.0,0.0,0.0,0.0,0.0,0.0,0.0,0.0,0.0,0.0,0.0,0.0,0.0,0.0,0.0,0.0,0.0,0.0,0.0,0.0,0.0,0.0,0.0,0.0,0.0,0.0,0.0,0.0,0.0,0.0,0.0,0.0,0.0,0.0,0.0,0.0,0.0,0.0,0.0,0.0,0.0,0.0,0.0,0.0,0.0,0.0,0.0,0.0,0.0,0.0,0.0,0.0,0.0,0.0,0.0,0.0,0.0,0.0,0.0,0.0,0.0,0.0,0.0,0.0,0.0,0.0,0.0,0.0,0.0,0.0,0.0,0.0,0.0,0.0,0.0,0.0,0.0,0.0,0.0,0.0,0.0,0.0,0.0,0.0,0.0,0.0,0.0,0.0,0.0,0.0,0.0,0.0,0.0,0.0,0.0,0.0,0.0,0.0,0.0,0.0,0.0,0.0,0.0,0.0,0.0,0.0,0.0,0.0,0.0,0.0,0.0,0.0,0.0,0.0,0.0,0.0,0.0,0.0,0.0,0.0,0.0,0.0,0.0,0.0,0.0,0.0,0.0,0.0,0.0,0.0,0.0,0.0,0.0,0.0,0.0,0.0,0.0,0.0,0.0,0.0,0.0,0.0,0.0,0.0,0.0,0.0,0.0,0.0,0.0,0.0,0.0,0.0,0.0,0.0,0.0,0.0,0.0,0.0,0.0,0.0,0.0,0.0,0.0,0.0,0.0,0.0,0.0,0.0,0.0,0.0,0.0,0.0,0.0,0.0,0.0,0.0,0.0,0.0,0.0,0.0,0.0,0.0,0.0,0.0,0.0,0.0,0.0,0.0,0.0,0.0,0.0,0.0,0.0,0.0,0.0,0.0,0.0,0.0,0.0,0.0,0.0,0.0,0.0,0.0,0.0,0.0,0.0,0.0,0.0,0.0,0.0,0.0,0.0,0.0,0.0,0.0,0.0,0.0,0.0,0.0,0.0,0.0,0.0,0.0,0.0,0.0,0.0,0.0,0.0,0.0,0.0,0.0,0.0,0.0,0.0,0.0,0.0,0.0,0.0,0.0,0.0,0.0,0.0,0.0,0.0,0.0,0.0,0.0,0.0,0.0,0.0,0.0,0.0,0.0,0.0,0.0,0.0,0.0,0.0,0.0,0.0,0.0,0.0,0.0,0.0,0.0,0.0,0.0,0.0,0.0,0.0,0.0,0.0,0.0,0.0,0.0,0.0,0.0,0.0,0.0,0.0,0.0,0.0,0.0,0.0,0.0,0.0,0.0,0.0,0.0,0.0,0.0,0.0,0.0,0.0,0.0,0.0,0.0,0.0,0.0,0.0,0.0,0.0,0.0,0.0,0.0,0.0,0.0,0.0,0.0,0.0,0.0,0.0,0.0,0.0,0.0,0.0,0.0,0.0,0.0,0.0,0.0,0.0,0.0,0.0,0.0,0.0,0.0,0.0,0.0,0.0,0.0,0.0,0.0,0.0,0.0,0.0,0.0,0.0,0.0,0.0,0.0,0.0,0.0,0.0,0.0,0.0,0.0,0.0,0.0,0.0,0.0,0.0,0.0,0.0,0.0,0.0,0.0,0.0,0.0,0.0,0.0,0.0,0.0,0.0,0.0,0.0,0.0,0.0,0.0,0.0,0.0,0.0,0.0,0.0,0.0,0.0,0.0,0.0,0.0,0.0,0.0,0.0,0.0,0.0,0.0,0.0,0.0,0.0,0.0,0.0,0.0,0.0,0.0,0.0,0.0,0.0,0.0,0.0,0.0,0.0,0.0,0.0,0.0,0.0,0.0,0.0,0.0,0.0,0.0,0.0,0.0,0.0,0.0,0.0,0.0,0.0,0.0,0.0,0.0,0.0,0.0,0.0,0.0,0.0,0.0,0.0,0.0,0.0,0.0,0.0,0.0,0.0,0.0,0.0,0.0,0.0,0.0,0.0,0.0,0.0,0.0,0.0,0.0,0.0,0.0,0.0,0.0,0.0,0.0,0.0,0.0,0.0,0.0,0.0,0.0,0.0,0.0,0.0,0.0,0.0,0.0,0.0,0.0,0.0,0.0,0.0,0.0,0.0,0.0,0.0,0.0,0.0,0.0,0.0,0.0,0.0,0.0,0.0,0.0,0.0,0.0,0.0,0.0,0.0,0.0,0.0,0.0,0.0,0.0,0.0,0.0,0.0,0.0,0.0,0.0,0.0,0.0,0.0,0.0,0.0,0.0,0.0,0.0,0.0,0.0,0.0,0.0,0.0,0.0,0.0,0.0,0.0,0.0,0.0,0.0,0.0,0.0,0.0,0.0,0.0,0.0,0.0,0.0,0.0,0.0,0.0,0.0,0.0,0.0,0.0,0.0,0.0,0.0,0.0,0.0,0.0,0.0,0.0,0.0,0.0,0.0,0.0,0.0,0.0,0.0,0.0,0.0,0.0,0.0,0.0,0.0,0.0,0.0,0.0,0.0,0.0,0.0,0.0,0.0,0.0,0.0,0.0,0.0,0.0,0.0,0.0,0.0,0.0,0.0,0.0,0.0,0.0,0.0,0.0,0.0,0.0,0.0,0.0,0.0,0.0,0.0,0.0,0.0,0.0,0.0,0.0,0.0,0.0,0.0,0.0,0.0,0.0,0.0,0.0,0.0,0.0,0.0,0.0,0.0,0.0,0.0,0.0,0.0,0.0,0.0,0.0,0.0,0.0,0.0,0.0,0.0,0.0,0.0,0.0,0.0,0.0,0.0,0.0,0.0,0.0,0.0,0.0,0.0,0.0,0.0,0.0,0.0,0.0,0.0,0.0,0.0,0.0,0.0,0.0,0.0,0.0,0.0,0.0,0.0,0.0,0.0,0.0,0.0,0.0,0.0,0.0,0.0,0.0,0.0,0.0,0.0,0.0,0.0,0.0,0.0,0.0,0.0,0.0,0.0,0.0,0.0,0.0,0.0,0.0,0.0,0.0,0.0,0.0,0.0,0.0,0.0,0.0,0.0,0.0,0.0,0.0,0.0,0.0,0.0,0.0,0.0,0.0,0.0,0.0,0.0,0.0,0.0,0.0,0.0,0.0,0.0,0.0,0.0,0.0,0.0,0.0,0.0,0.0,0.0,0.0,0.0,0.0,0.0,0.0,0.0,0.0,0.0,0.0,0.0,0.0,0.0,0.0,0.0,0.0,0.0,0.0,0.0,0.0,0.0,0.0,0.0,0.0,0.0,0.0,0.0,0.0,0.0,0.0,0.0,0.0,0.0,0.0,0.0,0.0,0.0,0.0,0.0,0.0,0.0,0.0,0.0,0.0,0.0,0.0,0.0,0.0,0.0,0.0,0.0,0.0,0.0,0.0,0.0,0.0,0.0,0.0,0.0,0.0,0.0,0.0,0.0,0.0,0.0,0.0,0.0,0.0,0.0,0.0,0.0,0.0,0.0,0.0,0.0,-3.1608,0.0,0.0,0.0,0.0,0.0,0.0,0.0,0.0,0.0,0.0,0.0,0.0,0.0,0.0,0.0,0.0,0.0,0.0,0.0,0.0,0.0,0.0,0.0,0.0,0.0,0.0,0.0,0.0,0.0,0.0,0.0,0.0,0.0,0.0,0.0,0.0,0.0,0.0,-2.8072,-2.7544,-2.7593,-2.8108,-2.9253,-2.9276,-2.8363,0.0,0.0,0.0,0.0,0.0,0.0,0.0,0.0,0.0,0.0,0.0,0.0,0.0,0.0,0.0,0.0,0.0,0.0,0.0,0.0,0.0,0.0,0.0,0.0,0.0,0.0,0.0,0.0,0.0,0.0,0.0,0.0,0.0,0.0,0.0,0.0,0.0,0.0,0.0,0.0,0.0,0.0,0.0,0.0,0.0,0.0,0.0,0.0,0.0,0.0,0.0,0.0,0.0,0.0,0.0,0.0,0.0,0.0,0.0,0.0,0.0,0.0,0.0,0.0,0.0,0.0,0.0,0.0,0.0,0.0,0.0,-3.2226,0.0,0.0,0.0,0.0,0.0,0.0,0.0,0.0,0.0,0.0,0.0,0.0,0.0,0.0,0.0,0.0,0.0,0.0,0.0,0.0,0.0,0.0,0.0,-2.6756,-2.7003,-2.7594,-2.757,-2.7557,0.0,0.0,0.0,0.0,0.0,0.0,-2.7841,-2.7664,-2.7986,-2.8748,-2.8274,-2.8863,-3.052,-3.0871,-3.0177,-2.8625,-2.8116,0.0,0.0,0.0,0.0,0.0,0.0,0.0,0.0,0.0,0.0,0.0,0.0,0.0,0.0,0.0,0.0,0.0,0.0,0.0,0.0,0.0,0.0,0.0,0.0,0.0,0.0,0.0,0.0,0.0,0.0,0.0,0.0,0.0,0.0,0.0,0.0,0.0,0.0,0.0,0.0,0.0,0.0,0.0,0.0,0.0,0.0,0.0,0.0,0.0,0.0,0.0,0.0,0.0,0.0,0.0,0.0,0.0,0.0,0.0,0.0,0.0,0.0,0.0,-3.8156,-3.876,-3.9084,-3.9202,-3.9261,-3.9084,-3.581,-3.3832,-3.2867,-3.199,0.0,0.0,0.0,0.0,0.0,0.0,0.0,0.0,0.0,0.0,0.0,0.0,0.0,0.0,0.0,0.0,0.0,0.0,0.0,-2.3937,-2.4547,-2.4604,-2.4929,-2.5678,-2.5464,-2.5396,-2.5735,0.0,0.0,0.0,0.0,0.0,-2.6718,-2.7999,-2.8533,-2.8199,-2.9982,-3.1712,-3.3345,-3.2943,-3.2638,-3.2297,-2.982,-2.91,-2.958,0.0,0.0,0.0,0.0,0.0,0.0,0.0,0.0,0.0,0.0,0.0,0.0,0.0,0.0,0.0,0.0,0.0,0.0,0.0,0.0,0.0,0.0,0.0,0.0,0.0,0.0,0.0,0.0,0.0,0.0,0.0,0.0,0.0,0.0,0.0,0.0,0.0,0.0,0.0,0.0,0.0,-2.9487,-2.846,0.0,0.0,0.0,0.0,0.0,0.0,0.0,0.0,0.0,0.0,0.0,0.0,0.0,-3.4276,-3.5327,-3.6656,-3.711,-3.6725,-3.8505,-3.8823,-3.7882,-3.8422,-3.8726,-3.8699,-3.8173,0.0,-3.4549,-3.2811,0.0,0.0,0.0,0.0,0.0,0.0,0.0,0.0,0.0,0.0,0.0,0.0,0.0,0.0,0.0,0.0,0.0,0.0,0.0,0.0,0.0,-2.5534,-2.6346,-2.7045,-2.7845,-2.7933,-2.7156,-2.721,0.0,0.0,-2.6634,-2.6788,-2.6513,-2.7111,-2.8238,-2.9844,-3.2256,-3.421,-3.5742,-3.5491,-3.5261,-3.4896,-3.3332,-3.1721,-3.0181,-2.9139,0.0,0.0,0.0,0.0,0.0,0.0,0.0,0.0,0.0,0.0,0.0,0.0,0.0,0.0,0.0,0.0,0.0,0.0,0.0,0.0,0.0,0.0,0.0,0.0,0.0,0.0,0.0,0.0,0.0,0.0,0.0,0.0,0.0,0.0,0.0,0.0,0.0,0.0,0.0,-2.9532,-2.9701,-2.8191,-2.8761,-2.8847,0.0,0.0,0.0,0.0,0.0,0.0,0.0,0.0,0.0,-3.4471,-3.5423,-3.6321,-3.7177,-3.8517,-3.941,-3.9792,-4.0735,-4.1068,-4.0948,-4.1223,-4.1347,-4.1333,-4.0944,-3.9296,-3.6741,-3.4974,-3.31,-3.1266,0.0,0.0,0.0,0.0,-3.0465,-3.0401,0.0,0.0,0.0,0.0,0.0,0.0,0.0,0.0,0.0,0.0,0.0,0.0,-2.4503,-2.6141,-2.7449,-2.8322,-2.9492,-2.9539,-2.814,-2.7785,-2.7112,-2.5848,-2.5878,-2.5801,-2.5641,-2.6289,-2.8286,-3.1599,-3.3793,-3.5517,-3.6868,-3.6868,-3.6588,-3.61,-3.5466,-3.3982,-3.1759,-3.0683,-2.9478,-2.8273,0.0,0.0,0.0,0.0,0.0,0.0,0.0,0.0,0.0,0.0,0.0,0.0,0.0,0.0,0.0,0.0,0.0,0.0,0.0,0.0,0.0,0.0,0.0,0.0,0.0,0.0,0.0,0.0,0.0,0.0,0.0,0.0,0.0,0.0,0.0,0.0,0.0,-2.9275,-2.9705,-2.7848,-2.9127,-2.9363,0.0,0.0,0.0,0.0,0.0,0.0,-3.3756,-3.4553,-3.5444,-3.6396,-3.7449,-3.8371,-3.9148,-4.0134,-4.1017,-4.1858,-4.192,-4.2178,-4.2558,-4.2558,-4.2558,-4.2482,-4.1989,-4.0494,-3.8332,-3.6699,-3.4707,-3.2546,-3.2037,-3.157,-3.1212,-3.1017,-3.0818,-3.0682,0.0,0.0,0.0,0.0,0.0,0.0,0.0,0.0,0.0,0.0,0.0,-2.1938,-2.3683,-2.5014,-2.6477,-2.8137,-2.8052,-2.7648,-2.7096,-2.5198,-2.4018,-2.3939,-2.4174,-2.3991,-2.3299,-2.6048,-2.9225,-3.2726,-3.3785,-3.4887,-3.5971,-3.5971,-3.5768,-3.5339,-3.4713,-3.477,-3.5069,-3.2441,-3.126,-3.0959,-2.8335,0.0,0.0,0.0,0.0,0.0,0.0,0.0,0.0,0.0,0.0,0.0,0.0,0.0,0.0,0.0,0.0,0.0,0.0,0.0,0.0,0.0,0.0,0.0,0.0,0.0,0.0,0.0,0.0,0.0,0.0,0.0,0.0,0.0,0.0,0.0,0.0,0.0,0.0,-2.6851,-2.9378,0.0,0.0,0.0,0.0,-3.1861,-3.2084,-3.3237,-3.57,-3.5615,-3.6452,-3.8654,-3.9285,-4.0104,-4.1134,-4.1197,-4.1049,-4.057,-4.0583,-4.037,-3.989,-3.989,-3.989,-3.989,-3.9853,-3.9448,-3.8767,-3.7155,-3.527,-3.3393,-3.2856,-3.2779,-3.289,-3.2122,-3.1476,-3.0878,0.0,0.0,0.0,0.0,0.0,0.0,0.0,0.0,-2.0605,-2.0605,-2.1914,-2.3213,-2.4092,-2.6836,-2.8857,-2.9463,-3.0156,-2.9902,-2.834,-2.6494,-2.5205,-2.4639,-2.3894,-2.4024,-2.5195,-2.6804,-2.9291,-3.2685,-3.322,-3.4368,-3.6016,-3.5692,-3.5569,-3.5692,-3.5446,-3.5298,-3.5074,-3.2447,-3.0557,-2.917,-2.7394,-2.6166,0.0,0.0,0.0,0.0,0.0,0.0,0.0,0.0,0.0,0.0,0.0,0.0,0.0,0.0,0.0,0.0,0.0,0.0,0.0,0.0,0.0,0.0,0.0,0.0,0.0,0.0,0.0,0.0,0.0,0.0,0.0,0.0,0.0,0.0,0.0,0.0,0.0,-2.9767,-3.1938,0.0,-3.1271,-3.1804,-3.2642,-3.3701,-3.4476,-3.5789,-3.7756,-3.839,-3.927,-4.0425,-4.099,-4.1467,-4.1856,-4.1869,-4.1769,-4.1622,-4.0852,-4.0413,-4.0212,-3.986,-3.9697,-3.9697,-3.9697,-3.917,-3.829,-3.7693,-3.6419,-3.4692,-3.3819,-3.3072,-3.2508,-3.2211,-3.1733,-3.1209,0.0,0.0,0.0,0.0,0.0,0.0,0.0,-1.9572,-1.9956,-2.0099,-2.2272,-2.4228,-2.5391,-2.8457,-3.0605,-3.1035,-3.1748,-3.125,-2.9062,-2.7334,-2.5928,-2.4893,-2.417,-2.4668,-2.6562,-2.7715,-2.96,-3.22,-3.2748,-3.3705,-3.4969,-3.4497,-3.43,-3.444,-3.444,-3.4211,-3.3759,-3.1923,-3.0382,-2.9068,-2.7524,-2.6515,-2.5698,0.0,0.0,0.0,0.0,0.0,0.0,0.0,0.0,0.0,0.0,0.0,0.0,0.0,0.0,0.0,0.0,0.0,0.0,0.0,0.0,0.0,0.0,0.0,0.0,0.0,0.0,0.0,0.0,0.0,0.0,0.0,0.0,0.0,0.0,0.0,-3.2089,-3.1712,-3.4123,-3.5253,-3.3771,-3.4487,-3.5416,-3.6332,-3.7249,-3.8492,-4.0162,-4.0777,-4.1329,-4.1882,-4.2246,-4.2489,-4.2489,-4.2489,-4.2301,-4.1869,-4.1141,-4.0601,-4.0224,-3.986,-3.9697,-3.9685,-3.9496,-3.8994,-3.8266,-3.7889,-3.7086,-3.5959,-3.509,-3.4161,-3.3264,-3.3131,-3.2704,-3.219,0.0,0.0,0.0,0.0,0.0,0.0,-1.633,-1.7558,-1.8631,-1.9097,-2.184,-2.473,-2.7299,-2.9573,-3.1386,-3.2624,-3.2383,-3.1221,-2.9062,-2.7295,-2.5762,-2.4492,-2.4883,-2.5752,-2.708,-2.874,-3.0225,-3.1533,-3.2373,-3.2773,-3.2764,-3.2353,-3.1953,-3.1562,-3.1562,-3.1562,-3.1533,-3.1123,-3.1003,-3.0927,-2.8973,-2.8081,-2.773,0.0,0.0,0.0,0.0,0.0,0.0,0.0,0.0,0.0,0.0,0.0,0.0,0.0,0.0,0.0,0.0,0.0,0.0,0.0,0.0,0.0,0.0,0.0,0.0,0.0,0.0,0.0,0.0,0.0,0.0,0.0,0.0,0.0,-2.9113,-3.1913,-3.3596,-3.2541,-3.5768,-3.7249,-3.5082,-3.7362,-3.9182,-3.9735,-4.0275,-4.1291,-4.2886,-4.2539,-4.2502,-4.2961,-4.2974,-4.2974,-4.2949,-4.2974,-4.2421,-4.1288,-4.1288,-4.0777,-3.9722,-3.9697,-3.9697,-3.9659,-3.9132,-3.8881,-3.8806,-3.7663,-3.7199,-3.7098,-3.6593,-3.5994,-3.5408,-3.4856,-3.4349,-3.3721,0.0,0.0,0.0,0.0,0.0,0.0,-1.6679,-1.7096,-1.7621,-1.8381,-2.0715,-2.2908,-2.4539,-2.8183,-3.0609,-3.0879,-3.1143,-3.0586,-2.9023,-2.6435,-2.4941,-2.4893,-2.5918,-2.7373,-2.9287,-2.9785,-3.0664,-3.1992,-3.2226,-3.2334,-3.2334,-3.2217,-3.2266,-3.2441,-3.2441,-3.2441,-3.2441,-3.2324,-3.19,-3.117,-2.8803,-2.7451,-2.6693,0.0,0.0,0.0,0.0,0.0,0.0,0.0,0.0,0.0,0.0,0.0,0.0,0.0,0.0,0.0,0.0,0.0,0.0,0.0,0.0,0.0,0.0,0.0,0.0,0.0,0.0,0.0,0.0,0.0,0.0,0.0,0.0,-2.9992,-3.2224,-3.4349,-3.6065,-3.6935,-3.8693,-3.9747,-3.9495,-4.0159,-4.089,-4.1496,-4.1982,-4.2497,-4.2949,-4.3212,-4.3237,-4.2986,-4.2974,-4.2785,-4.2439,-4.2841,-4.2421,-4.1288,-4.1288,-4.0912,-4.0275,-3.9873,-3.9697,-3.9685,-3.9534,-3.8994,-3.8216,-3.7914,-3.7312,-3.6581,-3.5981,-3.5382,-3.4831,-3.4324,-3.3771,-3.3257,0.0,0.0,0.0,0.0,0.0,0.0,-1.4896,-1.5583,-1.6293,-1.7125,-1.9833,-2.2256,-2.361,-2.6696,-2.8623,-2.8623,-2.8576,-2.7869,-2.6304,-2.4958,-2.4765,-2.6123,-2.7393,-2.8838,-3.0449,-3.1016,-3.1748,-3.2695,-3.2881,-3.3031,-3.2969,-3.2783,-3.2734,-3.2793,-3.2793,-3.2793,-3.2793,-3.2793,-3.251,-3.1885,-3.0029,-2.876,-2.7783,-2.5937,-2.5049,-2.4648,-2.3662,-2.3193,-2.2978,-2.2559,0.0,0.0,0.0,0.0,0.0,0.0,0.0,0.0,0.0,0.0,0.0,0.0,0.0,0.0,0.0,0.0,0.0,0.0,0.0,0.0,0.0,0.0,0.0,0.0,-2.9141,-3.125,-3.4027,-3.5611,-3.7295,-3.9332,-4.0538,-4.1047,-4.0734,-4.1698,-4.2307,-4.2265,-4.3136,-4.3664,-4.3664,-4.3752,-4.3539,-4.2999,-4.2974,-4.271,-4.2213,-4.2527,-4.2082,-4.0937,-4.0937,-4.0701,-4.0162,-3.9835,-3.9697,-3.9685,-3.9446,-3.8843,-3.799,-3.7764,-3.7149,0.0,0.0,0.0,0.0,0.0,-3.3558,-3.3124,0.0,0.0,0.0,0.0,0.0,0.0,-1.2345,-1.3653,-1.4907,-1.5718,-1.8934,-2.175,-2.3161,-2.4811,-2.5795,-2.5915,-2.5386,-2.441,-2.2788,-2.3536,-2.5209,-2.7822,-2.9117,-3.0156,-3.1084,-3.2266,-3.3076,-3.3496,-3.3926,-3.4141,-3.4131,-3.3701,-3.3291,-3.293,-3.2891,-3.2861,-3.2861,-3.2861,-3.2842,-3.2725,-3.1914,-3.1064,-3.0019,-2.7646,-2.6914,-2.6943,-2.5303,-2.4473,-2.4082,-2.3549,0.0,0.0,0.0,0.0,0.0,0.0,0.0,0.0,0.0,0.0,0.0,0.0,0.0,0.0,0.0,0.0,0.0,0.0,0.0,0.0,0.0,0.0,0.0,0.0,-3.0915,-3.2595,-3.4803,-3.5905,-3.7435,-3.9849,-4.1042,-4.1139,-3.9803,-4.203,-4.3127,-4.2078,-4.3458,-4.4232,-4.3983,0.0,0.0,0.0,0.0,-4.271,-4.2213,-4.2213,-4.1605,-4.0513,-4.0513,-4.0224,-3.9697,-3.9697,-3.9697,-3.9672,-3.9182,-3.8542,-3.7754,-3.7267,-3.6609,-3.5953,-3.6188,-3.5893,-3.5194,-3.4261,-3.3558,-3.3124,0.0,0.0,0.0,0.0,0.0,0.0,-1.2663,-1.316,-1.3899,-1.5037,-1.6877,-1.8369,-1.9066,-2.1529,-2.3119,-2.3045,-2.335,-2.3636,-2.3948,-2.4503,-2.6126,-2.9076,-3.0117,-3.1201,-3.2402,-3.2998,-3.3516,-3.3945,-3.4375,-3.458,-3.457,-3.4141,-3.3906,-3.3809,-3.3457,-3.3301,-3.3301,-3.3301,-3.3105,-3.2754,-3.2246,-3.1523,-3.0625,-2.9414,-2.8574,-2.791,-2.6885,-2.6465,-2.6269,-2.545,-2.4941,-2.4453,-2.376,-2.3008,0.0,0.0,0.0,0.0,0.0,0.0,0.0,0.0,0.0,0.0,0.0,0.0,0.0,0.0,0.0,0.0,0.0,0.0,0.0,-2.867,-2.9893,-3.1635,-3.4757,-3.535,-3.6111,-3.7816,-3.8183,-3.8512,-3.9024,-4.0775,-4.1354,-4.0139,-4.1741,-4.1935,-4.01,-4.1188,-4.1617,-4.1088,-4.2319,-4.271,-4.2213,-4.2213,-4.1605,-4.0513,0.0,0.0,-3.9697,-3.9697,-3.9697,-3.9685,-3.9584,-3.8359,-3.6365,-3.6257,-3.4982,-3.3246,-3.4985,-3.509,-3.4198,-3.3985,-3.3558,-3.3124,0.0,0.0,0.0,0.0,0.0,0.0,-1.2717,-1.3013,-1.3527,-1.4409,-1.5846,-1.6827,-1.7128,-1.8859,-1.9857,-1.9481,-1.9702,-2.0654,-2.2374,-2.3191,-2.5319,-2.9196,-3.0127,-3.1342,-3.3086,-3.3525,-3.3955,-3.4385,-3.4834,-3.5049,-3.5039,-3.4834,-3.4609,-3.4375,-3.416,-3.3945,-3.375,-3.375,-3.3496,-3.3057,-3.2422,-3.1914,-3.1406,-3.0303,-2.9482,-2.8848,-2.8203,-2.7695,-2.7217,-2.6348,-2.5918,-2.5537,-2.4443,-2.3809,-2.3428,0.0,0.0,0.0,0.0,0.0,0.0,0.0,0.0,0.0,0.0,0.0,0.0,0.0,0.0,-2.4431,0.0,0.0,-2.7578,-2.9277,-3.0478,-3.184,-3.3751,-3.4156,-3.5176,-3.7499,-3.8018,-3.8005,-3.7718,-3.9584,-4.0275,-3.8792,-4.0609,-4.1101,-3.9651,-4.019,-4.0318,-3.975,-4.0127,-4.0019,-3.9427,-3.9221,-3.8709,-3.7881,-3.7881,-3.775,-3.7489,-3.7489,-3.7489,-3.7489,-3.7489,-3.6514,-3.4872,-3.4352,-3.3439,-3.2409,-3.3469,-3.3387,-3.264,-3.2152,-3.1796,-3.1535,0.0,0.0,0.0,0.0,0.0,0.0,0.0,-1.2973,-1.34,-1.3935,-1.5224,-1.6127,-1.6073,-1.6754,-1.7054,-1.658,-1.6747,-1.8008,-2.0676,-2.1847,-2.4475,-2.9006,-3.0022,-3.1421,-3.3472,-3.4062,-3.4492,-3.4834,-3.5293,-3.5517,-3.5508,-3.543,-3.5195,-3.4834,-3.4736,-3.4512,-3.4189,-3.4189,-3.3945,-3.3486,-3.2715,-3.2314,-3.2031,-3.0801,-3.0068,-2.96,-2.8916,-2.8184,-2.7412,-2.6553,-2.6152,-2.582,-2.4756,-2.4365,-2.4209,-2.3789,-2.3418,0.0,0.0,0.0,0.0,0.0,0.0,0.0,0.0,0.0,-2.3968,-2.4873,-2.5391,-2.6035,-2.7178,-2.8018,-2.8984,-3.0361,-3.1475,-3.2344,-3.2842,-3.3213,-3.4353,-3.6844,-3.756,-3.7377,-3.6289,-3.8323,-3.9096,-3.7639,-3.939,-4.0217,-3.9374,-3.9195,-3.8885,-3.8437,-3.7993,-3.7464,-3.689,-3.6465,-3.5972,-3.5434,-3.5333,-3.5288,-3.5288,-3.5288,-3.5288,-3.5277,-3.4813,-3.4171,-3.3321,-3.2027,-3.152,-3.152,-3.152,-3.1186,-3.0712,-3.0319,-3.0108,-2.9952,0.0,0.0,0.0,0.0,0.0,0.0,0.0,0.0,-1.3327,-1.3613,-1.4743,-1.5398,-1.5182,-1.5658,-1.5951,-1.5932,-1.6881,-1.8603,-2.1138,-2.2478,-2.5108,-2.9411,-3.0709,-3.2144,-3.3994,-3.4814,-3.5264,-3.5322,-3.5742,-3.5947,-3.5937,-3.5566,-3.5361,-3.5293,-3.4883,-3.4668,-3.4629,-3.4629,-3.4385,-3.3965,-3.3476,-3.2832,-3.207,-3.1162,-3.0527,-2.9922,-2.8369,-2.75,-2.6963,-2.6044,-2.5235,-2.4609,-2.4463,-2.416,-2.3779,-2.3296,-2.313,-2.3081,-2.3042,-2.2789,-2.2842,-2.3935,-2.3643,-2.3691,0.0,0.0,-2.6269,-2.7129,-2.7637,-2.8086,-2.8613,-2.9101,-3.0037,-3.167,-3.207,-3.2451,-3.3242,-3.3389,-3.3407,-3.3386,-3.3776,-3.4215,-3.4867,-3.6593,-3.7244,-3.6275,-3.7487,-3.7587,-3.6027,-3.6544,-3.6843,-3.679,-3.7654,-3.791,-3.7486,-3.6913,-3.642,-3.5994,-3.5556,-3.5288,-3.5288,-3.5288,-3.5288,-3.5189,-3.3073,-3.2123,-3.1846,-2.9677,-2.8751,-2.8751,-2.8751,-2.8483,-2.8346,-3.0133,-3.0468,-2.9952,0.0,0.0,0.0,0.0,0.0,0.0,0.0,0.0,-1.3106,-1.354,-1.4222,-1.4589,-1.4512,-1.4669,-1.4883,-1.505,-1.6146,-1.7571,-1.9294,-2.1033,-2.3396,-2.6581,-2.8907,-3.0879,-3.2469,-3.4393,-3.5391,-3.5391,-3.581,-3.6016,-3.6016,-3.584,-3.5625,-3.5391,-3.5449,-3.5176,-3.4717,-3.499,-3.4844,-3.4375,-3.3691,-3.3066,-3.2353,-3.0742,-2.9697,-2.8935,-2.7725,-2.6846,0.0,-2.498,-2.4687,-2.4707,-2.4209,-2.4102,-2.4072,-2.3643,-2.3296,-2.3091,-2.3091,-2.3555,-2.4131,0.0,-2.5098,-2.5752,-2.709,-2.7441,-2.7744,-2.8657,-2.9111,-2.9541,-2.999,-3.042,-3.1025,0.0,-3.2373,-3.2744,-3.334,-3.3213,-3.29,-3.248,-3.2588,-3.3027,-3.3877,-3.4858,-3.5516,-3.5653,-3.6127,-3.626,-3.5742,-3.555,-3.5439,-3.5439,-3.4985,-3.4606,-3.4479,-3.3692,-3.3235,-3.3048,-3.2862,-3.2768,-3.2768,-3.2768,-3.2612,-3.2245,-3.107,-3.0378,-3.0041,-2.8804,-2.8291,-2.8291,-2.8291,-2.8184,-2.8098,-2.8492,-2.8325,-2.7821,0.0,0.0,0.0,0.0,0.0,0.0,0.0,0.0,0.0,0.0,-1.3781,-1.3995,-1.4082,-1.4015,-1.4082,-1.4376,-1.5398,-1.65,-1.7549,-1.9606,-2.202,-2.498,-2.7193,-2.9623,-3.2224,-3.3936,-3.5066,-3.5566,-3.5869,-3.5957,-3.585,-3.5967,-3.5801,-3.541,-3.583,-3.5664,-3.5078,-3.5303,-3.5127,-3.4619,-3.376,-3.2959,-3.206,-3.0127,-2.8643,-2.7471,-2.6611,-2.5752,-2.4844,-2.3662,-2.3682,-2.4127,-2.3457,-2.3555,-2.3828,-2.3525,-2.3301,-2.3149,-2.3383,-2.4258,0.0,-2.5566,-2.6494,-2.751,-2.8066,-2.8516,-2.9033,-2.9785,-3.0176,-3.0488,-3.083,-3.1143,-3.1523,-3.208,-3.2422,-3.2764,-3.3193,-3.2891,-3.2422,-3.1885,-3.1709,-3.1914,-3.2646,-3.333,-3.4082,-3.4961,-3.5029,-3.5215,-3.5635,-3.4941,-3.4531,-3.4531,-3.3223,-3.2402,-3.2229,-3.1553,-3.1123,-3.0889,-3.0889,-3.0889,-3.0889,-3.0762,-3.0518,-3.0166,-2.9629,-2.9209,-2.8887,-2.8467,-2.8291,-2.8291,-2.8291,-2.8144,-2.7861,-2.7246,-2.6826,-2.6484,0.0,0.0,0.0,0.0,0.0,0.0,0.0,0.0,0.0,0.0,0.0,-1.3726,-1.4055,-1.3828,-1.3733,-1.4075,-1.491,-1.5798,-1.6687,-1.8691,-2.1804,-2.6142,-2.6315,-2.8865,-3.4461,-3.3712,-3.4149,-3.6006,-3.6016,-3.581,-3.542,-3.583,-3.5801,-3.541,-3.583,-3.6006,-3.5957,-3.5557,-3.5127,-3.4619,-3.376,-3.2432,-3.0801,-2.9453,-2.7584,-2.5645,-2.4814,-2.3955,-2.3149,-2.2236,-2.1963,-2.1982,-2.1953,-2.2236,-2.2568,-2.2549,-2.2789,-2.3276,-2.415,-2.4717,-2.5419,-2.6641,-2.7607,-2.8476,-2.9381,-2.9834,-3.0273,-3.0752,-3.0859,-3.0869,-3.0889,-3.0898,-3.1191,-3.2031,-3.2178,-3.2334,-3.2754,-3.2451,-3.1875,-3.1025,-3.0537,-3.0449,0.0,-3.21,-3.3193,-3.4053,-3.4111,-3.4297,-3.4717,-3.4326,-3.4092,-3.4092,-3.3633,-3.2998,-3.2238,-3.2148,-3.1719,-3.0889,-3.0889,-3.0889,-3.0869,-3.042,-3.0205,-3.0146,-2.9307,-2.8926,-2.8887,-2.8467,-2.8291,-2.8291,-2.8291,-2.7783,-2.7051,-2.7021,-2.7012,-2.6875,0.0,0.0,0.0,0.0,0.0,0.0,0.0,0.0,0.0,0.0,0.0,0.0,0.0,0.0,0.0,0.0,-1.4135,-1.4903,-1.5778,-1.7782,-1.9793,-2.1649,-2.5257,-2.8105,-3.0133,-3.2255,-3.3818,-3.4726,-3.4434,-3.4228,-3.4092,-3.4531,-3.4502,-3.4111,-3.4824,-3.499,-3.4717,-3.458,-3.4258,-3.375,-3.2617,-3.1475,-3.0225,-2.8066,-2.6426,-2.5068,0.0,-2.2559,-2.2178,-2.1349,-2.1211,-2.1455,-2.1455,-2.1748,-2.2148,-2.2432,-2.3018,-2.376,-2.4619,-2.5801,-2.7082,-2.8027,-2.8926,-2.9717,-3.0312,-3.0557,-3.0615,-3.0459,-2.998,-2.9492,-2.9219,-2.916,-2.9453,-3.0303,-3.1172,-3.1885,-3.2324,-3.25,-3.2051,-3.0605,-3.081,0.0,0.0,0.0,0.0,-3.3135,-3.3476,-3.3828,-3.4258,-3.415,-3.4072,-3.4072,-3.3115,-3.2451,-3.2229,-3.1601,-3.1172,-3.0889,-3.0889,-3.0889,-3.0889,-3.0732,-3.0342,-2.9766,-2.9482,-2.9023,-2.8496,-2.835,-2.8291,-2.8291,-2.8291,-2.7949,-2.7412,-2.7119,-2.6836,-2.6514,0.0,0.0,0.0,0.0,0.0,0.0,0.0,0.0,0.0,0.0,0.0,0.0,0.0,0.0,0.0,0.0,0.0,-1.4055,-1.4723,-1.6506,-1.8115,-1.9358,-2.2592,-2.5274,-2.7168,-2.9016,-3.0723,-3.2226,-3.2109,-3.2119,-3.2285,-3.2881,-3.3008,-3.2773,-3.3476,-3.3643,-3.3369,-3.3066,-3.2685,-3.2139,-3.0713,-2.9531,-2.8345,-2.6269,-2.4824,0.0,-2.2197,-2.1553,-2.1368,-2.0791,-2.0859,-2.119,-2.119,-2.1641,-2.2197,-2.2617,-2.3447,-2.4502,-2.5732,-2.7082,-2.832,-2.917,-2.9912,-3.0478,-3.0615,-3.0644,-3.043,-2.9668,-2.9082,-2.8516,-2.7939,-2.7832,-2.8115,-2.8975,-2.9941,-3.085,-3.1601,-3.1797,-3.1514,-3.0557,-3.0674,-3.0547,0.0,0.0,0.0,-3.2256,-3.2588,-3.2998,-3.3584,-3.3476,-3.3457,-3.3613,-3.2676,-3.209,-3.1934,-3.1387,-3.1035,-3.0889,-3.0889,-3.0889,-3.0889,-3.0723,-3.0254,-2.956,-2.9404,-2.8935,-2.8291,-2.8291,-2.8291,-2.8291,-2.8291,-2.7939,-2.7402,-2.7119,-2.665,-2.6113,0.0,0.0,0.0,0.0,0.0,0.0,0.0,0.0,0.0,0.0,0.0,0.0,0.0,0.0,0.0,0.0,0.0,0.0,-1.354,-1.4912,-1.6763,-1.9056,-1.8763,-2.0813,-2.56,-2.4473,-2.5395,-2.868,-2.918,-2.959,-3.0019,-3.0859,-3.126,-3.1309,-3.1719,-3.1904,-3.1855,-3.1016,-3.0391,-2.9824,-2.8164,-2.6748,-2.545,-2.4189,-2.2939,-2.1826,-2.1367,-2.0928,-2.0605,-2.0635,-2.0908,-2.1268,-2.1288,-2.1863,-2.2666,-2.3091,-2.417,-2.5585,-2.7307,-2.834,-2.9189,-3.0019,-3.0547,-3.0732,-3.0273,-3.0127,-2.9746,-2.8486,-2.8174,-2.7871,-2.7031,-2.6904,-2.7197,-2.8086,-2.8652,-2.9443,-3.0742,-3.0596,-3.0498,0.0,0.0,0.0,0.0,0.0,0.0,-3.1455,0.0,-3.1875,-3.2685,-3.2373,-3.2353,-3.2754,-3.2353,-3.1934,-3.1523,-3.1494,-3.1289,-3.0889,-3.0889,-3.0889,-3.0869,-3.041,-2.9971,-2.9541,-2.9111,-2.8682,-2.8291,-2.8291,-2.8281,-2.8262,-2.8262,-2.7734,-2.6982,-2.6982,-2.6455,-2.5693,0.0,0.0,0.0,0.0,0.0,0.0,0.0,0.0,0.0,0.0,0.0,0.0,0.0,0.0,0.0,0.0,0.0,0.0,-1.2991,-1.4155,-1.5242,-1.6067,-1.8158,-2.0078,-2.1642,-2.3194,-2.4579,-2.5773,-2.6381,-2.6934,-2.7363,-2.7598,-2.7861,-2.8164,-2.8281,-2.833,-2.8291,-2.7764,-2.7275,-2.6727,-2.5684,-2.4863,-2.415,-2.2861,-2.2168,-2.1787,-2.1016,-2.0703,-2.0654,-2.0947,-2.1562,-2.2246,-2.2568,-2.3037,-2.3682,-2.4709,-2.5762,-2.6826,-2.8223,-2.9228,-3.001,-3.0576,-3.0547,-3.0264,-2.9824,-2.9238,-2.8506,-2.7539,-2.6572,-2.5723,-2.5176,-2.5352,-2.5957,-2.7148,-2.876,0.0,-3.1221,-3.207,0.0,-3.1455,0.0,-3.1299,-3.0762,-3.0713,0.0,0.0,-3.1514,-3.1611,-3.1836,-3.2051,-3.2217,-3.2324,-3.1914,-3.1631,-3.1514,-3.1211,-3.0996,-3.0889,-3.0889,-3.0889,-3.0869,-3.041,-2.9971,-2.9541,-2.9111,-2.8682,-2.8291,-2.8291,-2.8105,-2.7822,-2.7822,-2.7305,-2.6543,-2.6543,-2.6201,-2.5693,0.0,0.0,0.0,0.0,0.0,0.0,0.0,0.0,0.0,0.0,0.0,0.0,0.0,0.0,0.0,0.0,0.0,0.0,0.0,-1.3427,-1.4021,-1.4188,-1.6119,-1.7721,-1.8925,-2.036,-2.1717,-2.2911,-2.3638,-2.417,-2.4424,-2.4795,-2.5088,-2.5265,-2.5322,-2.543,-2.5566,-2.5156,-2.4834,0.0,0.0,-2.3047,-2.2568,-2.166,-2.1349,-2.128,-2.0781,-2.085,-2.1339,-2.2295,-2.2949,-2.3428,-2.3912,-2.4551,-2.5391,-2.6318,-2.7187,-2.8086,-2.918,-2.998,-3.0566,-3.083,-3.0547,-2.999,-2.9189,-2.8496,-2.7607,-2.6172,-2.5293,-2.459,-2.3975,-2.4209,-2.4873,0.0,0.0,0.0,-3.0732,-3.1885,-3.2461,0.0,-3.2295,0.0,-3.1523,-3.1455,-3.1553,0.0,-3.1455,-3.1406,-3.1787,-3.168,-3.1689,-3.1875,-3.1465,-3.124,-3.124,-3.1006,-3.0889,-3.0889,-3.0889,-3.0889,-3.0869,-3.041,-2.9971,-2.9541,0.0,-2.8682,-2.8291,-2.8291,-2.8047,-2.7718,-2.7718,-2.72,-2.6387,-2.6387,-2.6113,-2.5693,0.0,0.0,0.0,0.0,0.0,0.0,0.0,0.0,0.0,0.0,-1.1906,0.0,0.0,0.0,0.0,0.0,0.0,0.0,0.0,0.0,-1.3213,-1.3213,-1.3891,-1.5103,-1.6854,-1.7252,-1.8302,-2.0071,-2.1061,-2.1572,-2.1641,-2.2272,-2.2613,-2.2662,-2.2666,-2.2895,-2.3164,-2.2846,-2.2728,-2.2709,-2.1924,-2.1435,-2.1064,0.0,-2.0605,-2.0605,-2.0605,-2.1134,-2.207,-2.3818,-2.4492,-2.4697,-2.5303,-2.6309,-2.7373,-2.793,-2.8613,-2.9365,-3.0225,-3.0752,-3.1045,-3.0986,-3.0537,-2.9775,-2.8506,-2.7744,-2.6799,-2.4746,-2.4287,-2.4023,-2.3237,-2.3496,-2.4111,-2.5135,0.0,-2.7851,-2.999,-3.1045,-3.1904,-3.2705,-3.2793,-3.2656,-3.2285,-3.2207,-3.2187,-3.2307,-3.1455,-3.1299,-3.2041,-3.1377,-3.1113,-3.1426,-3.1074,-3.0889,-3.0889,-3.0889,-3.0889,-3.0889,-3.0889,-3.0859,-3.0781,-3.0322,-2.9883,-2.9453,-2.9023,-2.8633,-2.8291,-2.8291,-2.7931,-2.7385,-2.7385,-2.6862,-2.6068,-2.6068,-2.5955,-2.5693,0.0,0.0,0.0,0.0,0.0,0.0,0.0,0.0,0.0,0.0,-1.1906,-1.202,0.0,0.0,0.0,0.0,0.0,0.0,0.0,0.0,0.0,-1.3213,-1.4643,-1.5179,-1.4657,-1.6917,-1.7869,-1.7383,-1.8966,-1.9912,-2.0254,-2.0049,-2.0146,-2.0459,-2.0107,-2.0038,-2.0059,-1.999,-2.0156,-2.0469,-2.0312,-2.043,-2.0713,-2.0635,0.0,0.0,-2.0605,-2.0898,-2.1619,-2.3721,-2.4855,-2.5723,-2.7266,-2.8125,-2.8818,-2.999,-3.043,-3.0732,-3.1592,-3.1885,-3.1855,-3.1494,-3.0537,-2.9346,-2.8066,-2.6652,0.0,-2.4121,-2.3613,-2.3266,-2.312,-2.3496,-2.4307,-2.5898,0.0,0.0,0.0,0.0,-3.2236,0.0,0.0,0.0,0.0,0.0,0.0,0.0,0.0,-3.1475,-3.1621,-3.1494,-3.1289,-3.1006,-3.0928,-3.0889,-3.0889,-3.0889,-3.0889,-3.0889,-3.0889,-3.0693,-3.0303,-2.9873,-2.9443,-2.9014,-2.8584,0.0,-2.8291,-2.8291,-2.7308,-2.5779,-2.5779,-2.5295,-2.4481,-2.4481,-2.5014,-2.5693,0.0,0.0,0.0,0.0,0.0,0.0,0.0,-1.1129,-1.1543,-1.2452,-1.2462,-1.2415,-1.2556,-1.2392,-1.2305,0.0,0.0,0.0,0.0,0.0,0.0,-1.3005,-1.4587,-1.5408,-1.5195,-1.725,-1.8116,-1.7693,0.0,-1.916,-1.8926,-1.8936,-1.8936,-1.8916,-1.8711,-1.874,-1.8955,-1.8955,-1.9199,-1.9609,-1.9824,-2.0039,-2.0254,-2.0517,0.0,0.0,-2.083,-2.1055,-2.1483,-2.3447,-2.4512,-2.5508,-2.8135,-2.9414,-3.0117,-3.0967,-3.1377,-3.1689,-3.2324,-3.2656,-3.2666,-3.2021,-3.0869,-2.9443,-2.7725,0.0,0.0,-2.3672,-2.3247,-2.3091,-2.3091,-2.3496,0.0,-2.5185,0.0,0.0,0.0,0.0,0.0,0.0,0.0,0.0,0.0,0.0,0.0,0.0,0.0,-3.209,-3.1865,-3.1435,-3.1103,-3.0898,-3.0889,-3.0889,-3.0889,-3.0889,-3.0889,-3.0889,-3.0889,-3.0229,-2.9067,-2.8587,-2.7771,-2.6567,-2.6171,-2.5945,-2.5945,-2.5945,-2.5269,-2.4261,-2.4261,-2.3864,-2.3245,-2.3109,-2.3389,-2.3829,0.0,0.0,0.0,0.0,0.0,0.0,0.0,-1.1409,-1.1904,-1.2973,-1.2998,-1.2884,-1.2884,-1.2616,-1.2371,0.0,0.0,0.0,0.0,0.0,0.0,0.0,0.0,0.0,-1.6313,0.0,0.0,-1.8538,-1.9051,0.0,0.0,0.0,0.0,0.0,-1.8047,-1.8193,-1.8461,-1.8461,-1.8715,0.0,0.0,-1.9834,0.0,0.0,0.0,0.0,0.0,-2.0924,-2.0964,-2.2601,-2.3599,-2.4621,-2.7395,-2.9286,-3.0537,-3.0869,-3.1601,-3.2393,-3.2822,-3.3301,-3.3467,-3.2529,-3.1172,-2.9531,-2.748,-2.5859,0.0,-2.3325,-2.3091,-2.3062,-2.2974,-2.3281,-2.3682,0.0,-2.457,-2.5703,0.0,0.0,0.0,0.0,0.0,0.0,0.0,0.0,0.0,0.0,0.0,0.0,-3.2041,-3.0993,-3.0333,-3.0333,-3.003,-2.9844,-2.9844,-2.9844,-2.9844,-2.9844,-2.9844,-2.8966,-2.7338,-2.6969,-2.5877,-2.4348,-2.3946,-2.3822,-2.3822,-2.3822,-2.3394,-2.2747,-2.2747,-2.2475,-2.2015,-2.1768,-2.1848,-2.2059,0.0,0.0,0.0,0.0,0.0,0.0,0.0,-1.1483,-1.2094,-1.2744,-1.3013,-1.3166,-1.3166,-1.2931,-1.2636,0.0,0.0,0.0,0.0,0.0,0.0,0.0,0.0,0.0,0.0,0.0,0.0,-1.833,-1.9001,0.0,0.0,0.0,0.0,0.0,0.0,-1.8037,-1.8066,-1.8066,0.0,0.0,0.0,0.0,0.0,0.0,0.0,0.0,0.0,-2.0019,-1.9401,-2.0717,-2.2079,-2.3328,-2.3887,-2.6356,-2.9111,-2.9141,0.0,0.0,-3.3252,-3.3965,-3.4287,-3.3047,-3.1172,-2.917,-2.7412,0.0,-2.376,-2.3198,-2.3091,-2.2984,-2.2637,-2.2607,-2.29,-2.3711,-2.3887,-2.4814,0.0,0.0,0.0,0.0,0.0,0.0,0.0,0.0,0.0,0.0,0.0,0.0,-3.1513,-2.9705,-2.8605,-2.8605,-2.7202,-2.647,-2.647,-2.647,-2.647,-2.647,-2.647,-2.604,-2.5186,-2.5153,-2.4638,-2.3871,-2.3838,-2.3822,0.0,-2.3822,-2.2839,-2.1377,-2.1377,-2.1118,-2.0677,-2.04,-2.1071,-2.2059,0.0,0.0,0.0,0.0,0.0,0.0,-1.1156,-1.145,-1.1944,-1.2899,-1.3133,-1.3273,-1.3413,-1.3206,-1.2832,-1.2345,0.0,0.0,0.0,0.0,0.0,0.0,0.0,0.0,0.0,0.0,-1.8349,-1.925,-1.9512,0.0,0.0,0.0,0.0,0.0,0.0,0.0,-1.8008,-1.8008,0.0,0.0,0.0,0.0,0.0,0.0,0.0,0.0,0.0,0.0,-1.8989,-1.8791,-1.9746,-2.0852,-2.0052,-2.1755,-2.4783,-2.7939,-2.8942,-2.9418,-3.1506,-3.182,-3.1261,-3.0272,-2.8453,-2.6474,-2.4801,0.0,-2.146,-2.1032,-2.0944,-2.1016,-2.137,-2.1631,-2.2045,-2.2868,-2.3027,-2.3506,-2.485,0.0,0.0,0.0,0.0,0.0,0.0,0.0,0.0,0.0,0.0,0.0,-2.8162,-2.7401,-2.6953,-2.6953,-2.634,-2.5976,-2.5976,-2.5976,-2.5976,-2.5976,-2.5976,-2.5125,-2.3579,-2.3579,-2.2688,-2.1152,-2.1152,-2.1152,0.0,-2.1152,-2.0744,-2.0131,-2.0131,-2.0004,-1.9801,-1.9494,-1.9585,-1.9913,0.0,0.0,0.0,0.0,0.0,-1.0381,-1.1176,-1.1335,-1.1755,-1.2812,-1.3019,-1.3186,-1.3447,-1.3253,-1.2899,-1.2472,-1.2351,0.0,0.0,0.0,0.0,0.0,0.0,0.0,0.0,0.0,-1.7999,-1.9822,-1.9897,-1.9915,0.0,0.0,0.0,0.0,0.0,0.0,0.0,0.0,0.0,0.0,0.0,0.0,0.0,0.0,0.0,0.0,0.0,0.0,0.0,0.0,0.0,-1.8676,-1.7376,-1.814,-2.0434,-2.5043,-2.6314,-2.677,-2.906,-2.9442,-2.8951,-2.8162,-2.633,-2.4429,0.0,0.0,-1.984,-1.9546,-1.9497,-1.9653,-2.0079,-2.036,-2.0766,-2.1309,-2.1392,-2.1701,-2.2432,-2.2784,0.0,0.0,0.0,0.0,0.0,0.0,0.0,0.0,0.0,0.0,-2.4586,-2.4517,-2.4763,-2.5253,-2.4832,-2.4517,-2.4517,-2.4517,-2.4517,-2.4517,-2.4485,-2.3536,-2.1946,-2.1911,-2.0937,-1.9424,-1.9424,-1.9424,0.0,-1.9424,-1.9319,-1.9239,-1.9239,-1.9239,-1.9199,-1.8905,-1.8664,-1.8444,0.0,0.0,0.0,0.0,0.0,0.0,-1.0909,-1.1243,-1.1602,-1.2231,-1.2603,-1.2911,-1.318,-1.2978,-1.279,-1.2784,-1.2472,0.0,0.0,0.0,0.0,0.0,0.0,0.0,0.0,0.0,-1.6734,-1.9607,-1.9871,-2.0018,-1.9991,-1.9309,-1.8341,-1.7074,0.0,0.0,0.0,0.0,0.0,0.0,0.0,0.0,-1.7334,0.0,0.0,0.0,0.0,0.0,0.0,0.0,0.0,0.0,0.0,-1.6147,-1.6726,-1.9545,-2.3047,-2.5991,-2.6067,-2.7294,-2.8399,-2.7535,-2.5635,-2.3806,0.0,-2.1065,-1.9497,-1.9497,-1.9497,-1.9381,-1.8884,-1.8819,-1.8819,-1.8855,-1.8855,-1.9278,-2.066,-2.156,0.0,0.0,0.0,0.0,0.0,0.0,0.0,0.0,0.0,0.0,-2.1235,-2.1172,-2.1908,-2.3574,-2.2034,-2.1172,-2.1172,-2.1172,-2.1172,-2.1166,-2.0877,-2.0583,-2.0221,-1.9933,-1.9646,-1.9424,0.0,-1.9424,0.0,-1.9424,-1.9192,-1.8925,-1.8925,-1.8925,-1.8891,-1.8604,-1.8497,-1.8444,0.0,0.0,0.0,0.0,0.0,0.0,0.0,-1.0641,-1.1008,-1.1356,-1.1873,-1.2295,-1.2559,-1.2872,-1.3066,-1.3066,-1.2599,0.0,0.0,0.0,0.0,0.0,0.0,0.0,0.0,-1.6101,-1.6855,-2.0014,-2.0328,-2.0483,-2.0474,-2.0036,-1.8848,-1.7074,-1.6589,0.0,0.0,0.0,0.0,0.0,0.0,-1.5457,-1.6191,0.0,0.0,0.0,0.0,0.0,0.0,0.0,0.0,0.0,0.0,0.0,0.0,-1.6418,-1.8249,-2.0466,-2.2534,-2.2733,-2.227,-2.1953,-2.077,-1.9505,-1.904,-1.7923,-1.6976,-1.6976,-1.6976,-1.7108,-1.7492,-1.7811,-1.8215,-1.8779,-1.9113,-1.9128,0.0,0.0,0.0,0.0,0.0,0.0,0.0,0.0,0.0,0.0,0.0,0.0,-2.1109,-2.1109,-2.1355,-2.1846,-2.1355,-2.1015,-2.0815,-2.0815,-2.0708,-2.0508,-2.0414,-2.0221,-1.9933,-1.9846,-1.9639,0.0,-1.9424,-1.9424,-1.9424,-1.9424,-1.9312,-1.9225,-1.9225,-1.9225,-1.9219,-1.9125,-1.8958,-1.8744,0.0,0.0,0.0,0.0,0.0,0.0,0.0,-1.1272,-1.1498,-1.1458,-1.1873,-1.2247,-1.2295,-1.2739,-1.308,-1.32,-1.2866,0.0,0.0,0.0,0.0,0.0,0.0,0.0,-1.6464,-1.5283,-1.606,-1.8914,-1.9352,-1.9561,-1.9552,-1.9369,-1.8216,-1.6273,-1.5886,-1.5682,0.0,0.0,0.0,0.0,-1.4496,-1.4592,-1.5095,0.0,0.0,0.0,0.0,0.0,0.0,0.0,0.0,0.0,0.0,0.0,0.0,0.0,-1.5732,-1.7032,-1.9413,-1.9584,-1.9038,-1.9038,-1.8278,-1.7427,-1.7239,-1.6466,-1.5784,-1.5784,-1.5784,-1.592,-1.6338,-1.6722,-1.7115,-1.7508,-1.7858,-1.7848,0.0,0.0,0.0,0.0,0.0,0.0,0.0,0.0,0.0,0.0,0.0,0.0,-2.1109,-2.1109,-2.1109,-2.1109,-2.1109,-2.0969,-2.0681,-2.0675,-2.0528,-2.0173,-2.012,-1.9973,-1.98,-1.9686,-1.9539,0.0,-1.9424,-1.9424,0.0,-1.9424,-1.9424,-1.9424,-1.9424,-1.9299,-1.9199,-1.9199,-1.8945,-1.8564,0.0,0.0,0.0,0.0,0.0,0.0,0.0,-1.2671,-1.2755,-1.2247,-1.2417,-1.2497,-1.2251,-1.2596,-1.2938,-1.3186,0.0,0.0,0.0,0.0,0.0,0.0,0.0,0.0,-1.4554,-1.3999,-1.4685,-1.6807,-1.7423,-1.7721,-1.7721,-1.7721,-1.6735,-1.5015,-1.4402,-1.4497,-1.5036,-1.5289,-1.5252,-1.4992,-1.4597,-1.4329,0.0,0.0,0.0,0.0,0.0,0.0,0.0,0.0,0.0,0.0,0.0,0.0,0.0,0.0,0.0,0.0,0.0,-1.7669,-1.8297,-1.8277,-1.7695,-1.7079,-1.7079,-1.6386,0.0,-1.5778,-1.5764,-1.5718,-1.5471,-1.5631,-1.5718,-1.5471,-1.5651,-1.5784,0.0,0.0,0.0,0.0,0.0,0.0,0.0,0.0,0.0,0.0,0.0,0.0,-2.1109,-2.1109,-2.1096,-2.1082,-2.1076,-2.0942,-2.0648,-2.0628,-2.0468,-2.0167,-1.99,-1.9766,-1.976,-1.9492,-1.9424,0.0,-1.9424,-1.9424,-1.9424,-1.9424,-1.9424,-1.9424,-1.9345,-1.9165,-1.8918,-1.8905,-1.8495,-1.8022,0.0,0.0,0.0,0.0,0.0,0.0,0.0,0.0,0.0,0.0,-1.1784,-1.1682,-1.1617,-1.2512,-1.3133,0.0,0.0,0.0,0.0,0.0,0.0,0.0,0.0,0.0,-1.4562,-1.4414,-1.5109,-1.6807,-1.7602,-1.801,-1.801,-1.801,-1.7066,-1.5277,-1.4917,-1.4642,-1.4351,-1.4384,-1.4371,-1.4323,-1.4213,-1.4148,0.0,0.0,0.0,0.0,-1.4088,-1.4422,0.0,0.0,0.0,0.0,0.0,0.0,0.0,0.0,-1.5344,-1.5504,-1.6005,0.0,-1.64,-1.6179,-1.5965,-1.5812,0.0,-1.5645,-1.5565,-1.5785,-1.5651,-1.5545,-1.5698,-1.5605,-1.5545,-1.5705,-1.5738,-1.5784,0.0,0.0,0.0,0.0,0.0,0.0,0.0,0.0,0.0,0.0,0.0,-2.1109,-2.1109,-2.1109,-2.1009,-2.0782,-2.0775,-2.0635,-2.0341,-2.0114,-1.986,-1.9573,-1.9499,-1.9466,-1.9466,-1.9457,-1.9424,-1.9424,-1.9424,-1.9424,-1.9424,-1.9424,-1.9424,-1.9345,-1.9118,-1.8985,-1.8898,-1.8677,-1.8504,-1.8357,0.0,0.0,0.0,0.0,0.0,0.0,0.0,0.0,0.0,0.0,0.0,-1.226,-1.1491,-1.2492,0.0,0.0,0.0,0.0,0.0,0.0,0.0,0.0,0.0,-1.3367,-1.4132,-1.4246,-1.4863,-1.5947,-1.6707,-1.7051,-1.7058,-1.72,-1.6612,-1.5378,-1.495,-1.4509,-1.4095,-1.4229,-1.4208,-1.4095,-1.4229,0.0,0.0,0.0,0.0,0.0,-1.4088,-1.4376,0.0,-1.4961,-1.5257,-1.5578,0.0,0.0,0.0,0.0,-1.5384,-1.5631,-1.5738,-1.5784,-1.5792,-1.5631,-1.5591,-1.5558,-1.5424,-1.5398,-1.5404,-1.5431,0.0,-1.5244,-1.5404,-1.5411,-1.5444,-1.5605,-1.5745,0.0,0.0,0.0,0.0,0.0,0.0,0.0,0.0,0.0,0.0,0.0,0.0,-2.0708,-2.0708,-2.0708,-2.0635,-2.0474,-2.0341,-2.0194,-2.0034,-1.988,-1.9659,-1.9424,-1.9424,-1.9424,-1.9424,-1.9424,-1.9292,-1.9165,-1.9165,-1.9085,-1.8978,-1.9112,-1.9165,-1.9152,-1.8985,-1.8838,-1.8691,-1.8397,-1.8196,-1.805,0.0,0.0,0.0,0.0,0.0,0.0,0.0,0.0,0.0,0.0,0.0,0.0,0.0,0.0,0.0,0.0,0.0,0.0,0.0,0.0,0.0,0.0,-1.33,-1.3373,-1.3666,-1.4048,-1.4526,-1.5075,-1.5658,-1.5917,-1.5917,-1.6266,-1.6046,-1.5371,-1.4783,-1.4355,-1.4102,-1.4349,-1.4309,-1.4108,-1.4355,0.0,0.0,0.0,0.0,0.0,0.0,0.0,0.0,-1.481,-1.509,-1.5297,-1.5142,0.0,0.0,0.0,0.0,0.0,-1.5784,-1.5784,-1.5771,-1.5724,-1.5718,-1.5698,-1.5451,-1.5357,-1.5284,0.0,0.0,-1.5035,-1.5122,-1.5297,0.0,0.0,0.0,0.0,0.0,0.0,0.0,0.0,0.0,0.0,0.0,0.0,0.0,0.0,0.0,-2.0173,-2.0173,-2.0173,-2.0153,-2.0167,-1.9927,-1.978,-1.9733,-1.9733,-1.9606,-1.9424,-1.9424,-1.9345,-1.9299,-1.9299,-1.9138,-1.8858,0.0,0.0,-1.851,-1.8758,-1.8858,-1.8851,-1.8804,-1.8637,-1.8384,-1.8083,-1.7809,-1.7582,0.0,0.0,0.0,0.0,0.0,0.0,0.0,0.0,0.0,0.0,0.0,0.0,0.0,0.0,0.0,0.0,0.0,0.0,0.0,0.0,0.0,-1.3955,-1.3673,-1.3673,-1.4015,-1.4549,-1.5042,-1.5331,-1.6166,-1.6573,-1.658,-1.6874,-1.6489,-1.5371,-1.4783,-1.4355,-1.4088,-1.4135,-1.4128,-1.4088,-1.4135,0.0,0.0,0.0,0.0,0.0,0.0,0.0,0.0,-1.4569,-1.4783,-1.5109,-1.5264,0.0,0.0,0.0,0.0,0.0,-1.5784,-1.5784,-1.5772,-1.5524,-1.5464,-1.5451,-1.5404,-1.5204,-1.5157,0.0,0.0,0.0,0.0,-1.5732,-1.5845,0.0,0.0,0.0,0.0,0.0,0.0,0.0,0.0,0.0,0.0,0.0,0.0,0.0,0.0,-2.0173,-2.0173,-2.0173,-2.012,-1.9873,-1.982,-1.9679,-1.9432,-1.9432,-1.947,-1.9424,-1.9424,-1.9232,-1.8991,-1.8991,-1.8831,-1.8557,0.0,-1.8531,-1.8497,-1.8537,-1.8557,-1.8531,-1.8222,-1.8095,-1.8022,-1.7769,-1.7622,-1.7582,0.0,0.0,0.0,0.0,0.0,0.0,0.0,0.0,0.0,0.0,0.0,0.0,0.0,0.0,0.0,0.0,0.0,0.0,0.0,0.0,-1.4155,-1.4315,-1.4188,-1.4182,-1.4315,-1.4787,-1.5184,-1.5631,-1.6199,-1.6473,-1.6473,-1.6446,-1.5979,-1.515,-1.4883,-1.4509,-1.4088,-1.4088,-1.4088,-1.4088,0.0,0.0,0.0,0.0,0.0,0.0,0.0,0.0,0.0,0.0,-1.4609,-1.4776,-1.507,0.0,0.0,0.0,0.0,0.0,-1.5638,-1.5712,-1.5758,-1.5471,-1.5518,-1.5585,-1.5431,-1.5291,-1.5224,-1.5337,0.0,0.0,0.0,0.0,-1.6079,-1.6854,0.0,0.0,0.0,0.0,0.0,0.0,0.0,0.0,-2.0013,-1.9873,-1.9826,-1.9987,-1.9853,-1.9766,-1.9766,-1.9766,-1.9626,-1.9339,-1.9325,-1.9185,-1.8898,-1.8891,-1.8971,-1.9125,-1.8965,-1.8824,-1.8691,-1.8691,-1.8531,-1.825,0.0,-1.8156,-1.8016,-1.8183,-1.825,-1.8237,-1.8042,-1.7995,-1.7955,-1.7695,-1.7582,-1.7582,0.0,0.0,0.0,0.0,0.0,0.0,0.0,0.0,0.0,0.0,0.0,0.0,0.0,0.0,0.0,0.0,0.0,0.0,0.0,-1.3921,-1.4215,-1.4502,-1.4589,-1.4656,-1.4723,-1.495,-1.5351,-1.5932,-1.6159,-1.6321,-1.6266,-1.6039,-1.5625,-1.5109,-1.5035,-1.472,-1.4182,-1.4115,-1.4088,-1.4088,0.0,0.0,0.0,0.0,0.0,0.0,0.0,0.0,0.0,0.0,0.0,0.0,0.0,0.0,0.0,-1.5271,-1.5451,-1.5578,-1.5357,-1.5504,-1.5658,-1.5364,-1.5565,-1.5792,-1.5638,-1.5598,-1.5558,-1.545,0.0,0.0,0.0,-1.5892,0.0,-1.7615,0.0,0.0,0.0,0.0,0.0,0.0,-1.9272,-1.9392,-2.0067,-1.9666,-1.9432,-1.9586,-1.9392,-1.9239,-1.9165,-1.9165,-1.9058,-1.8831,-1.8758,-1.8611,-1.8384,-1.825,-1.839,-1.8818,-1.8597,-1.8457,-1.8384,-1.8384,-1.8223,-1.7889,-1.7889,-1.7802,-1.7602,-1.7842,-1.7889,-1.7889,-1.7889,-1.7889,-1.7856,-1.7669,-1.7582,-1.7582,0.0,0.0,0.0,0.0,0.0,0.0,0.0,0.0,0.0,0.0,0.0,0.0,0.0,0.0,0.0,0.0,0.0,0.0,0.0,-1.3921,-1.4215,-1.4502,-1.4783,-1.5102,-1.5324,-1.5351,-1.5651,-1.6239,-1.6308,-1.6321,-1.6321,-1.6301,-1.5932,-1.5351,-1.5129,-1.4783,-1.4469,-1.4202,-1.4088,-1.4088,-1.4088,0.0,0.0,0.0,0.0,0.0,0.0,0.0,0.0,0.0,0.0,0.0,0.0,0.0,-1.4636,-1.4961,-1.5055,-1.5068,-1.5042,-1.5204,-1.5357,-1.5115,-1.5418,-1.5899,-1.6152,-1.6261,-1.6279,-1.6526,0.0,0.0,0.0,-1.6723,-1.7407,-1.8277,0.0,0.0,0.0,0.0,-2.0354,-1.9826,-1.9746,-1.9766,-1.9826,-1.9553,-1.9259,-1.9005,-1.8965,-1.8838,-1.8571,-1.8551,-1.8544,-1.8524,-1.8257,-1.8042,-1.8029,-1.7522,-1.7728,-1.8524,-1.8504,-1.8343,-1.8029,-1.8029,-1.7909,-1.7615,-1.7615,-1.7602,-1.7582,-1.7609,-1.7615,-1.7615,-1.7615,-1.7615,-1.7615,-1.7589,-1.7582,-1.7582,0.0,0.0,0.0,0.0,0.0,0.0,0.0,0.0,0.0,0.0,0.0,0.0,0.0,0.0,0.0,0.0,0.0,0.0,0.0,-1.3647,-1.3979,-1.4496,-1.4803,-1.5062,-1.5169,-1.5304,-1.5685,-1.6321,-1.6321,-1.6321,-1.6321,-1.6086,-1.5685,-1.5169,-1.5062,-1.4703,-1.4242,-1.4135,-1.4088,-1.4088,-1.4088,-1.4088,0.0,0.0,0.0,0.0,0.0,0.0,0.0,0.0,-1.4088,-1.4135,-1.4429,-1.4522,-1.4583,-1.4921,-1.5008,-1.4782,-1.3862,-1.3868,-1.3902,-1.2951,-1.3034,-1.3616,-1.4569,-1.5026,-1.5032,-1.4304,-1.4228,0.0,0.0,0.0,-1.5321,-1.7012,-1.7778,0.0,-1.9648,-1.9993,-1.998,-1.9579,-1.9533,-1.9459,-1.9272,-1.9152,-1.8971,-1.8677,-1.8651,-1.8604,-1.8497,-1.849,-1.8317,-1.7936,-1.7816,-1.7199,-1.5992,-1.6566,-1.6676,-1.6199,-1.7186,-1.7648,-1.7495,-1.7675,-1.7695,-1.7582,-1.7582,-1.7582,-1.7582,-1.7582,-1.7582,-1.7582,-1.7582,-1.7582,-1.7582,-1.7582,-1.7582,-1.7582,0.0,0.0,0.0,0.0,0.0,0.0,0.0,0.0,0.0,0.0,0.0,0.0,0.0,0.0,0.0,0.0,0.0,0.0,-1.3039,-1.3387,-1.382,-1.4362,-1.4756,-1.5008,-1.5008,-1.5251,-1.5638,-1.6132,-1.6226,-1.6274,-1.6126,-1.5925,-1.5618,-1.5231,-1.5095,-1.4834,-1.4482,-1.4202,-1.4142,-1.4215,-1.4122,-1.4088,0.0,0.0,0.0,0.0,0.0,0.0,0.0,0.0,-1.3512,-1.3544,-1.3737,-1.4067,-1.4336,-1.4215,-1.4134,-1.3862,-1.247,-1.2428,-1.2472,-1.141,-1.1569,-1.2127,-1.2668,-1.3501,-1.3949,-1.3147,-1.3053,-1.3004,-1.2795,0.0,0.0,0.0,-1.6119,-1.6924,-1.8128,-1.8696,-1.8957,-1.868,-1.8983,-1.8966,-1.8293,-1.8133,-1.7791,-1.7061,-1.6961,-1.6874,-1.6787,-1.6707,-1.6536,-1.6097,-1.5998,-1.5357,-1.4071,-1.4803,-1.4761,-1.3908,-1.5133,-1.5935,-1.6439,-1.6626,-1.6501,-1.615,-1.615,-1.62,-1.6227,-1.6227,-1.6499,-1.6935,-1.7417,-1.7582,-1.7582,-1.7582,-1.7312,-1.6929,0.0,0.0,0.0,0.0,0.0,0.0,0.0,0.0,0.0,0.0,0.0,0.0,0.0,0.0,0.0,0.0,0.0,0.0,-1.2764,-1.33,-1.3726,-1.4068,-1.4687,-1.5008,-1.5008,-1.5244,-1.5538,-1.5784,-1.6126,-1.6119,-1.5784,-1.5784,-1.5778,-1.5751,-1.5217,-1.5117,-1.5324,-1.4456,-1.4255,-1.4489,-1.4208,-1.4088,-1.4122,0.0,0.0,0.0,0.0,0.0,0.0,0.0,-1.2279,-1.2279,-1.2279,-1.3118,-1.3828,-1.2632,-1.2285,-1.2029,-1.0869,-1.0934,-1.1182,-1.0875,-1.1475,-1.1829,-1.0685,-1.1876,-1.3402,-1.3774,-1.3399,-1.2886,-1.2621,-1.2968,0.0,-1.3805,-1.4488,-1.4983,-1.4988,-1.6375,-1.7244,-1.6991,-1.809,-1.833,-1.6918,-1.6446,-1.5568,-1.3825,-1.3598,-1.3367,-1.3036,-1.2874,-1.2812,-1.2812,-1.2546,-1.2379,-1.2379,-1.2056,-1.1896,-1.1901,-1.2222,-1.3245,-1.4794,-1.4794,-1.4111,-1.3026,-1.3026,-1.31,-1.3318,-1.3318,-1.4126,-1.5524,-1.6988,-1.7582,-1.7582,-1.7582,-1.6605,-1.5364,0.0,0.0,0.0,0.0,0.0,0.0,0.0,0.0,0.0,0.0,0.0,0.0,0.0,0.0,0.0,0.0,0.0,0.0,-1.2764,-1.2951,-1.324,-1.3713,-1.4342,-1.4656,-1.4656,-1.5144,-1.5538,-1.5784,-1.5919,-1.5912,-1.5784,-1.5784,-1.5611,-1.5211,-1.5082,-1.4827,-1.4456,-1.4195,-1.4135,-1.4222,-1.4342,-1.4389,-1.4422,0.0,0.0,0.0,0.0,0.0,0.0,0.0,0.0,0.0,-1.108,-1.1418,-1.1701,-1.1219,-1.1158,-1.0989,-0.9747,-0.9589,-0.9561,-0.8847,0.0,0.0,0.0,-1.061,-1.1479,0.0,-1.0674,-1.0417,-1.0367,0.0,0.0,-1.2214,-1.2664,-1.3333,-1.4555,-1.5037,-1.5258,-1.5189,-1.5371,-1.527,-1.4702,-1.451,-1.4137,-1.3255,-1.3163,-1.3084,-1.2869,-1.2797,-1.269,-1.2531,-1.2464,-1.1855,-1.0722,-1.1492,-1.1463,-1.0583,-1.157,-1.2405,-1.3134,-1.3295,-1.3203,-1.2858,-1.2858,-1.2929,-1.309,-1.3252,-1.3534,-1.3965,-1.4395,-1.4556,-1.4556,-1.4556,-1.4288,-1.3911,0.0,0.0,0.0,0.0,0.0,0.0,0.0,0.0,0.0,0.0,-1.4273,-1.3532,0.0,0.0,0.0,0.0,0.0,0.0,-1.2596,-1.2717,-1.3052,-1.358,-1.4095,-1.4509,-1.4856,-1.5211,-1.5484,-1.5658,-1.5772,-1.5784,-1.5784,-1.5784,-1.5645,-1.5304,-1.519,-1.4937,-1.4589,-1.4355,-1.4329,-1.4442,-1.4496,-1.4248,-1.388,0.0,0.0,0.0,0.0,0.0,0.0,0.0,0.0,0.0,-0.9923,-1.027,-1.0612,-1.0091,-0.9969,-0.9779,-0.8524,-0.8319,0.0,-0.7941,-0.813,-0.857,-0.9101,0.0,0.0,0.0,-0.9574,-0.9473,-0.9473,-0.9371,0.0,-1.0686,-1.0895,-1.1344,-1.2393,-1.3005,-1.3389,-1.3389,-1.3705,-1.3648,-1.2822,-1.2671,-1.2215,-1.1304,-1.1159,-1.1122,-1.101,-1.0926,-1.0828,-1.0666,-1.0662,-1.0207,-0.9217,-0.9948,-0.9948,-0.9217,-0.9998,-1.0448,-1.0662,-1.1381,-1.1434,-1.101,-1.1082,-1.1123,-1.1243,-1.203,-1.2329,-1.2383,-1.2973,-1.3242,-1.3308,-1.3217,-1.2866,-1.2403,0.0,0.0,0.0,0.0,0.0,0.0,0.0,0.0,0.0,0.0,-1.4599,-1.3904,0.0,0.0,0.0,0.0,0.0,0.0,0.0,-1.2589,-1.3025,-1.3573,-1.4008,-1.4589,-1.5418,-1.5411,-1.5398,-1.5398,-1.5691,-1.5764,-1.5744,-1.5771,-1.5717,-1.5582,-1.5299,-1.5107,-1.495,-1.44,-1.4315,-1.4589,-1.4302,-1.3573,-1.268,-1.3078,0.0,0.0,0.0,0.0,0.0,0.0,0.0,0.0,-0.8715,-0.9458,-1.0115,-0.9065,-0.8727,-0.8524,-0.7425,-0.7377,-0.7641,-0.7811,-0.8306,0.0,-0.9166,-0.9595,-0.9883,-0.9791,0.0,-0.9588,-0.9588,-0.9361,-0.9275,-0.9357,-0.9381,-0.9381,-0.9381,-1.0628,-1.1581,-1.1564,-1.2562,-1.2679,-1.1172,-1.0844,-1.0095,-0.8577,-0.8395,-0.8316,-0.8252,-0.8116,-0.7988,-0.7988,-0.7988,-0.7988,-0.7988,-0.7988,-0.7988,-0.7988,-0.7988,-0.7988,-0.8038,-0.9262,-0.9253,-0.8258,-0.8401,-0.8462,-0.858,-1.011,-1.0715,-1.0826,-1.2106,-1.2763,-1.2862,-1.2713,-1.1916,-1.0891,0.0,0.0,0.0,0.0,0.0,0.0,0.0,0.0,0.0,0.0,0.0,0.0,0.0,0.0,0.0,0.0,0.0,0.0,0.0,-1.2365,-1.2772,-1.3567,-1.4589,-1.5311,-1.5732,-1.5511,-1.5398,-1.5398,-1.5691,-1.5712,-1.5491,-1.5718,-1.5119,-1.3895,-1.3734,-1.2955,-1.179,-1.1543,-1.1494,-1.1554,-1.1734,-1.17,-1.1504,-1.1785,-1.154,0.0,0.0,0.0,0.0,0.0,0.0,0.0,-0.7489,-0.7752,-0.8009,-0.7613,-0.7581,-0.7681,-0.741,-0.7458,0.0,-0.8075,-0.8671,-0.9163,-0.9289,-0.9432,-0.9483,-0.933,-0.9367,-0.9432,-0.9432,-0.9374,-0.9344,-0.9374,-0.9381,-0.9381,-0.9381,-0.962,-0.972,-0.9545,-0.9658,-0.9596,-0.9168,-0.9071,-0.8832,-0.8378,-0.834,-0.8218,-0.8096,-0.8008,-0.7988,-0.7988,-0.7988,-0.7988,-0.7988,-0.7988,-0.7988,-0.7988,-0.7988,-0.7988,-0.7988,-0.8287,-0.8304,-0.8099,-0.8252,-0.8368,-0.8388,-0.897,-0.9187,-0.9198,-0.9646,-0.983,-0.9856,-0.9819,-0.9614,-0.9372,0.0,0.0,0.0,0.0,0.0,0.0,0.0,0.0,0.0,0.0,0.0,0.0,0.0,0.0,0.0,0.0,0.0,0.0,0.0,0.0,-1.2705,-1.356,-1.4636,-1.5257,-1.5411,-1.5264,-1.5124,-1.4977,-1.5271,-1.5404,-1.5404,-1.5066,-1.4434,-1.3614,-1.2851,-1.1962,-1.1051,-1.0908,-1.0855,-1.0865,-1.1032,-1.0766,-1.0253,-1.0456,-1.0045,-0.9251,-0.8627,0.0,0.0,0.0,0.0,0.0,0.0,0.0,-0.7244,-0.7119,-0.7251,-0.7415,-0.7415,-0.7533,0.0,-0.835,0.0,-0.9251,-0.9347,-0.9323,-0.9306,-0.9224,-0.933,-0.9381,-0.9381,-0.932,-0.9249,-0.9181,-0.9106,-0.9035,-0.896,-0.8882,-0.8804,-0.873,-0.8648,-0.8543,-0.8394,-0.8381,-0.8319,-0.817,-0.816,-0.8126,-0.7992,-0.7988,-0.7988,-0.7988,-0.7988,-0.7988,-0.7988,-0.7988,-0.7988,-0.7988,-0.7988,-0.7988,-0.7988,-0.7988,-0.7988,-0.7995,-0.8126,-0.816,-0.8177,-0.8404,-0.854,-0.8608,-0.8689,-0.8811,-0.8875,-0.8801,-0.8821,-0.8885,0.0,0.0,0.0,0.0,0.0,0.0,0.0,0.0,0.0,0.0,0.0,0.0,0.0,0.0,0.0,0.0,0.0,0.0,0.0,0.0,0.0,-1.3567,-1.4442,-1.4955,-1.5008,-1.4955,-1.477,-1.4522,-1.4579,-1.4779,-1.5021,-1.4194,-1.3611,-1.3121,-1.1884,-1.1057,-1.0613,-1.0453,-1.0411,-1.0395,-1.0362,-0.9794,-0.8951,-0.9051,-0.8383,-0.7333,-0.7333,-0.7333,-0.7312,-0.7139,0.0,0.0,0.0,0.0,-0.7095,-0.7095,-0.7231,-0.7336,-0.7409,-0.7604,-0.7991,-0.8567,-0.8896,0.0,-0.9269,-0.9208,-0.9173,-0.9173,-0.9218,-0.9306,-0.9306,-0.9201,-0.9069,-0.8923,-0.8794,-0.8659,-0.8503,-0.8482,-0.8472,-0.8448,-0.8445,-0.8387,-0.8245,-0.8231,-0.8177,-0.7998,-0.7988,-0.7988,-0.7988,-0.7988,-0.7988,-0.7988,-0.7988,-0.7988,-0.7988,-0.7988,-0.7988,-0.7988,-0.7988,-0.7988,-0.7988,-0.7988,-0.7988,-0.7988,-0.7988,-0.7988,-0.8002,-0.8208,-0.834,-0.8448,-0.8472,-0.8652,-0.8828,-0.8757,-0.8808,-0.8885,0.0,0.0,0.0,0.0,0.0,0.0,0.0,0.0,0.0,0.0,-1.307,-1.2515,0.0,0.0,0.0,0.0,0.0,0.0,-1.2285,0.0,0.0,-1.3586,-1.4199,-1.4703,-1.5001,-1.471,-1.4563,-1.4522,-1.3561,-1.3246,-1.3502,-1.3479,-1.2356,-1.0314,-0.9968,-0.9091,-0.7924,-0.7581,-0.753,-0.7639,-0.7509,-0.7447,-0.7391,-0.7412,-0.732,-0.7125,-0.7125,-0.7125,-0.7125,-0.7102,-0.7095,0.0,0.0,0.0,-0.7095,-0.7095,-0.7109,-0.7156,-0.7333,0.0,-0.8073,0.0,-0.874,-0.8808,0.0,0.0,-0.8967,0.0,-0.8929,-0.8942,-0.8942,-0.8925,-0.8916,-0.8764,-0.8723,-0.8659,-0.8503,-0.8482,-0.8435,-0.8364,-0.835,-0.8238,-0.8035,-0.8019,-0.8012,-0.7992,-0.7988,-0.7988,-0.7988,-0.7988,-0.7988,-0.7988,-0.7988,-0.7988,-0.7988,-0.7988,-0.7988,-0.7988,-0.7988,-0.7988,-0.7988,-0.7988,-0.7988,-0.7988,-0.7988,-0.7988,-0.8002,-0.8208,-0.8333,-0.8364,-0.8435,-0.8587,-0.8737,-0.8716,-0.8808,-0.8885,0.0,0.0,0.0,0.0,0.0,0.0,0.0,0.0,0.0,0.0,0.0,-1.2648,0.0,0.0,0.0,-1.1886,-1.2053,-1.2164,-1.2291,-1.2705,-1.3045,-1.3133,-1.3554,-1.3921,-1.4222,-1.3434,-1.31,-1.325,-1.2108,-1.1387,-1.1,-1.1094,-1.0716,-0.9953,-0.8906,-0.8109,-0.7482,-0.7177,-0.6994,-0.698,-0.6997,-0.6994,-0.6977,-0.6977,-0.7028,-0.7085,-0.7007,-0.7028,-0.7095,-0.7095,-0.7095,-0.7095,-0.7095,0.0,0.0,0.0,-0.7204,-0.7322,-0.7553,-0.7763,-0.8001,0.0,-0.8523,-0.8621,-0.8774,0.0,-0.8858,-0.8828,-0.8824,-0.8885,-0.8885,-0.8814,-0.876,-0.8608,-0.8516,-0.8408,-0.8255,-0.8235,-0.8211,-0.8147,-0.814,-0.8113,-0.7995,-0.7988,-0.7988,-0.7988,-0.7988,-0.7988,-0.7988,-0.7911,-0.7913,-0.7913,-0.7913,-0.7913,-0.7913,-0.7948,-0.7988,-0.7988,-0.7988,-0.7988,-0.7988,-0.7988,-0.7988,-0.7988,-0.7988,-0.7988,-0.7995,-0.8113,-0.8194,-0.833,-0.834,-0.8455,-0.8594,-0.8679,-0.8754,-0.8821,0.0,0.0,0.0,0.0,0.0,0.0,0.0,0.0,0.0,0.0,0.0,0.0,0.0,0.0,0.0,0.0,-1.2178,-1.2305,-1.2305,-1.2549,-1.2703,-1.2784,-1.3046,-1.3347,-1.3593,-1.2562,-1.2092,-1.2285,-1.0869,-0.9897,-0.932,-0.8999,-0.9164,-0.9645,-0.8263,-0.7611,-0.7522,-0.721,-0.7058,-0.7044,-0.7031,-0.7001,-0.694,-0.694,-0.7004,-0.7082,-0.6977,-0.7007,0.0,0.0,0.0,0.0,-0.7095,-0.7095,0.0,0.0,0.0,-0.737,0.0,0.0,-0.7821,-0.8085,-0.8292,-0.8459,0.0,0.0,-0.8791,0.0,-0.8743,-0.8821,-0.8821,-0.876,-0.8659,-0.8506,-0.8364,-0.8218,-0.8012,-0.7988,-0.7988,-0.7988,-0.7988,-0.7988,-0.7988,-0.7988,-0.7988,-0.7988,-0.7988,-0.7971,-0.7934,-0.7872,-0.7794,-0.7756,-0.7756,-0.7756,-0.7756,-0.7906,-0.7931,-0.7931,-0.7971,-0.7988,-0.7988,-0.7988,-0.7988,-0.7988,-0.7988,-0.7988,-0.7988,-0.7988,-0.8106,-0.8211,-0.8211,-0.8323,-0.8496,-0.8611,-0.8703,-0.8784,0.0,0.0,0.0,0.0,0.0,0.0,0.0,0.0,0.0,0.0,0.0,0.0,-1.1995,-1.1886,-1.202,-1.2258,-1.2291,-1.2305,-1.2305,-1.2318,-1.2489,-1.277,-1.3046,0.0,-1.3593,-1.2746,-1.2273,-1.2285,-1.0096,-0.9169,-0.9463,-0.827,-0.7935,-0.8357,-0.7989,-0.7645,-0.7419,-0.721,-0.7221,-0.7368,-0.7051,-0.697,-0.7085,-0.7085,-0.7088,-0.7095,-0.7088,0.0,0.0,0.0,0.0,0.0,0.0,-0.7095,-0.7095,0.0,0.0,0.0,0.0,-0.7499,0.0,-0.7797,-0.8062,0.0,0.0,0.0,0.0,-0.8496,-0.8499,-0.8506,-0.8506,-0.8618,-0.8659,-0.8506,-0.8364,-0.8218,-0.8012,-0.7988,-0.7988,-0.7988,-0.7988,-0.7988,-0.7988,-0.7988,-0.7988,-0.7988,-0.7988,-0.7928,-0.7831,-0.7814,-0.775,-0.7614,-0.7611,-0.7611,-0.7611,-0.775,-0.7824,-0.7824,-0.7921,-0.7988,-0.7988,-0.7988,-0.7988,-0.7988,-0.7988,-0.7988,-0.7988,-0.7988,-0.7995,-0.8002,-0.8002,-0.8228,-0.8482,-0.8489,-0.8676,-0.8871,0.0,0.0,0.0,0.0,0.0,0.0,0.0,0.0,0.0,0.0,0.0,0.0,0.0,-1.2037,-1.2191,-1.2291,-1.2305,-1.2305,-1.2305,-1.2305,-1.2438,-1.2808,-1.2891,-1.2811,-1.2529,-1.1492,-1.0682,-1.0139,-0.8532,-0.7897,-0.8127,-0.7706,-0.759,-0.7834,-0.7726,-0.7668,-0.7631,-0.724,-0.7129,-0.7214,-0.7061,-0.6997,-0.695,-0.6895,-0.6876,0.0,0.0,0.0,0.0,0.0,0.0,0.0,-0.7095,-0.7034,-0.6943,-0.6888,-0.695,-0.7109,0.0,0.0,0.0,-0.7726,-0.7896,-0.8028,-0.8275,-0.8381,-0.8455,-0.8367,-0.8418,-0.8455,-0.8364,-0.8391,-0.8411,-0.8353,-0.8221,-0.8102,-0.7995,-0.7988,-0.7988,-0.7988,-0.7988,-0.7988,-0.7988,-0.7988,-0.7988,-0.7988,-0.7988,-0.7965,-0.7911,-0.7865,-0.7787,-0.7736,-0.7736,-0.7784,-0.7833,-0.7884,-0.7907,-0.7911,-0.7965,-0.7988,-0.7988,-0.7988,-0.7988,-0.7988,-0.7988,-0.7988,-0.7988,-0.7988,-0.7988,-0.7988,-0.7988,-0.8167,-0.8357,-0.8448,-0.8615,-0.8808,0.0,0.0,0.0,0.0,0.0,0.0,0.0,0.0,-1.4772,-1.3871,0.0,0.0,0.0,0.0,-1.2305,-1.2305,-1.2305,-1.2305,-1.2305,-1.2398,-1.2576,-1.2777,-1.2978,-1.2697,-1.194,-1.082,-0.98,-0.889,-0.7658,-0.7173,-0.7415,-0.7415,-0.7455,-0.7594,-0.7492,-0.7556,-0.7723,-0.7425,-0.7294,-0.7247,-0.7238,-0.7193,-0.7136,0.0,0.0,0.0,0.0,0.0,0.0,0.0,0.0,0.0,0.0,-0.6927,-0.6831,-0.6729,-0.6875,0.0,-0.6964,0.0,0.0,0.0,0.0,-0.7729,-0.7987,0.0,-0.8174,-0.8126,-0.8191,-0.8245,-0.8201,-0.8194,-0.8211,-0.8313,-0.814,-0.7988,-0.7988,-0.7988,-0.7988,-0.7988,-0.7988,-0.7988,-0.7988,-0.7988,-0.7988,-0.7988,-0.7988,0.0,-0.7917,-0.7821,-0.7716,-0.7665,-0.7665,-0.7712,-0.7814,-0.7865,-0.7843,-0.7843,-0.7941,-0.7988,-0.7988,-0.7988,-0.7988,-0.7988,-0.7988,-0.7988,-0.7988,-0.7988,-0.7988,-0.7988,-0.7988,-0.8133,-0.834,-0.8428,-0.8577,-0.873,0.0,0.0,0.0,0.0,0.0,0.0,0.0,0.0,-1.5163,-1.3344,0.0,0.0,0.0,0.0,0.0,-1.2305,-1.2311,-1.2318,-1.2318,-1.2623,-1.279,-1.2811,-1.3293,-1.3013,-1.1875,-1.0867,-0.9842,-0.8846,-0.7559,-0.7082,-0.7409,-0.7409,-0.7444,-0.7573,-0.7227,-0.726,-0.759,-0.7723,-0.7709,-0.7587,0.0,-0.7451,-0.7577,0.0,0.0,0.0,-0.7414,-0.7409,0.0,-0.7146,0.0,0.0,0.0,-0.6831,-0.6705,-0.6698,-0.6807,0.0,0.0,0.0,0.0,0.0,0.0,0.0,-0.7556,0.0,-0.7634,-0.7777,-0.7807,-0.7858,-0.7958,-0.7985,-0.8039,-0.8238,-0.8136,-0.7988,-0.7988,-0.7988,-0.7988,-0.7988,-0.7988,-0.7988,-0.7988,-0.7988,-0.7988,-0.7988,-0.7988,-0.7924,-0.7824,-0.7689,-0.7546,-0.7443,-0.7436,-0.7436,-0.7436,-0.7539,-0.7611,-0.7614,-0.7853,-0.7988,-0.7988,-0.7988,-0.7988,-0.7988,-0.7988,-0.7988,-0.7988,-0.7988,-0.7988,-0.7988,-0.7988,-0.8133,-0.8337,-0.8425,-0.8574,-0.873,0.0,0.0,0.0,0.0,0.0,-1.5821,-1.6186,-1.4889,-1.3789,0.0,0.0,0.0,-1.2342,-1.2529,-1.2569,-1.2318,-1.2536,-1.2663,-1.2663,-1.2737,-1.2978,-1.338,-1.2713,-1.1909,-1.0985,-0.9881,-0.8744,-0.7577,-0.723,-0.7082,-0.7204,-0.7204,-0.7183,-0.722,-0.7136,-0.7085,-0.7109,-0.7037,0.0,-0.7567,-0.72,-0.7204,0.0,0.0,0.0,0.0,0.0,-0.719,-0.735,0.0,-0.7216,-0.7377,0.0,0.0,-0.682,-0.66,-0.6722,0.0,-0.6742,0.0,0.0,0.0,0.0,0.0,0.0,0.0,0.0,-0.7628,-0.774,-0.7824,-0.7868,-0.7914,-0.8005,-0.8096,-0.8019,-0.7988,-0.7988,-0.7988,-0.7988,-0.7988,-0.7988,-0.7988,-0.7988,-0.7988,-0.7988,0.0,-0.7988,-0.7971,-0.7928,-0.7891,-0.785,-0.7855,-0.7855,-0.7855,-0.7855,-0.7847,-0.787,-0.787,-0.7951,-0.7988,-0.7988,-0.7988,-0.7988,-0.7988,-0.7988,-0.7988,-0.7988,-0.7988,-0.7988,-0.7988,-0.7988,-0.8133,-0.8327,-0.8368,-0.8489,-0.8716,0.0,0.0,0.0,-1.7298,-1.6626,-1.6029,-1.6035,-1.4617,-1.344,0.0,0.0,0.0,-1.2305,-1.2685,-1.2857,-1.2549,-1.2683,-1.2784,-1.2784,-1.2904,-1.289,-1.2734,-1.2289,-1.1367,-0.9923,-0.9195,-0.8249,-0.7095,-0.7038,-0.7007,-0.7011,-0.7068,-0.7031,-0.6913,-0.6913,-0.6903,-0.6869,-0.6634,0.0,0.0,-0.7193,0.0,0.0,-0.7204,-0.7241,0.0,0.0,0.0,-0.7533,-0.7383,-0.7411,0.0,0.0,0.0,0.0,0.0,0.0,0.0,0.0,0.0,0.0,0.0,0.0,0.0,-0.7241,-0.7231,-0.721,0.0,-0.7387,-0.7461,-0.7519,-0.7658,-0.778,-0.7845,-0.7857,-0.7917,-0.7982,-0.7988,-0.7988,-0.7988,-0.7988,-0.7988,-0.7988,-0.7988,-0.7988,-0.7988,-0.7988,-0.7961,-0.7897,-0.7955,-0.7961,-0.7897,-0.7894,-0.7894,-0.7894,-0.7894,-0.7894,-0.7894,-0.7961,-0.7988,-0.7988,-0.7988,-0.7988,-0.7988,-0.7988,-0.7988,-0.7988,-0.7988,-0.7988,-0.7988,-0.7988,-0.8096,-0.818,-0.8248,-0.8418,-0.8625,0.0,0.0,-1.6889,-1.73,-1.7079,-1.6452,-1.5292,-1.451,-1.3663,0.0,-1.2405,-1.2405,-1.2405,-1.2886,-1.31,-1.2857,-1.2804,-1.2797,-1.2837,-1.2935,-1.2565,-1.1605,-1.1777,-1.095,-0.8934,-0.8639,-0.8037,-0.7095,-0.697,-0.691,-0.6913,-0.7021,-0.6923,-0.6702,-0.6681,-0.6742,-0.6831,0.0,0.0,-0.7034,-0.7234,-0.7417,0.0,0.0,-0.7519,-0.7746,-0.7638,-0.7692,-0.779,-0.7665,-0.7509,0.0,0.0,0.0,0.0,0.0,-0.6619,0.0,0.0,0.0,0.0,0.0,0.0,0.0,-0.6806,-0.6757,-0.6728,0.0,-0.69,-0.6967,-0.7078,-0.7292,-0.7458,-0.758,-0.7733,-0.7882,-0.7971,-0.7988,-0.7988,-0.7988,-0.7988,-0.7988,-0.7988,-0.7988,-0.7988,-0.7988,-0.7988,-0.7931,-0.7845,-0.7917,-0.7928,-0.7841,-0.7834,-0.7834,-0.7834,-0.7834,-0.7834,-0.7838,-0.7924,-0.7988,-0.7988,-0.7988,-0.7988,-0.7988,-0.7988,-0.7988,-0.7988,-0.7988,-0.7988,-0.7988,-0.7988,-0.7988,-0.8005,-0.8194,-0.8347,-0.8503,0.0,-1.7197,-1.7225,-1.7084,-1.6416,-1.5626,-1.4835,-1.3765,-1.3042,-1.3045,-1.3033,-1.3033,-1.3033,-1.314,-1.3186,-1.3126,-1.2924,-1.2891,-1.3106,-1.2316,-1.1819,-1.1823,-1.0384,-0.9366,-0.889,-0.7939,-0.7328,-0.7095,-0.7068,-0.7055,-0.7055,-0.6967,-0.6875,-0.6695,-0.6573,-0.6511,-0.645,0.0,0.0,-0.6617,-0.677,0.0,-0.757,-0.7292,-0.7299,-0.7468,-0.7563,-0.7692,-0.7807,-0.778,-0.7594,-0.7395,0.0,0.0,0.0,0.0,0.0,0.0,0.0,0.0,0.0,0.0,0.0,0.0,-0.5127,-0.5386,-0.5711,0.0,-0.7031,-0.7255,-0.7112,-0.7461,-0.7699,-0.7614,-0.7821,-0.7958,-0.7985,-0.7988,-0.7988,-0.7988,-0.7988,-0.7988,-0.7988,-0.7988,-0.7988,-0.7988,-0.7988,-0.7978,-0.7948,-0.7975,-0.7975,-0.7944,-0.7944,-0.7944,-0.7944,-0.7944,-0.7944,-0.7944,-0.7975,-0.7988,-0.7988,-0.7988,-0.7988,-0.7988,-0.7988,-0.7988,-0.7988,-0.7988,-0.7988,-0.7988,-0.7988,-0.7988,-0.7992,-0.8022,-0.8255,-0.8486,-1.6581,-1.6642,-1.6582,-1.6345,-1.5625,-1.498,-1.4656,-1.381,-1.3247,-1.3367,-1.364,-1.3713,-1.342,-1.3687,-1.3748,-1.3413,-1.3287,-1.32,-1.3213,-1.2187,-1.1341,-1.0849,-0.9531,-0.8533,-0.8013,-0.7401,-0.7095,-0.7095,-0.7095,-0.7021,-0.6919,-0.6883,-0.677,-0.6481,-0.6515,-0.6515,-0.6488,0.0,-0.6831,-0.7034,-0.7034,0.0,-0.7255,-0.7129,-0.7238,-0.7429,-0.7458,-0.7628,-0.7777,-0.7553,-0.7104,0.0,0.0,-0.5434,-0.453,0.0,-0.4014,-0.3569,0.0,0.0,0.0,-0.3537,0.0,0.0,0.0,-0.4189,-0.4324,-0.4787,-0.5107,-0.5405,-0.5838,0.0,-0.6641,-0.7265,-0.7449,-0.7621,-0.7843,-0.7877,-0.7877,-0.7877,-0.7865,-0.7848,-0.7919,-0.7877,-0.7907,-0.7985,-0.7988,-0.7988,-0.7988,-0.7988,-0.7988,-0.7988,-0.7988,-0.7988,-0.7988,-0.7988,-0.7988,-0.7988,-0.7988,-0.7988,-0.7988,-0.7988,-0.7988,-0.7988,-0.7988,-0.7988,-0.7988,-0.7988,-0.7587,-0.7083,-0.7739,-0.8039,-0.8052,-0.7285,-0.7191,-0.741,-1.5777,-1.5776,-1.5687,-1.5365,-1.4865,-1.4464,-1.4336,-1.3819,-1.3467,-1.3586,-1.4113,-1.4362,-1.39,-1.4269,-1.4332,-1.3973,-1.3508,-1.3284,-1.3427,-1.1952,-1.0646,-0.9786,-0.8871,-0.799,-0.7095,-0.7082,-0.7095,-0.7095,-0.7068,-0.6937,-0.6746,-0.681,-0.6664,-0.6388,-0.6446,-0.6549,-0.6736,0.0,0.0,-0.7424,0.0,-0.7261,-0.7061,-0.7119,-0.7261,-0.7415,-0.7415,-0.7543,-0.7712,-0.7304,-0.6795,-0.6209,-0.5566,-0.4709,0.0,0.0,0.0,0.0,0.0,0.0,0.0,0.0,0.0,-0.2929,0.0,0.0,0.0,-0.3106,-0.3156,0.0,0.0,0.0,0.0,0.0,0.0,0.0,0.0,-0.7692,0.0,-0.7804,-0.7634,-0.759,-0.779,-0.7811,-0.7875,-0.7978,-0.7988,-0.7988,-0.7988,-0.7988,-0.7988,-0.7988,-0.7988,-0.7988,-0.7988,-0.7988,-0.7988,-0.7988,-0.7988,-0.7988,-0.7988,-0.7988,-0.7988,-0.7988,-0.7739,-0.7637,-0.7587,-0.7332,-0.6578,-0.5727,-0.7083,-0.7573,-0.7334,-0.6092,-0.581,-0.5877,-1.519,-1.5273,-1.5086,-1.4469,-1.4306,-1.4061,-1.3435,-1.3077,-1.3079,-1.3533,-1.4113,-1.4596,-1.4834,-1.4636,-1.4703,-1.5157,-1.3189,-1.2615,-1.4236,0.0,-0.8973,-0.9857,-0.8192,-0.7149,-0.6913,-0.7034,-0.7095,-0.7095,-0.697,-0.6893,-0.6856,-0.6644,-0.6569,-0.6641,-0.6433,-0.6515,-0.6859,0.0,-0.6848,0.0,-0.7217,-0.7509,0.0,-0.7438,-0.7402,-0.7415,-0.7415,-0.7482,-0.7614,0.0,-0.7496,-0.7369,0.0,-0.5603,-0.3784,0.0,0.0,0.0,0.0,0.0,0.0,0.0,-0.0416,0.0,0.0,0.0,-0.2166,-0.2936,0.0,0.0,0.0,0.0,0.0,0.0,0.0,0.0,-0.69,-0.7255,-0.7519,-0.778,-0.7398,-0.7311,-0.777,-0.7811,-0.7875,-0.7978,-0.7988,-0.7988,-0.7988,-0.7988,-0.7988,-0.7988,-0.7988,-0.7988,-0.7988,-0.7988,-0.7988,-0.7988,-0.7988,-0.7988,-0.7988,-0.7988,-0.7988,-0.7939,-0.6734,-0.6232,-0.6129,-0.492,-0.4366,-0.4368,-0.5727,-0.5537,-0.449,-0.4284,-0.433,-0.441,-1.4176,-1.447,-1.4362,-1.3547,-1.3502,-1.3521,-1.3226,-1.3534,-1.3928,-1.4355,-1.4917,-1.5331,0.0,0.0,0.0,0.0,0.0,-1.2719,0.0,0.0,-0.8811,-0.932,-0.7835,-0.7013,-0.7004,-0.6987,-0.6974,-0.6974,-0.6868,-0.6797,-0.6793,-0.6664,-0.6593,-0.6563,-0.6477,0.0,-0.6803,0.0,-0.6896,0.0,0.0,0.0,0.0,-0.7353,-0.7238,-0.7248,-0.7339,-0.7414,-0.7455,0.0,-0.6934,0.0,0.0,0.0,0.0,0.0,0.0,0.0,0.0,0.0,0.0,0.0,0.0,0.0,-0.0587,0.0,-0.086,0.0,0.0,0.0,0.0,0.0,0.0,0.0,-0.4257,0.0,0.0,0.0,-0.5562,0.0,0.0,0.0,-0.7662,-0.7763,-0.7804,-0.7787,-0.7862,-0.7909,-0.7909,-0.7909,-0.7897,-0.7985,-0.7988,-0.7988,-0.7988,-0.7988,-0.7988,-0.7988,-0.7235,-0.6833,-0.6833,-0.6024,-0.567,-0.5672,-0.507,-0.482,-0.482,-0.4218,-0.3566,-0.2914,-0.3468,-0.3837,-0.3992,-0.3133,-0.2924,-0.293,-1.3315,0.0,-1.3477,-1.277,-1.2812,-1.3019,-1.3186,-1.3888,-1.4536,-1.4961,-1.5398,0.0,-1.5932,-1.5832,0.0,0.0,-1.4066,-1.2928,0.0,0.0,-0.8625,0.0,0.0,0.0,0.0,-0.7051,-0.7031,-0.6943,-0.6797,-0.6742,-0.6817,-0.6695,-0.6644,-0.6654,-0.6614,-0.6705,-0.6888,0.0,-0.7004,-0.7112,-0.7343,-0.739,-0.7336,-0.7149,-0.7071,-0.7051,-0.721,-0.7275,-0.7295,-0.7227,-0.6703,0.0,-0.443,0.0,0.0,0.0,0.0,0.0,0.0,0.0,0.0,0.0,0.0,0.0,0.0,0.0,0.0,0.0,0.0,0.0,0.0,0.0,0.0,0.0,0.0,-0.3061,0.0,0.0,0.0,0.0,0.0,0.0,0.0,-0.7729,-0.777,-0.7665,-0.7753,-0.7794,-0.7753,-0.779,-0.7862,-0.7924,-0.7968,-0.7988,-0.7988,-0.7988,-0.7839,-0.7437,-0.6481,-0.5827,-0.5425,-0.4468,-0.4016,-0.3966,-0.3615,-0.3465,-0.3416,-0.3065,-0.2314,-0.1462,-0.1477,-0.2129,-0.2925,-0.1834,-0.1539,-0.1454,-1.2748,-1.258,0.0,-1.2318,-1.2325,-1.2532,-1.312,-1.3721,-1.4309,0.0,0.0,0.0,0.0,0.0,0.0,0.0,0.0,-1.3073,-1.4648,0.0,-0.787,0.0,0.0,-0.7388,0.0,0.0,-0.7285,-0.7088,-0.6844,-0.6848,-0.7071,-0.6681,-0.6709,-0.7068,-0.693,-0.7075,-0.7385,-0.7197,-0.7092,-0.7085,-0.6957,-0.6861,-0.6759,0.0,-0.7011,-0.6893,-0.69,0.0,0.0,-0.7316,-0.737,0.0,0.0,0.0,0.0,0.0,0.0,0.0,0.0,0.0,0.0,0.0,0.0,0.0,0.0,0.0,0.0,0.0,0.0,0.0,0.0,0.0,0.0,-0.1229,0.0,0.0,0.0,0.0,0.0,0.0,0.0,0.0,0.0,-0.7729,-0.7811,0.0,-0.7811,-0.775,-0.7614,-0.7736,-0.7814,-0.7818,-0.7914,-0.7988,-0.7988,-0.7988,-0.7335,-0.6079,-0.6029,-0.5322,-0.4066,-0.4016,-0.4016,-0.3915,-0.2614,-0.2063,-0.1962,-0.0656,-0.0101,-0.0051,-0.0053,-0.0107,-0.0107,-0.0107,-0.0055,-0.0056,0.0,0.0,0.0,0.0,0.0,-1.2837,-1.3367,-1.4162,0.0,0.0,0.0,0.0,0.0,-1.7522,-1.7225,0.0,0.0,-1.2762,-1.2145,-0.951,0.0,0.0,0.0,-0.7513,0.0,0.0,0.0,-0.7292,-0.6997,-0.7004,-0.7285,-0.6936,-0.6959,-0.7285,-0.7092,-0.7082,0.0,0.0,0.0,0.0,0.0,-0.6865,-0.695,0.0,-0.6866,-0.6803,-0.6957,-0.693,0.0,-0.7027,-0.7078,-0.6708,-0.4697,-0.3882,-0.3286,-0.1202,-0.0313,0.0,0.0,0.0,0.0,0.0,0.0,0.0,0.0,0.0,0.0,0.0,0.0,0.0,0.0,0.0,-0.0095,-0.0371,-0.0555,0.0,0.0,0.0,0.0,0.0,0.0,0.0,0.0,0.0,0.0,0.0,-0.7267,0.0,-0.7253,-0.7533,-0.7712,-0.7807,-0.7911,-0.7587,-0.6681,-0.6681,-0.6027,-0.467,-0.3768,-0.3116,-0.2665,-0.1762,-0.136,-0.131,-0.0857,-0.0656,-0.0656,-0.0202,0.0,0.0,0.0,0.0,0.0,0.0,0.0,0.0,-1.3239,0.0,0.0,0.0,0.0,0.0,-1.384,0.0,0.0,0.0,-1.7246,0.0,-1.8163,0.0,-1.7663,0.0,-1.4514,-1.2825,-1.1052,-0.935,0.0,-0.8072,-0.7932,0.0,0.0,0.0,0.0,0.0,-0.7221,-0.7238,-0.7519,-0.7224,-0.7217,-0.7451,-0.74,-0.7216,-0.7038,0.0,-0.716,0.0,0.0,-0.6702,0.0,0.0,-0.6773,-0.6793,0.0,-0.6814,-0.6715,-0.6814,-0.6839,-0.6563,-0.4551,-0.3776,-0.3209,-0.1243,-0.0357,0.0,0.0,0.0,0.0,0.0,0.0,0.0,0.0,0.0,0.0,0.0,0.0,0.0,0.0,0.0,0.0,0.0,0.0,0.0,0.0,0.0,0.0,0.0,0.0,0.0,0.0,0.0,0.0,0.0,0.0,0.0,0.0,-0.6731,-0.6729,-0.6373,-0.6489,-0.6176,-0.5272,-0.5275,-0.462,-0.3265,-0.2414,-0.1762,-0.126,-0.0404,0.0,0.0,0.0,0.0,0.0,0.0,0.0,0.0,0.0,0.0,0.0,0.0,0.0,0.0,0.0,0.0,0.0,0.0,-1.3748,0.0,0.0,0.0,-1.68,0.0,-1.7956,-1.8517,-1.8419,-1.8678,-1.8135,-1.6425,-1.4868,0.0,-1.1312,-0.9663,0.0,0.0,-0.8092,-0.8098,-0.7709,0.0,0.0,0.0,0.0,-0.7536,-0.7804,-0.7502,-0.7444,-0.7604,-0.7733,0.0,-0.6923,-0.7404,-0.7251,-0.6709,-0.6549,-0.6453,-0.6358,-0.647,-0.6658,-0.6836,-0.6586,-0.6566,-0.6678,-0.6685,-0.6787,-0.6688,-0.5481,-0.4378,-0.3374,-0.2138,-0.0927,0.0,0.0,0.0,0.0,0.0,0.0,0.0,0.0,0.0,0.0,0.0,0.0,0.0,0.0,0.0,0.0,0.0,0.0,0.0,0.0,0.0,0.0,0.0,0.0,0.0,0.0,0.0,0.0,0.0,0.0,0.0,0.0,-0.547,-0.4978,-0.3845,-0.3939,-0.3966,-0.3915,-0.3915,-0.3215,-0.1913,-0.1913,-0.1209,0.0,0.0,0.0,0.0,0.0,0.0,0.0,0.0,0.0,0.0,0.0,0.0,0.0,0.0,0.0,0.0,-1.4075,-1.4358,-1.4559,0.0,-1.4456,-1.4509,0.0,0.0,0.0,0.0,-1.8257,-1.8425,-1.7514,-1.7596,-1.6594,-1.3575,-1.2845,0.0,0.0,0.0,0.0,-0.8397,-0.8348,-0.8206,-0.7943,-0.7945,0.0,-0.7911,0.0,-0.7651,-0.7801,-0.739,-0.7343,-0.7597,-0.7519,-0.7336,-0.7058,-0.7333,-0.7275,-0.696,-0.6746,-0.6753,-0.6881,0.0,-0.6593,-0.6749,-0.6671,-0.6525,-0.6429,-0.6535,-0.6556,-0.6402,-0.5293,-0.4244,-0.3236,-0.2123,-0.0938,0.0,0.0,0.0,0.0,0.0,0.0,0.0,0.0,0.0,0.0,0.0,0.0,0.0,0.0,0.0,0.0,0.0,0.0,0.0,0.0,0.0,0.0,0.0,0.0,0.0,0.0,0.0,0.0,0.0,0.0,0.0,0.0,0.0,-0.4127,-0.3798,-0.3939,-0.3516,-0.2514,-0.2514,-0.1862,-0.0504,-0.0504,-0.0353,0.0,0.0,0.0,0.0,0.0,0.0,0.0,0.0,0.0,0.0,0.0,0.0,0.0,0.0,0.0,0.0,-1.4442,0.0,0.0,-1.5223,0.0,0.0,-1.5558,0.0,0.0,-1.7682,-1.7931,0.0,-1.6855,-1.649,-1.5163,-1.2341,-1.198,0.0,-0.9315,0.0,0.0,-0.8581,-0.8455,-0.8292,-0.7991,-0.7911,0.0,-0.7939,0.0,-0.7563,-0.7695,-0.7438,-0.736,-0.74,-0.7451,-0.7278,-0.6953,-0.7041,-0.7102,-0.7068,-0.6817,-0.68,0.0,-0.6593,-0.6566,-0.6593,-0.6529,-0.6439,-0.6232,-0.5832,-0.5734,-0.5598,-0.4546,-0.3512,-0.2599,-0.1961,-0.0941,0.0,0.0,0.0,0.0,0.0,0.0,0.0,0.0,0.0,0.0,0.0,0.0,0.0,0.0,0.0,0.0,0.0,0.0,0.0,0.0,0.0,0.0,0.0,0.0,0.0,0.0,0.0,0.0,0.0,0.0,0.0,0.0,0.0,-0.266,-0.2138,-0.222,-0.1913,-0.1109,-0.1118,-0.0762,0.0,0.0,0.0,0.0,0.0,0.0,0.0,0.0,0.0,0.0,0.0,0.0,0.0,0.0,0.0,0.0,0.0,0.0,0.0,0.0,0.0,0.0,0.0,0.0,0.0,0.0,-1.6654,0.0,-1.7414,0.0,-1.6511,-1.5965,-1.5019,-1.3691,-1.1795,0.0,-1.0766,-0.9036,-0.9049,-0.8975,-0.8583,-0.8514,-0.8302,-0.8024,-0.7727,0.0,0.0,0.0,-0.7399,-0.7557,-0.7535,-0.7373,-0.7105,-0.74,0.0,0.0,-0.6729,-0.6878,-0.7048,-0.6854,-0.6746,-0.6715,-0.6583,-0.6549,-0.6497,-0.6395,-0.6344,-0.6168,-0.524,-0.4911,-0.4758,-0.3807,-0.2711,-0.1777,-0.1787,-0.0941,0.0,0.0,0.0,0.0,0.0,0.0,0.0,0.0,0.0,0.0,0.0,0.0,0.0,0.0,0.0,0.0,0.0,0.0,0.0,0.0,0.0,0.0,0.0,0.0,0.0,0.0,0.0,0.0,0.0,0.0,0.0,0.0,0.0,-0.1092,-0.0048,0.0,0.0,0.0,0.0,0.0,0.0,0.0,0.0,0.0,0.0,0.0,0.0,0.0,0.0,0.0,0.0,0.0,0.0,0.0,0.0,0.0,0.0,0.0,0.0,0.0,0.0,0.0,0.0,0.0,-1.4838,-1.5322,-1.5702,-1.5623,-1.4617,-1.4755,-1.4454,-1.2944,-1.2601,-1.1791,-1.0008,-0.9735,0.0,0.0,0.0,0.0,-0.884,-0.8492,-0.8215,-0.802,-0.7727,-0.768,0.0,0.0,-0.7171,-0.7179,-0.7071,-0.6987,-0.6956,-0.6987,0.0,-0.6846,-0.6846,0.0,-0.6927,-0.6994,-0.695,-0.6842,-0.6858,-0.6692,-0.6525,-0.6586,-0.6542,-0.6417,-0.6103,-0.5534,-0.4864,-0.4665,-0.3243,-0.1666,-0.1772,-0.0941,0.0,0.0,0.0,0.0,0.0,0.0,0.0,0.0,0.0,0.0,0.0,0.0,0.0,0.0,0.0,0.0,0.0,0.0,0.0,0.0,0.0,0.0,0.0,0.0,0.0,0.0,0.0,0.0,0.0,0.0,0.0,0.0,0.0,-0.0234,0.0,0.0,0.0,0.0,0.0,0.0,0.0,0.0,0.0,0.0,0.0,0.0,0.0,0.0,0.0,0.0,0.0,0.0,0.0,0.0,0.0,0.0,0.0,0.0,0.0,0.0,0.0,0.0,0.0,0.0,0.0,0.0,-1.3562,0.0,-1.371,-1.325,-1.2593,-1.1745,-1.1043,-1.0321,-0.9446,-0.9174,-0.9042,-0.9042,-0.8835,-0.8676,-0.8704,-0.846,0.0,-0.7978,-0.7583,-0.7434,-0.7717,0.0,-0.6933,-0.6979,-0.691,-0.6848,-0.6804,0.0,-0.6939,0.0,0.0,0.0,-0.7156,-0.7102,-0.7055,-0.6987,-0.6913,-0.6837,-0.6709,-0.6702,-0.6705,-0.6602,-0.5919,-0.4979,-0.3992,-0.344,-0.215,-0.0786,-0.0847,-0.0449,0.0,0.0,0.0,0.0,0.0,0.0,0.0,0.0,0.0,0.0,0.0,0.0,0.0,0.0,0.0,0.0,0.0,0.0,0.0,0.0,0.0,0.0,0.0,0.0,0.0,0.0,0.0,0.0,0.0,0.0,0.0,0.0,0.0,0.0,0.0,0.0,0.0,0.0,0.0,0.0,0.0,0.0,0.0,0.0,0.0,0.0,0.0,0.0,0.0,0.0,0.0,0.0,0.0,0.0,0.0,0.0,0.0,0.0,0.0,0.0,-1.5528,0.0,0.0,-1.4362,0.0,-1.1617,-1.1508,-1.1988,-1.2783,-1.1739,-1.0906,-1.0928,-0.9979,-0.932,-0.9289,-0.9072,-0.8868,-0.8838,-0.8747,-0.8594,-0.8497,-0.835,-0.8163,-0.7992,-0.7444,-0.7272,0.0,0.0,0.0,-0.6817,-0.6902,-0.6877,-0.6696,0.0,0.0,0.0,0.0,-0.7092,-0.7268,-0.7132,-0.7095,-0.7085,-0.6974,-0.6913,-0.6873,-0.6827,-0.6851,-0.6741,-0.554,-0.4365,-0.3205,-0.2382,-0.1142,0.0,0.0,0.0,0.0,0.0,0.0,0.0,0.0,0.0,0.0,0.0,0.0,0.0,0.0,0.0,0.0,0.0,0.0,0.0,0.0,0.0,0.0,0.0,0.0,0.0,0.0,0.0,0.0,0.0,0.0,0.0,0.0,0.0,0.0,-0.0045,0.0,0.0,0.0,0.0,0.0,0.0,0.0,0.0,0.0,0.0,0.0,0.0,0.0,0.0,0.0,0.0,0.0,0.0,0.0,0.0,0.0,0.0,0.0,0.0,0.0,0.0,0.0,0.0,0.0,0.0,0.0,0.0,0.0,-1.1315,-1.0569,-1.0048,-1.0141,-0.9902,-0.9711,-0.9569,-0.937,-0.9123,-0.8935,-0.8898,-0.8824,-0.874,-0.8587,-0.8494,-0.8508,-0.8194,-0.8005,-0.7988,-0.7576,-0.7388,0.0,0.0,-0.6871,0.0,-0.6929,-0.6958,0.0,0.0,0.0,0.0,-0.6974,-0.7018,-0.6937,-0.7051,-0.7095,-0.7095,-0.7082,-0.6997,-0.69,-0.7014,-0.698,-0.6731,-0.5739,-0.4566,-0.3509,-0.3248,-0.1695,0.0,0.0,0.0,0.0,0.0,0.0,0.0,0.0,0.0,0.0,0.0,0.0,0.0,0.0,0.0,0.0,0.0,0.0,0.0,0.0,0.0,0.0,0.0,0.0,0.0,0.0,0.0,0.0,0.0,0.0,0.0,0.0,-0.0094,0.0,0.0,0.0,0.0,0.0,0.0,0.0,0.0,0.0,0.0,0.0,0.0,0.0,0.0,0.0,0.0,0.0,0.0,0.0,0.0,0.0,0.0,0.0,0.0,0.0,0.0,0.0,0.0,0.0,0.0,0.0,0.0,0.0,0.0,0.0,0.0,-0.9891,-0.9557,-0.9557,-0.9588,-0.9588,-0.9523,-0.93,-0.9096,-0.8895,-0.8801,-0.8737,-0.8584,-0.8435,-0.8436,-0.8484,-0.8176,-0.7988,-0.7988,-0.7687,-0.7494,0.0,0.0,0.0,0.0,0.0,0.0,0.0,0.0,-0.6909,-0.692,-0.6963,-0.6997,-0.7018,-0.7071,-0.7095,-0.7095,-0.7095,-0.7061,-0.7018,-0.7075,-0.7058,-0.6843,-0.5744,-0.4617,-0.3439,-0.2648,-0.1283,0.0,0.0,0.0,0.0,0.0,0.0,0.0,0.0,0.0,0.0,0.0,0.0,0.0,0.0,0.0,0.0,0.0,0.0,0.0,0.0,0.0,0.0,0.0,0.0,0.0,0.0,0.0,0.0,0.0,0.0,0.0,0.0,0.0,0.0,0.0,0.0,0.0,0.0,0.0,0.0,0.0,0.0,0.0,0.0,0.0,0.0,0.0,0.0,0.0,0.0,0.0,0.0,0.0,0.0,0.0,0.0,0.0,0.0,0.0,0.0,0.0,0.0,-1.2415,0.0,-1.2095,0.0,-1.0847,-1.0383,-0.9686,-0.9517,-0.9449,-0.9449,-0.9503,-0.9523,-0.9479,-0.9245,-0.9032,-0.8886,-0.8815,-0.8676,-0.8435,-0.8367,-0.8347,-0.8363,-0.8149,0.0,-0.7988,-0.779,-0.7562,-0.7392,-0.743,0.0,0.0,0.0,0.0,0.0,-0.6796,-0.6898,-0.705,-0.6996,-0.701,-0.7095,-0.7095,-0.7095,-0.7095,-0.7095,-0.7095,-0.7095,-0.7095,-0.6874,-0.6428,-0.5267,-0.4063,-0.2903,-0.2057,-0.0986,0.0,0.0,0.0,0.0,0.0,0.0,0.0,0.0,0.0,0.0,0.0,0.0,0.0,0.0,0.0,0.0,0.0,0.0,0.0,0.0,0.0,0.0,0.0,0.0,0.0,0.0,0.0,0.0,0.0,0.0,0.0,0.0,0.0,0.0,0.0,0.0,0.0,0.0,0.0,0.0,0.0,0.0,0.0,0.0,0.0,0.0,0.0,0.0,0.0,0.0,0.0,0.0,0.0,0.0,0.0,0.0,0.0,0.0,0.0,0.0,0.0,0.0,-1.1167,-1.113,-1.0928,-0.964,-0.9439,-0.949,-0.9585,-0.9608,-0.9605,-0.9605,-0.9476,-0.9327,-0.9231,-0.9028,-0.8824,-0.8726,-0.8849,-0.8747,-0.8354,-0.8404,-0.835,0.0,0.0,-0.7988,-0.7988,-0.7889,-0.7665,-0.7412,0.0,0.0,-0.6691,0.0,-0.6912,-0.6888,-0.705,-0.702,-0.6899,-0.7057,-0.7095,-0.7095,-0.7095,-0.7095,-0.7095,-0.7095,-0.7095,-0.7095,-0.7095,-0.6384,-0.5225,-0.4016,-0.2815,-0.1835,-0.179,-0.0986,0.0,0.0,0.0,0.0,0.0,0.0,0.0,0.0,0.0,0.0,0.0,0.0,0.0,0.0,0.0,0.0,0.0,0.0,0.0,0.0,0.0,0.0,0.0,0.0,0.0,0.0,0.0,0.0,0.0,0.0,0.0,0.0,0.0,0.0,0.0,0.0,0.0,0.0,0.0,0.0,0.0,0.0,0.0,0.0,0.0,0.0,0.0,0.0,0.0,0.0,0.0,0.0,0.0,0.0,0.0,0.0,0.0,0.0,0.0,0.0,0.0,0.0,-0.9846,-0.9964,-0.9996,-0.9586,-0.9537,-0.9554,-0.9602,-0.9432,-0.93,-0.93,-0.9171,-0.9062,-0.9011,-0.8964,-0.8821,0.0,-0.8659,-0.8526,0.0,-0.8214,-0.8089,-0.7992,-0.7988,-0.7988,-0.7988,-0.7941,-0.7824,-0.7529,0.0,0.0,0.0,-0.7017,-0.7,-0.6917,-0.6963,-0.6997,-0.705,-0.7099,-0.7095,-0.7095,-0.7095,-0.7095,-0.7095,-0.7095,-0.7095,-0.7095,-0.7095,-0.6384,-0.5223,-0.4016,-0.2796,-0.1642,-0.0811,-0.0314,0.0,0.0,0.0,0.0,0.0,0.0,0.0,0.0,0.0,0.0,0.0,0.0,0.0,0.0,0.0,0.0,0.0,0.0,0.0,0.0,0.0,0.0,0.0,0.0,0.0,0.0,0.0,0.0,0.0,0.0,0.0,0.0,0.0,0.0,0.0,0.0,0.0,0.0,0.0,0.0,0.0,0.0,0.0,0.0,0.0,0.0,0.0,0.0,0.0,0.0,0.0,0.0,0.0,0.0,0.0,0.0,0.0,0.0,0.0,0.0,0.0,0.0,-0.921,-0.9354,-0.9507,-0.9449,-0.9439,-0.9456,-0.9513,-0.9313,-0.9231,-0.9289,-0.911,-0.8998,-0.8888,-0.8885,0.0,-0.8723,-0.8621,-0.8482,-0.8333,-0.818,-0.8099,-0.7992,-0.7988,-0.7988,-0.7988,-0.7988,0.0,-0.7678,-0.7716,-0.7557,-0.7306,-0.7218,-0.7149,-0.7095,-0.7003,-0.7007,-0.7095,-0.7095,-0.7095,-0.7095,-0.7095,-0.7095,-0.7095,-0.7095,-0.6827,-0.6473,-0.6473,-0.5429,-0.3933,-0.3163,-0.211,-0.0981,-0.0233,0.0,0.0,0.0,0.0,0.0,0.0,0.0,0.0,0.0,0.0,0.0,0.0,0.0,0.0,0.0,0.0,0.0,0.0,0.0,0.0,0.0,0.0,0.0,0.0,0.0,0.0,0.0,0.0,0.0,0.0,0.0,0.0,0.0,0.0,0.0,0.0,0.0,0.0,0.0,0.0,0.0,0.0,0.0,0.0,0.0,0.0,0.0,0.0,0.0,0.0,0.0,0.0,0.0,0.0,0.0,0.0,0.0,0.0,0.0,0.0,0.0,0.0,0.0,-0.921,-0.9344,-0.9351,0.0,-0.9251,-0.9306,-0.9391,-0.933,-0.9275,-0.9361,-0.9296,-0.9086,-0.8898,-0.8885,-0.8821,-0.8723,0.0,0.0,-0.8354,-0.8327,-0.8201,-0.7995,-0.7988,-0.7988,-0.7988,-0.7988,-0.7914,-0.7811,-0.7678,-0.7607,-0.7597,-0.7455,-0.7399,-0.7384,-0.7194,-0.7102,-0.7115,-0.7102,-0.7109,-0.7125,-0.7013,-0.7058,-0.7115,-0.6935,-0.6269,-0.5382,-0.5292,-0.3772,-0.1804,-0.1804,-0.0986,0.0,0.0,0.0,0.0,0.0,0.0,0.0,0.0,0.0,0.0,0.0,0.0,0.0,0.0,0.0,0.0,0.0,0.0,0.0,0.0,0.0,0.0,0.0,0.0,0.0,0.0,0.0,0.0,0.0,0.0,0.0,0.0,0.0,0.0,0.0,0.0,0.0,0.0,0.0,0.0,0.0,0.0,0.0,0.0,0.0,0.0,0.0,0.0,0.0,0.0,0.0,0.0,0.0,0.0,0.0,0.0,0.0,0.0,0.0,0.0,0.0,0.0,0.0,0.0,0.0,0.0,0.0,-0.9544,-0.9507,-0.9591,-0.9676,-0.971,-0.9496,-0.934,-0.9374,-0.9154,-0.8977,-0.8888,-0.8885,-0.8821,-0.8723,-0.871,-0.8632,-0.8445,-0.8381,-0.8201,-0.7995,-0.7988,-0.7988,-0.7988,-0.7988,-0.7914,-0.7811,-0.7777,-0.7706,-0.76,-0.7563,-0.7511,-0.7403,-0.7334,-0.7317,-0.7314,-0.7344,-0.7372,-0.7376,-0.6361,-0.6588,-0.7279,-0.5199,-0.491,-0.5423,-0.4396,-0.3054,-0.1795,-0.1795,-0.1006,0.0,0.0,0.0,0.0,0.0,0.0,0.0,0.0,0.0,0.0,0.0,0.0,0.0,0.0,0.0,0.0,0.0,0.0,0.0,0.0,0.0,0.0,0.0,0.0,0.0,0.0,0.0,0.0,0.0,0.0,0.0,0.0,0.0,0.0,0.0,0.0,0.0,0.0,0.0,0.0,0.0,0.0,0.0,0.0,0.0,0.0,0.0,0.0,0.0,0.0,0.0,0.0,0.0,0.0,0.0,0.0,0.0,0.0,0.0,0.0,0.0,0.0,0.0,0.0,0.0,-0.9313,-0.95,-0.9686,-0.9618,-0.9673,-0.9724,-0.9724,-0.9469,-0.9361,-0.9371,-0.9123,-0.8885,-0.8885,-0.8885,-0.8821,-0.8723,-0.8648,-0.8543,-0.8394,-0.8248,-0.8126,-0.7992,-0.7988,-0.7988,-0.7988,-0.7988,-0.7948,-0.7916,-0.7916,-0.7875,-0.7797,-0.7729,-0.7651,-0.7567,-0.6857,-0.66,-0.6516,-0.5931,-0.5704,-0.5709,-0.4981,-0.5104,-0.56,-0.4136,-0.3706,-0.3777,-0.3045,-0.2008,-0.0965,-0.0965,-0.0538,0.0,0.0,0.0,0.0,0.0,0.0,0.0,0.0,0.0,0.0,0.0,0.0,0.0,0.0,0.0,0.0,0.0,0.0,0.0,0.0,0.0,0.0,0.0,0.0,0.0,0.0,0.0,0.0,0.0,0.0,0.0,0.0,0.0,0.0,0.0,0.0,0.0,0.0,0.0,0.0,0.0,0.0,0.0,0.0,0.0,0.0,0.0,0.0,0.0,0.0,0.0,0.0,0.0,0.0,0.0,0.0,0.0,0.0,0.0,0.0,0.0,0.0,0.0,0.0,0.0,-0.9415,-0.9635,-0.9781,-0.9663,-0.9642,-0.9635,-0.9612,-0.9367,-0.9282,-0.9334,-0.911,-0.8885,-0.8885,-0.8885,-0.8821,-0.8723,-0.8591,-0.8455,-0.8364,-0.818,-0.8046,-0.8022,-0.8002,-0.7988,-0.7988,-0.7988,-0.7988,-0.7988,-0.7988,-0.7988,-0.7985,-0.7906,-0.7834,-0.7756,-0.6283,-0.5635,-0.5548,-0.4214,-0.3619,-0.3634,-0.3441,-0.3479,-0.3633,-0.3189,-0.2529,-0.1801,-0.159,-0.0874,0.0,0.0,0.0,0.0,0.0,0.0,0.0,0.0,0.0,0.0,0.0,0.0,0.0,0.0,0.0,0.0,0.0,0.0,0.0,0.0,0.0,0.0,0.0,0.0,0.0,0.0,0.0,0.0,0.0,0.0,0.0,0.0,0.0,0.0,0.0,0.0,0.0,0.0,0.0,0.0,0.0,0.0,0.0,0.0,0.0,0.0,0.0,0.0,0.0,0.0,0.0,0.0,0.0,0.0,0.0,0.0,0.0,0.0,0.0,0.0,0.0,0.0,0.0,0.0,0.0,0.0,0.0,0.0,-0.9574,-0.9707,-0.9815,-0.9791,-0.9788,-0.9747,-0.9629,-0.9459,-0.9306,-0.9258,-0.9042,-0.8885,-0.8885,-0.8885,-0.8821,-0.8723,-0.8689,-0.8611,-0.8459,-0.8428,-0.8305,-0.8028,-0.8006,-0.7988,-0.7988,-0.7988,-0.7988,-0.7988,-0.7988,-0.7988,-0.7988,-0.7965,-0.7887,-0.7762,-0.6375,-0.5777,-0.5673,-0.4316,-0.3832,-0.386,-0.2704,-0.2916,-0.3693,-0.1407,-0.1152,-0.1801,-0.0701,-0.015,0.0,0.0,0.0,0.0,0.0,0.0,0.0,0.0,0.0,0.0,0.0,0.0,0.0,0.0,0.0,0.0,0.0,0.0,0.0,0.0,0.0,0.0,0.0,0.0,0.0,0.0,0.0,0.0,0.0,0.0,0.0,0.0,0.0,0.0,0.0,0.0,0.0,0.0,0.0,0.0,0.0,0.0,0.0,0.0,0.0,0.0,0.0,0.0,0.0,0.0,0.0,0.0,0.0,0.0,0.0,0.0,0.0,0.0,0.0,0.0,0.0,0.0,0.0,0.0,0.0,0.0,0.0,0.0,-0.9486,-0.9669,-0.9822,-0.9822,-0.9822,-0.9798,-0.9734,-0.953,-0.9357,-0.9344,-0.9079,-0.8885,-0.8885,-0.8885,-0.8821,-0.8723,-0.8784,-0.8733,-0.8499,-0.8411,-0.8285,-0.8009,-0.8019,-0.7988,-0.7988,-0.7988,-0.7988,-0.7988,-0.7988,-0.7988,-0.7988,-0.7285,-0.6901,-0.6744,-0.466,-0.3768,-0.3669,-0.233,-0.1795,-0.1813,-0.1161,-0.1313,-0.1718,-0.0455,-0.0404,-0.0857,-0.0202,0.0,0.0,0.0,0.0,0.0,0.0,0.0,0.0,0.0,0.0,0.0,0.0,0.0,0.0,0.0,0.0,0.0,0.0,0.0,0.0,0.0,0.0,0.0,0.0,0.0,0.0,0.0,0.0,0.0,0.0,0.0,0.0,0.0,0.0,0.0,0.0,0.0,0.0,0.0,0.0,0.0,0.0,0.0,0.0,0.0,0.0,0.0,0.0,0.0,0.0,0.0,0.0,0.0,0.0,0.0,0.0,0.0,0.0,0.0,0.0,0.0,0.0,0.0,0.0,0.0,0.0,0.0,0.0,0.0,-0.9425,-0.9615,-0.9781,-0.9815,-0.9822,-0.9798,-0.973,-0.9527,-0.9357,-0.9286,-0.9079,-0.8885,-0.8885,-0.8885,-0.8838,-0.8774,-0.8814,-0.8825,-0.8554,-0.8397,-0.8251,-0.8115,-0.8019,-0.7988,-0.7988,-0.7988,-0.7839,-0.7537,-0.7537,-0.7385,-0.703,-0.6027,-0.5525,-0.5425,-0.3066,-0.2013,-0.1913,-0.0555,0.0,0.0,0.0,0.0,0.0,0.0,0.0,0.0,0.0,0.0,0.0,0.0,0.0,0.0,0.0,0.0,0.0,0.0,0.0,0.0,0.0,0.0,0.0,0.0,0.0,0.0,0.0,0.0,0.0,0.0,0.0,0.0,0.0,0.0,0.0,0.0,0.0,0.0,0.0,0.0,0.0,0.0,0.0,0.0,0.0,0.0,0.0,0.0,0.0,0.0,0.0,0.0,0.0,0.0,0.0,0.0,0.0,0.0,0.0,0.0,0.0,0.0,0.0,0.0,0.0,0.0,0.0,0.0,0.0,0.0,0.0,0.0,0.0,0.0,0.0,0.0,0.0,0.0,-0.9564,-0.9608,-0.9666,-0.9798,-0.9822,-0.973,-0.9456,-0.9395,-0.9283,-0.8952,-0.8898,-0.8885,-0.8885,-0.8885,-0.8878,-0.8868,-0.8875,-0.8814,-0.8706,-0.855,-0.8463,-0.8487,-0.8176,-0.7988,-0.7988,-0.7988,-0.7385,-0.6129,-0.6129,-0.5525,-0.4316,-0.4216,-0.4166,-0.4066,-0.2665,-0.2013,-0.1913,-0.0555,0.0,0.0,0.0,0.0,0.0,0.0,0.0,0.0,0.0,0.0,0.0,0.0,0.0,0.0,0.0,0.0,0.0,0.0,0.0,0.0,0.0,0.0,0.0,0.0,0.0,0.0,0.0,0.0,0.0,0.0,0.0,0.0,0.0,0.0,0.0,0.0,0.0,0.0,0.0,0.0,0.0,0.0,0.0,0.0,0.0,0.0,0.0,0.0,0.0,0.0,0.0,0.0,0.0,0.0,0.0,0.0,0.0,0.0,0.0,0.0,0.0,0.0,0.0,0.0,0.0,0.0,0.0,0.0,0.0,0.0,0.0,0.0,0.0,0.0,0.0,0.0,0.0,0.0,-0.9439,-0.9544,-0.9629,-0.968,-0.969,-0.9622,-0.9412,-0.93,-0.9258,-0.9086,-0.8994,-0.8885,-0.8885,-0.8885,-0.8885,-0.8885,-0.8885,-0.8817,-0.872,-0.8567,-0.8429,-0.819,-0.8072,-0.7988,-0.7988,-0.7185,-0.6531,-0.5979,-0.5172,-0.4518,-0.3966,-0.3165,-0.2764,-0.2715,-0.136,-0.0756,-0.0706,-0.0202,0.0,0.0,0.0,0.0,0.0,0.0,0.0,0.0,0.0,0.0,0.0,0.0,0.0,0.0,0.0,0.0,0.0,0.0,0.0,0.0,0.0,0.0,0.0,0.0,0.0,0.0,0.0,0.0,0.0,0.0,0.0,0.0,0.0,0.0,0.0,0.0,0.0,0.0,0.0,0.0,0.0,0.0,0.0,0.0,0.0,0.0,0.0,0.0,0.0,0.0,0.0,0.0,0.0,0.0,0.0,0.0,0.0,0.0,0.0,0.0,0.0,0.0,0.0,0.0,0.0,0.0,0.0,0.0,0.0,0.0,0.0,0.0,0.0,0.0,0.0,0.0,0.0,0.0,-0.9344,-0.9466,-0.9568,-0.9659,-0.9639,-0.9557,-0.9405,-0.9309,-0.9193,-0.9093,-0.8998,-0.8885,-0.8885,-0.8885,-0.8885,-0.8885,-0.8885,-0.8817,-0.872,-0.847,-0.8251,-0.7998,-0.7179,-0.6927,-0.7385,-0.6077,-0.5172,-0.4722,-0.3817,-0.3165,-0.2715,-0.1812,-0.136,-0.131,-0.0404,0.0,0.0,0.0,0.0,0.0,0.0,0.0,0.0,0.0,0.0,0.0,0.0,0.0,0.0,0.0,0.0,0.0,0.0,0.0,0.0,0.0,0.0,0.0,0.0,0.0,0.0,0.0,0.0,0.0,0.0,0.0,0.0,0.0,0.0,0.0,0.0,0.0,0.0,0.0,0.0,0.0,0.0,0.0,0.0,0.0,0.0,0.0,0.0,0.0,0.0,0.0,0.0,0.0,0.0,0.0,0.0,0.0,0.0,0.0,0.0,0.0,0.0,0.0,0.0,0.0,0.0,0.0,0.0,0.0,0.0,0.0,0.0,0.0,0.0,0.0,0.0,0.0,0.0,0.0,0.0,0.0,-0.932,-0.9381,-0.9469,-0.9764,-0.97,-0.9554,-0.9401,-0.9306,-0.91,-0.8902,-0.8885,-0.8885,-0.8885,-0.8885,-0.8885,-0.8885,-0.8885,-0.8817,-0.872,-0.8275,-0.7994,-0.7998,-0.5413,-0.4612,-0.5979,-0.467,-0.3316,-0.2013,-0.2013,-0.131,0.0,0.0,0.0,0.0,0.0,0.0,0.0,0.0,0.0,0.0,0.0,0.0,0.0,0.0,0.0,0.0,0.0,0.0,0.0,0.0,0.0,0.0,0.0,0.0,0.0,0.0,0.0,0.0,0.0,0.0,0.0,0.0,0.0,0.0,0.0,0.0,0.0,0.0,0.0,0.0,0.0,0.0,0.0,0.0,0.0,0.0,0.0,0.0,0.0,0.0,0.0,0.0,0.0,0.0,0.0,0.0,0.0,0.0,0.0,0.0,0.0,0.0,0.0,0.0,0.0,0.0,0.0,0.0,0.0,0.0,0.0,0.0,0.0,0.0,0.0,0.0,0.0,0.0,0.0,0.0,0.0,0.0,0.0,0.0,0.0,0.0,-0.9184,-0.9279,-0.9306,-0.9337,-0.9317,-0.9239,-0.9093,-0.9032,-0.8988,-0.8888,-0.8885,-0.8885,-0.8885,-0.8885,-0.8885,-0.8885,-0.8885,-0.8824,-0.8632,-0.7358,-0.6469,-0.6208,-0.5409,-0.4866,-0.4618,-0.3265,-0.2413,-0.2013,-0.1058,-0.0404,0.0,0.0,0.0,0.0,0.0,0.0,0.0,0.0,0.0,0.0,0.0,0.0,0.0,0.0,0.0,0.0,0.0,0.0,0.0,0.0,0.0,0.0,0.0,0.0,0.0,0.0,0.0,0.0,0.0,0.0,0.0,0.0,0.0,0.0,0.0,0.0,0.0,0.0,0.0,0.0,0.0,0.0,0.0,0.0,0.0,0.0,0.0,0.0,0.0,0.0,0.0,0.0,0.0,0.0,0.0,0.0,0.0,0.0,0.0,0.0,0.0,0.0,0.0,0.0,0.0,0.0,0.0,0.0,0.0,0.0,0.0,0.0,0.0,0.0,0.0,0.0,0.0,0.0,0.0,0.0,0.0,0.0,0.0,0.0,0.0,0.0,-0.918,-0.921,-0.9228,-0.9289,-0.9251,-0.918,-0.9035,-0.8974,-0.8885,-0.8885,-0.8885,-0.8885,-0.8885,-0.8885,-0.8885,-0.8885,-0.8885,-0.8858,-0.8742,-0.7158,-0.5343,-0.3325,-0.3783,-0.3767,-0.3215,-0.1913,-0.1209,-0.1209,-0.0404,0.0,0.0,0.0,0.0,0.0,0.0,0.0,0.0,0.0,0.0,0.0,0.0,0.0,0.0,0.0,0.0,0.0,0.0,0.0,0.0,0.0,0.0,0.0,0.0,0.0,0.0,0.0,0.0,0.0,0.0,0.0,0.0,0.0,0.0,0.0,0.0,0.0,0.0,0.0,0.0,0.0,0.0,0.0,0.0,0.0,0.0,0.0,0.0,0.0,0.0,0.0,0.0,0.0,0.0,0.0,0.0,0.0,0.0,0.0,0.0,0.0,0.0,0.0,0.0,0.0,0.0,0.0,0.0,0.0,0.0,0.0,0.0,0.0,0.0,0.0,0.0,0.0,0.0,0.0,0.0,0.0,0.0,0.0,0.0,0.0,0.0,0.0,-0.9166,-0.919,-0.9234,-0.9317,-0.9225,-0.919,-0.919,-0.9022,-0.8885,-0.8885,-0.8885,-0.8885,-0.8885,-0.8885,-0.8826,-0.8716,-0.866,-0.8735,-0.8893,-0.7223,-0.4335,-0.0163,-0.1194,-0.1818,-0.1821,-0.0606,0.0,0.0,0.0,0.0,0.0,0.0,0.0,0.0,0.0,0.0,0.0,0.0,0.0,0.0,0.0,0.0,0.0,0.0,0.0,0.0,0.0,0.0,0.0,0.0,0.0,0.0,0.0,0.0,0.0,0.0,0.0,0.0,0.0,0.0,0.0,0.0,0.0,0.0,0.0,0.0,0.0,0.0,0.0,0.0,0.0,0.0,0.0,0.0,0.0,0.0,0.0,0.0,0.0,0.0,0.0,0.0,0.0,0.0,0.0,0.0,0.0,0.0,0.0,0.0,0.0,0.0,0.0,0.0,0.0,0.0,0.0,0.0,0.0,0.0,0.0,0.0,0.0,0.0,0.0,0.0,0.0,0.0,0.0,0.0,0.0,0.0,0.0,0.0,0.0,0.0,-0.8981,-0.8984,-0.8994,-0.9028,-0.9008,-0.8984,-0.8984,-0.8902,-0.8885,-0.8885,-0.8885,-0.8885,-0.8885,-0.8885,-0.8436,-0.726,-0.6821,-0.729,-0.8792,-0.5665,-0.261,-0.0109,-0.0264,-0.0415,-0.0421,-0.0154,0.0,0.0,0.0,0.0,0.0,0.0,0.0,0.0,0.0,0.0,0.0,0.0,0.0,0.0,0.0,0.0,0.0,0.0,0.0,0.0,0.0,0.0,0.0,0.0,0.0,0.0,0.0,0.0,0.0,0.0,0.0,0.0,0.0,0.0,0.0,0.0,0.0,0.0,0.0,0.0,0.0,0.0,0.0,0.0,0.0,0.0,0.0,0.0,0.0,0.0,0.0,0.0,0.0,0.0,0.0,0.0,0.0,0.0,0.0,0.0,0.0,0.0,0.0,0.0,0.0,0.0,0.0,0.0,0.0,0.0,0.0,0.0,0.0,0.0,0.0,0.0,0.0,0.0,0.0,0.0,0.0,0.0,0.0,0.0,0.0,0.0,0.0,0.0,0.0,0.0,-0.8885,-0.8885,-0.8885,-0.8885,-0.8885,-0.8885,-0.8885,-0.8885,-0.8885,-0.8885,-0.8885,-0.8885,-0.8885,-0.8266,-0.6977,-0.4745,-0.5425,-0.5603,-0.4713,-0.364,-0.2083,-0.0111,0.0,0.0,0.0,0.0,0.0,0.0,0.0,0.0,0.0,0.0,0.0,0.0,0.0,0.0,0.0,0.0,0.0,0.0,0.0,0.0,0.0,0.0,0.0,0.0,0.0,0.0,0.0,0.0,0.0,0.0,0.0,0.0,0.0,0.0,0.0,0.0,0.0,0.0,0.0,0.0,0.0,0.0,0.0,0.0,0.0,0.0,0.0,0.0,0.0,0.0,0.0,0.0,0.0,0.0,0.0,0.0,0.0,0.0,0.0,0.0,0.0,0.0,0.0,0.0,0.0,0.0,0.0,0.0,0.0,0.0,0.0,0.0,0.0,0.0,0.0,0.0,0.0,0.0,0.0,0.0,0.0,0.0,0.0,0.0,0.0,0.0,0.0,0.0,0.0,0.0,0.0,0.0,0.0,0.0,-0.8885,-0.8885,-0.8885,-0.8885,-0.8885,-0.8885,-0.8885,-0.8885,-0.8826,-0.8546,-0.8546,-0.8432,-0.8156,-0.6811,-0.4912,-0.2403,-0.3916,-0.3582,-0.0224,-0.1548,-0.1767,-0.0056,0.0,0.0,0.0,0.0,0.0,0.0,0.0,0.0,0.0,0.0,0.0,0.0,0.0,0.0,0.0,0.0,0.0,0.0,0.0,0.0,0.0,0.0,0.0,0.0,0.0,0.0,0.0,0.0,0.0,0.0,0.0,0.0,0.0,0.0,0.0,0.0,0.0,0.0,0.0,0.0,0.0,0.0,0.0,0.0,0.0,0.0,0.0,0.0,0.0,0.0,0.0,0.0,0.0,0.0,0.0,0.0,0.0,0.0,0.0,0.0,0.0,0.0,0.0,0.0,0.0,0.0,0.0,0.0,0.0,0.0,0.0,0.0,0.0,0.0,0.0,0.0,0.0,0.0,0.0,0.0,0.0,0.0,0.0,0.0,0.0,0.0,0.0,0.0,0.0,0.0,0.0,0.0,0.0,0.0,-0.8885,-0.8885,-0.8885,-0.8885,-0.8885,-0.8885,-0.8885,-0.8885,-0.8436,-0.7149,-0.698,-0.6533,-0.525,-0.3742,-0.2625,-0.2235,-0.1343,-0.056,-0.0056,-0.028,-0.028,0.0,0.0,0.0,0.0,0.0,0.0,0.0,0.0,0.0,0.0,0.0,0.0,0.0,0.0,0.0,0.0,0.0,0.0,0.0,0.0,0.0,0.0,0.0,0.0,0.0,0.0,0.0,0.0,0.0,0.0,0.0,0.0,0.0,0.0,0.0,0.0,0.0,0.0,0.0,0.0,0.0,0.0,0.0,0.0,0.0,0.0,0.0,0.0,0.0,0.0,0.0,0.0,0.0,0.0,0.0,0.0,0.0,0.0,0.0,0.0,0.0,0.0,0.0,0.0,0.0,0.0,0.0,0.0,0.0,0.0,0.0,0.0,0.0,0.0,0.0,0.0,0.0,0.0,0.0,0.0,0.0,0.0,0.0,0.0,0.0,0.0,0.0,0.0,0.0,0.0,0.0,0.0,0.0,0.0,0.0,-0.8885,-0.8885,-0.8885,-0.8885,-0.8885,-0.8605,-0.7817,-0.7651,-0.7149,-0.5641,-0.5475,-0.525,-0.4582,-0.3129,-0.1845,-0.1064,-0.0392,0.0,0.0,0.0,0.0,0.0,0.0,0.0,0.0,0.0,0.0,0.0,0.0,0.0,0.0,0.0,0.0,0.0,0.0,0.0,0.0,0.0,0.0,0.0,0.0,0.0,0.0,0.0,0.0,0.0,0.0,0.0,0.0,0.0,0.0,0.0,0.0,0.0,0.0,0.0,0.0,0.0,0.0,0.0,0.0,0.0,0.0,0.0,0.0,0.0,0.0,0.0,0.0,0.0,0.0,0.0,0.0,0.0,0.0,0.0,0.0,0.0,0.0,0.0,0.0,0.0,0.0,0.0,0.0,0.0,0.0,0.0,0.0,0.0,0.0,0.0,0.0,0.0,0.0,0.0,0.0,0.0,0.0,0.0,0.0,0.0,0.0,0.0,0.0,0.0,0.0,0.0,0.0,0.0,0.0,0.0,0.0,0.0,0.0,0.0]},{"header":{"parameterUnit":"m.s-1","parameterCategory":1,"la1":30.6,"la2":28.766,"lo1":-90.7593,"lo2":-88.6598,"dy":0.0162,"dx":0.0183,"nx":116,"ny":114,"refTime":"2023-10-03T06:00:00:Z","depth":0,"parameterNumber":3,"parameterNumberName":"V-component_of_WINDS"},"data":[0.0,0.0,0.0,0.0,0.0,0.0,0.0,0.0,0.0,0.0,0.0,0.0,0.0,0.0,0.0,0.0,0.0,0.0,0.0,0.0,0.0,0.0,0.0,0.0,0.0,0.0,0.0,0.0,0.0,0.0,0.0,0.0,0.0,0.0,0.0,0.0,0.0,0.0,0.0,0.0,0.0,0.0,0.0,0.0,0.0,0.0,0.0,0.0,0.0,0.0,0.0,0.0,0.0,0.0,0.0,0.0,0.0,0.0,0.0,0.0,0.0,0.0,0.0,0.0,0.0,0.0,0.0,0.0,0.0,0.0,0.0,0.0,0.0,0.0,0.0,0.0,0.0,0.0,0.0,0.0,0.0,0.0,0.0,0.0,0.0,0.0,0.0,0.0,0.0,0.0,0.0,0.0,0.0,0.0,0.0,0.0,0.0,0.0,0.0,0.0,0.0,0.0,0.0,0.0,0.0,0.0,0.0,0.0,0.0,0.0,0.0,0.0,0.0,0.0,0.0,0.0,0.0,0.0,0.0,0.0,0.0,0.0,0.0,0.0,0.0,0.0,0.0,0.0,0.0,0.0,0.0,0.0,0.0,0.0,0.0,0.0,0.0,0.0,0.0,0.0,0.0,0.0,0.0,0.0,0.0,0.0,0.0,0.0,0.0,0.0,0.0,0.0,0.0,0.0,0.0,0.0,0.0,0.0,0.0,0.0,0.0,0.0,0.0,0.0,0.0,0.0,0.0,0.0,0.0,0.0,0.0,0.0,0.0,0.0,0.0,0.0,0.0,0.0,0.0,0.0,0.0,0.0,0.0,0.0,0.0,0.0,0.0,0.0,0.0,0.0,0.0,0.0,0.0,0.0,0.0,0.0,0.0,0.0,0.0,0.0,0.0,0.0,0.0,0.0,0.0,0.0,0.0,0.0,0.0,0.0,0.0,0.0,0.0,0.0,0.0,0.0,0.0,0.0,0.0,0.0,0.0,0.0,0.0,0.0,0.0,0.0,0.0,0.0,0.0,0.0,0.0,0.0,0.0,0.0,0.0,0.0,0.0,0.0,0.0,0.0,0.0,0.0,0.0,0.0,0.0,0.0,0.0,0.0,0.0,0.0,0.0,0.0,0.0,0.0,0.0,0.0,0.0,0.0,0.0,0.0,0.0,0.0,0.0,0.0,0.0,0.0,0.0,0.0,0.0,0.0,0.0,0.0,0.0,0.0,0.0,0.0,0.0,0.0,0.0,0.0,0.0,0.0,0.0,0.0,0.0,0.0,0.0,0.0,0.0,0.0,0.0,0.0,0.0,0.0,0.0,0.0,0.0,0.0,0.0,0.0,0.0,0.0,0.0,0.0,0.0,0.0,0.0,0.0,0.0,0.0,0.0,0.0,0.0,0.0,0.0,0.0,0.0,0.0,0.0,0.0,0.0,0.0,0.0,0.0,0.0,0.0,0.0,0.0,0.0,0.0,0.0,0.0,0.0,0.0,0.0,0.0,0.0,0.0,0.0,0.0,0.0,0.0,0.0,0.0,0.0,0.0,0.0,0.0,0.0,0.0,0.0,0.0,0.0,0.0,0.0,0.0,0.0,0.0,0.0,0.0,0.0,0.0,0.0,0.0,0.0,0.0,0.0,0.0,0.0,0.0,0.0,0.0,0.0,0.0,0.0,0.0,0.0,0.0,0.0,0.0,0.0,0.0,0.0,0.0,0.0,0.0,0.0,0.0,0.0,0.0,0.0,0.0,0.0,0.0,0.0,0.0,0.0,0.0,0.0,0.0,0.0,0.0,0.0,0.0,0.0,0.0,0.0,0.0,0.0,0.0,0.0,0.0,0.0,0.0,0.0,0.0,0.0,0.0,0.0,0.0,0.0,0.0,0.0,0.0,0.0,0.0,0.0,0.0,0.0,0.0,0.0,0.0,0.0,0.0,0.0,0.0,0.0,0.0,0.0,0.0,0.0,0.0,0.0,0.0,0.0,0.0,0.0,0.0,0.0,0.0,0.0,0.0,0.0,0.0,0.0,0.0,0.0,0.0,0.0,0.0,0.0,0.0,0.0,0.0,0.0,0.0,0.0,0.0,0.0,0.0,0.0,0.0,0.0,0.0,0.0,0.0,0.0,0.0,0.0,0.0,0.0,0.0,0.0,0.0,0.0,0.0,0.0,0.0,0.0,0.0,0.0,0.0,0.0,0.0,0.0,0.0,0.0,0.0,0.0,0.0,0.0,0.0,0.0,0.0,0.0,0.0,0.0,0.0,0.0,0.0,0.0,0.0,0.0,0.0,0.0,0.0,0.0,0.0,0.0,0.0,0.0,0.0,0.0,0.0,0.0,0.0,0.0,0.0,0.0,0.0,0.0,0.0,0.0,0.0,0.0,0.0,0.0,0.0,0.0,0.0,0.0,0.0,0.0,0.0,0.0,0.0,0.0,0.0,0.0,0.0,0.0,0.0,0.0,0.0,0.0,0.0,0.0,0.0,0.0,0.0,0.0,0.0,0.0,0.0,0.0,0.0,0.0,0.0,0.0,0.0,0.0,0.0,0.0,0.0,0.0,0.0,0.0,0.0,0.0,0.0,0.0,0.0,0.0,0.0,0.0,0.0,0.0,0.0,0.0,0.0,0.0,0.0,0.0,0.0,0.0,0.0,0.0,0.0,0.0,0.0,0.0,0.0,0.0,0.0,0.0,0.0,0.0,0.0,0.0,0.0,0.0,0.0,0.0,0.0,0.0,0.0,0.0,0.0,0.0,0.0,0.0,0.0,0.0,0.0,0.0,0.0,0.0,0.0,0.0,0.0,0.0,0.0,0.0,0.0,0.0,0.0,0.0,0.0,0.0,0.0,0.0,0.0,0.0,0.0,0.0,0.0,0.0,0.0,0.0,0.0,0.0,0.0,0.0,0.0,0.0,0.0,0.0,0.0,0.0,0.0,0.0,0.0,0.0,0.0,0.0,0.0,0.0,0.0,0.0,0.0,0.0,0.0,0.0,0.0,0.0,0.0,0.0,0.0,0.0,0.0,0.0,0.0,0.0,0.0,0.0,0.0,0.0,0.0,0.0,0.0,0.0,0.0,0.0,0.0,0.0,0.0,0.0,0.0,0.0,0.0,0.0,0.0,0.0,0.0,0.0,0.0,0.0,0.0,0.0,0.0,0.0,0.0,0.0,0.0,0.0,0.0,0.0,0.0,0.0,0.0,0.0,0.0,0.0,0.0,0.0,0.0,0.0,0.0,0.0,0.0,0.0,0.0,0.0,0.0,0.0,0.0,0.0,0.0,0.0,0.0,0.0,0.0,0.0,0.0,0.0,0.0,0.0,0.0,0.0,0.0,0.0,0.0,0.0,0.0,0.0,0.0,0.0,0.0,0.0,0.0,0.0,0.0,0.0,0.0,0.0,0.0,0.0,0.0,0.0,0.0,0.0,0.0,0.0,0.0,0.0,0.0,0.0,0.0,0.0,0.0,0.0,0.0,0.0,0.0,0.0,0.0,0.0,0.0,0.0,0.0,0.0,0.0,0.0,0.0,0.0,0.0,0.0,0.0,0.0,0.0,0.0,0.0,0.0,0.0,0.0,0.0,0.0,0.0,0.0,0.0,0.0,0.0,0.0,0.0,0.0,0.0,0.0,0.0,0.0,0.0,0.0,0.0,0.0,0.0,0.0,0.0,0.0,0.0,0.0,0.0,0.0,0.0,0.0,0.0,0.0,0.0,0.0,0.0,0.0,0.0,0.0,0.0,0.0,0.0,0.0,0.0,0.0,0.0,0.0,0.0,0.0,0.0,0.0,0.0,0.0,0.0,0.0,0.0,0.0,0.0,0.0,0.0,0.0,0.0,0.0,0.0,0.0,0.0,0.0,0.0,0.0,0.0,0.0,0.0,0.0,0.0,0.0,0.0,0.0,0.0,0.0,0.0,0.0,0.0,0.0,0.0,0.0,0.0,0.0,0.0,0.0,0.0,0.0,0.0,0.0,0.0,0.0,0.0,0.0,0.0,0.0,0.0,0.0,0.0,0.0,0.0,0.0,0.0,0.0,0.0,0.0,0.0,0.0,0.0,0.0,0.0,0.0,0.0,0.0,0.0,0.0,0.0,0.0,0.0,0.0,0.0,0.0,0.0,0.0,0.0,0.0,0.0,0.0,0.0,0.0,0.0,0.0,0.0,0.0,0.0,0.0,0.0,0.0,0.0,0.0,0.0,0.0,0.0,0.0,0.0,0.0,0.0,0.0,0.0,0.0,0.0,0.0,0.0,0.0,0.0,0.0,0.0,0.0,0.0,0.0,0.0,0.0,0.0,0.0,0.0,0.0,0.0,0.0,0.0,0.0,0.0,0.0,0.0,0.0,0.0,0.0,0.0,0.0,0.0,0.0,0.0,0.0,0.0,0.0,0.0,0.0,0.0,0.0,0.0,0.0,0.0,0.0,0.0,0.0,0.0,0.0,0.0,0.0,0.0,0.0,0.0,0.0,0.0,0.0,0.0,0.0,0.0,0.0,0.0,0.0,0.0,0.0,0.0,0.0,0.0,0.0,0.0,0.0,0.0,0.0,0.0,0.0,0.0,0.0,0.0,0.0,0.0,0.0,0.0,0.0,0.0,0.0,0.0,0.0,0.0,0.0,0.0,0.0,0.0,0.0,0.0,0.0,0.0,0.0,0.0,0.0,0.0,0.0,0.0,0.0,0.0,0.0,0.0,0.0,0.0,0.0,0.0,0.0,0.0,0.0,0.0,0.0,0.0,0.0,0.0,0.0,0.0,0.0,0.0,0.0,0.0,0.0,0.0,0.0,0.0,0.0,0.0,0.0,0.0,0.0,0.0,0.0,0.0,0.0,0.0,0.0,0.0,0.0,0.0,0.0,0.0,0.0,0.0,0.0,0.0,0.0,0.0,0.0,0.0,0.0,0.0,0.0,0.0,0.0,0.0,0.0,0.0,0.0,0.0,0.0,0.0,0.0,0.0,0.0,0.0,0.0,0.0,0.0,0.0,0.0,0.0,0.0,0.0,0.0,0.0,0.0,0.0,0.0,0.0,0.0,0.0,0.0,0.0,0.0,0.0,0.0,0.0,0.0,0.0,0.0,0.0,0.0,0.0,0.0,0.0,0.0,0.0,0.0,0.0,0.0,0.0,0.0,0.0,0.0,0.0,0.0,0.0,0.0,0.0,0.0,0.0,0.0,0.0,0.0,0.0,0.0,0.0,0.0,0.0,0.0,0.0,0.0,0.0,0.0,0.0,0.0,0.0,0.0,0.0,0.0,0.0,0.0,0.0,0.0,0.0,0.0,0.0,0.0,0.0,0.0,0.0,0.0,0.0,0.0,0.0,0.0,0.0,0.0,0.0,0.0,0.0,0.0,0.0,0.0,0.0,0.0,0.0,0.0,0.0,0.0,0.0,0.0,0.0,0.0,0.0,0.0,0.0,0.0,0.0,0.0,0.0,0.0,0.0,0.0,0.0,0.0,0.0,0.0,0.0,0.0,0.0,0.0,0.0,0.0,0.0,0.0,0.0,0.0,0.0,0.0,0.0,0.0,0.0,0.0,0.0,0.0,0.0,0.0,0.0,0.0,0.0,0.0,0.0,0.0,0.0,0.0,0.0,0.0,0.0,0.0,0.0,0.0,0.0,0.0,0.0,0.0,0.0,0.0,0.0,0.0,0.0,0.0,0.0,0.0,0.0,0.0,0.0,0.0,0.0,0.0,0.0,0.0,0.0,0.0,0.0,0.0,0.0,0.0,0.0,0.0,0.0,0.0,0.0,0.0,0.0,0.0,0.0,0.0,0.0,0.0,0.0,0.0,0.0,0.0,0.0,0.0,0.0,0.0,0.0,0.0,0.0,0.0,0.0,0.0,0.0,0.0,0.0,0.0,0.0,0.0,0.0,0.0,0.0,0.0,0.0,0.0,0.0,0.0,0.0,0.0,0.0,0.0,0.0,0.0,0.0,0.0,0.0,0.0,0.0,0.0,0.0,0.0,0.0,0.0,0.0,0.0,0.0,0.0,0.0,0.0,0.0,0.0,0.0,0.0,0.0,0.0,0.0,0.0,0.0,0.0,0.0,0.0,0.0,0.0,0.0,0.0,0.0,0.0,0.0,0.0,0.0,0.0,0.0,0.0,0.0,2.3282,0.0,0.0,0.0,0.0,0.0,0.0,0.0,0.0,0.0,0.0,0.0,0.0,0.0,0.0,0.0,0.0,0.0,0.0,0.0,0.0,0.0,0.0,0.0,0.0,0.0,0.0,0.0,0.0,0.0,0.0,0.0,0.0,0.0,0.0,0.0,0.0,0.0,0.0,3.3455,3.2826,3.2811,3.3424,3.2847,3.1532,2.9628,0.0,0.0,0.0,0.0,0.0,0.0,0.0,0.0,0.0,0.0,0.0,0.0,0.0,0.0,0.0,0.0,0.0,0.0,0.0,0.0,0.0,0.0,0.0,0.0,0.0,0.0,0.0,0.0,0.0,0.0,0.0,0.0,0.0,0.0,0.0,0.0,0.0,0.0,0.0,0.0,0.0,0.0,0.0,0.0,0.0,0.0,0.0,0.0,0.0,0.0,0.0,0.0,0.0,0.0,0.0,0.0,0.0,0.0,0.0,0.0,0.0,0.0,0.0,0.0,0.0,0.0,0.0,0.0,0.0,0.0,0.0,2.4896,0.0,0.0,0.0,0.0,0.0,0.0,0.0,0.0,0.0,0.0,0.0,0.0,0.0,0.0,0.0,0.0,0.0,0.0,0.0,0.0,0.0,0.0,0.0,3.2894,3.3197,3.4,3.397,3.3955,0.0,0.0,0.0,0.0,0.0,0.0,3.4228,3.3337,3.3501,3.4874,3.3845,3.4397,3.6372,3.6791,3.5177,3.1862,3.1295,0.0,0.0,0.0,0.0,0.0,0.0,0.0,0.0,0.0,0.0,0.0,0.0,0.0,0.0,0.0,0.0,0.0,0.0,0.0,0.0,0.0,0.0,0.0,0.0,0.0,0.0,0.0,0.0,0.0,0.0,0.0,0.0,0.0,0.0,0.0,0.0,0.0,0.0,0.0,0.0,0.0,0.0,0.0,0.0,0.0,0.0,0.0,0.0,0.0,0.0,0.0,0.0,0.0,0.0,0.0,0.0,0.0,0.0,0.0,0.0,0.0,0.0,0.0,3.3242,3.3768,3.405,3.4153,3.4204,3.405,3.1267,2.9345,2.8071,2.7322,0.0,0.0,0.0,0.0,0.0,0.0,0.0,0.0,0.0,0.0,0.0,0.0,0.0,0.0,0.0,0.0,0.0,0.0,0.0,3.3714,3.4335,3.4414,3.495,3.6334,3.5864,3.5768,3.6414,0.0,0.0,0.0,0.0,0.0,3.72,3.5278,3.4923,3.6338,3.6615,3.7793,3.9738,3.926,3.8725,3.8067,3.5225,3.4222,3.4557,0.0,0.0,0.0,0.0,0.0,0.0,0.0,0.0,0.0,0.0,0.0,0.0,0.0,0.0,0.0,0.0,0.0,0.0,0.0,0.0,0.0,0.0,0.0,0.0,0.0,0.0,0.0,0.0,0.0,0.0,0.0,0.0,0.0,0.0,0.0,0.0,0.0,0.0,0.0,0.0,0.0,2.904,2.7968,0.0,0.0,0.0,0.0,0.0,0.0,0.0,0.0,0.0,0.0,0.0,0.0,0.0,3.4501,3.5714,3.6816,3.7191,3.6886,3.8421,3.8654,3.78,3.8338,3.8558,3.853,3.809,0.0,3.1245,2.9673,0.0,0.0,0.0,0.0,0.0,0.0,0.0,0.0,0.0,0.0,0.0,0.0,0.0,0.0,0.0,0.0,0.0,0.0,0.0,0.0,0.0,3.6722,3.8155,3.9167,4.0514,4.0738,3.9328,3.9315,0.0,0.0,3.6996,3.7126,3.7777,3.689,3.7219,3.8893,4.11,4.234,4.2596,4.2297,4.1929,4.1496,3.9723,3.7888,3.5968,3.4726,0.0,0.0,0.0,0.0,0.0,0.0,0.0,0.0,0.0,0.0,0.0,0.0,0.0,0.0,0.0,0.0,0.0,0.0,0.0,0.0,0.0,0.0,0.0,0.0,0.0,0.0,0.0,0.0,0.0,0.0,0.0,0.0,0.0,0.0,0.0,0.0,0.0,0.0,0.0,2.9661,2.9961,2.8377,2.9077,2.891,0.0,0.0,0.0,0.0,0.0,0.0,0.0,0.0,0.0,3.5541,3.6522,3.7447,3.8331,3.9452,4.0191,4.0582,4.1271,4.1518,4.1307,4.1585,4.1709,4.1696,4.1393,3.9727,3.7063,3.4519,3.2386,3.0658,0.0,0.0,0.0,0.0,2.9549,2.9615,0.0,0.0,0.0,0.0,0.0,0.0,0.0,0.0,0.0,0.0,0.0,0.0,3.702,3.9589,4.1768,4.2994,4.4983,4.5162,4.2717,4.2178,4.0961,3.8776,3.8096,3.7983,3.8374,3.8974,4.0303,4.2413,4.5358,4.6602,4.6142,4.6142,4.5791,4.5081,4.4487,4.1871,3.7933,3.6567,3.513,3.3694,0.0,0.0,0.0,0.0,0.0,0.0,0.0,0.0,0.0,0.0,0.0,0.0,0.0,0.0,0.0,0.0,0.0,0.0,0.0,0.0,0.0,0.0,0.0,0.0,0.0,0.0,0.0,0.0,0.0,0.0,0.0,0.0,0.0,0.0,0.0,0.0,0.0,3.0782,3.1371,2.9282,3.0761,3.0942,0.0,0.0,0.0,0.0,0.0,0.0,3.5416,3.6812,3.8092,3.9287,4.0335,4.1238,4.1981,4.2851,4.3603,4.4206,4.4174,4.4252,4.4456,4.4456,4.4456,4.4474,4.4054,4.3424,4.2386,3.8842,3.6019,3.3924,3.3248,3.2478,3.1762,3.1979,3.1982,3.1842,0.0,0.0,0.0,0.0,0.0,0.0,0.0,0.0,0.0,0.0,0.0,3.7807,4.061,4.3,4.5515,4.8368,4.8101,4.741,4.6579,4.3209,4.1184,4.1049,3.897,3.8486,3.9952,4.1991,4.4364,4.7064,4.8588,4.9939,5.1135,5.1135,5.0728,5.0003,4.9345,4.6457,4.1886,3.8661,3.7255,3.6896,3.3769,0.0,0.0,0.0,0.0,0.0,0.0,0.0,0.0,0.0,0.0,0.0,0.0,0.0,0.0,0.0,0.0,0.0,0.0,0.0,0.0,0.0,0.0,0.0,0.0,0.0,0.0,0.0,0.0,0.0,0.0,0.0,0.0,0.0,0.0,0.0,0.0,0.0,0.0,3.1648,3.4703,0.0,0.0,0.0,0.0,3.3065,3.6105,3.8574,3.9736,4.1242,4.325,4.5761,4.6508,4.7477,4.8805,4.888,4.8596,4.8029,4.8044,4.7687,4.7121,4.7121,4.7121,4.7121,4.7076,4.6701,4.5692,4.1265,3.8491,3.6925,3.6252,3.5075,3.3836,3.4673,3.4577,3.4143,0.0,0.0,0.0,0.0,0.0,0.0,0.0,0.0,3.56,3.56,3.7956,4.0206,4.1728,4.6481,4.9982,5.1031,5.2232,5.1792,4.9086,4.5889,4.3656,4.2675,4.0464,4.0682,4.3639,4.5391,4.7334,4.9499,5.0549,5.1194,5.1437,5.0973,5.0916,5.1092,5.0858,4.9601,4.7399,4.3949,4.1484,3.9692,3.7021,3.5281,0.0,0.0,0.0,0.0,0.0,0.0,0.0,0.0,0.0,0.0,0.0,0.0,0.0,0.0,0.0,0.0,0.0,0.0,0.0,0.0,0.0,0.0,0.0,0.0,0.0,0.0,0.0,0.0,0.0,0.0,0.0,0.0,0.0,0.0,0.0,0.0,0.0,3.5397,3.8063,0.0,3.6452,3.7486,3.8389,3.8429,4.0367,4.2276,4.4012,4.5448,4.68,4.8177,4.885,4.9419,4.9883,4.9898,4.9778,4.9493,4.8686,4.8162,4.7923,4.7504,4.7309,4.7309,4.7309,4.6681,4.5532,4.3938,4.2174,4.044,3.9336,3.8045,3.6825,3.7137,3.6828,3.6299,0.0,0.0,0.0,0.0,0.0,0.0,0.0,3.5399,3.5543,3.5798,3.8967,4.1965,4.3978,4.9289,5.301,5.3754,5.4989,5.4126,5.0338,4.7344,4.4908,4.3115,4.1863,4.2726,4.6007,4.8003,5.0001,5.2034,5.305,5.3419,5.321,5.2492,5.2317,5.2529,5.2529,5.2305,5.1737,4.9157,4.6011,4.2493,4.0047,3.8489,3.7391,0.0,0.0,0.0,0.0,0.0,0.0,0.0,0.0,0.0,0.0,0.0,0.0,0.0,0.0,0.0,0.0,0.0,0.0,0.0,0.0,0.0,0.0,0.0,0.0,0.0,0.0,0.0,0.0,0.0,0.0,0.0,0.0,0.0,0.0,0.0,3.8242,3.7793,4.0666,4.2013,4.0247,4.11,4.2207,4.3299,4.4392,4.5873,4.7863,4.8596,4.9254,4.9912,5.0346,5.0524,5.0524,5.0524,5.03,4.9898,4.903,4.8386,4.7938,4.7504,4.7309,4.7294,4.707,4.6471,4.5603,4.5155,4.4197,4.295,4.1818,4.0711,3.973,3.9484,3.8975,3.8362,0.0,0.0,0.0,0.0,0.0,0.0,3.4624,3.5025,3.5506,3.6298,3.93,4.3051,4.7522,5.1351,5.4499,5.6649,5.6089,5.4076,5.0338,4.7276,4.4621,4.2422,4.3098,4.4604,4.6904,4.9779,5.235,5.4617,5.6072,5.6765,5.6748,5.6038,5.5344,5.4668,5.4668,5.4668,5.4617,5.3907,5.0592,4.5528,4.2653,4.1535,4.1112,0.0,0.0,0.0,0.0,0.0,0.0,0.0,0.0,0.0,0.0,0.0,0.0,0.0,0.0,0.0,0.0,0.0,0.0,0.0,0.0,0.0,0.0,0.0,0.0,0.0,0.0,0.0,0.0,0.0,0.0,0.0,0.0,0.0,3.4773,3.8033,4.0038,3.8781,4.2626,4.4392,4.1901,4.4526,4.6696,4.7354,4.7997,4.9209,5.1109,5.0584,5.0539,5.1199,5.1214,5.1214,5.1184,5.1214,5.0556,4.9314,4.9314,4.8596,4.7339,4.7309,4.7309,4.7264,4.6636,4.6337,4.6145,4.4885,4.4332,4.4212,4.3514,4.2895,4.2291,4.1632,4.0935,4.0187,0.0,0.0,0.0,0.0,0.0,0.0,3.5366,3.5643,3.6431,3.8428,4.2354,4.6325,4.9898,5.4139,5.6965,5.7618,5.5468,5.2976,5.027,4.5788,4.32,4.3115,4.4891,4.7411,5.0727,5.1589,5.3112,5.5412,5.5818,5.6004,5.6004,5.5801,5.5886,5.619,5.619,5.619,5.619,5.5987,5.4426,5.1748,4.7701,4.546,4.4206,0.0,0.0,0.0,0.0,0.0,0.0,0.0,0.0,0.0,0.0,0.0,0.0,0.0,0.0,0.0,0.0,0.0,0.0,0.0,0.0,0.0,0.0,0.0,0.0,0.0,0.0,0.0,0.0,0.0,0.0,0.0,0.0,3.9982,3.8918,4.0935,4.2886,4.4018,4.6112,4.7369,4.7173,4.7966,4.873,4.9344,5.0032,5.0646,5.1184,5.1498,5.1528,5.1229,5.1214,5.099,5.0465,5.0943,5.0556,4.9314,4.9314,4.8865,4.7997,4.7519,4.7309,4.7294,4.7115,4.6471,4.5544,4.5185,4.4466,4.3499,4.288,4.2261,4.1602,4.0905,4.0247,3.9634,0.0,0.0,0.0,0.0,0.0,0.0,3.4882,3.5415,3.6488,3.8577,4.3269,4.7592,5.0775,5.4583,5.6941,5.6941,5.4749,5.214,4.9212,4.561,4.4109,4.5246,4.7445,4.9949,5.2739,5.3721,5.4989,5.663,5.6951,5.7067,5.7103,5.6782,5.6697,5.6799,5.6799,5.6799,5.6799,5.6799,5.6308,5.5226,5.2012,4.9813,4.8122,4.4925,4.3386,4.2692,4.0984,4.0172,3.98,3.9073,0.0,0.0,0.0,0.0,0.0,0.0,0.0,0.0,0.0,0.0,0.0,0.0,0.0,0.0,0.0,0.0,0.0,0.0,0.0,0.0,0.0,0.0,0.0,0.0,4.2301,4.4116,4.4545,4.4971,4.5647,4.6978,4.8312,4.9464,5.0302,5.0472,5.0982,5.2077,5.2096,5.2037,5.2037,5.2142,5.1887,5.1244,5.1214,5.09,5.0196,5.0569,5.0152,4.8895,4.8895,4.8506,4.7863,4.7474,4.7309,4.7294,4.701,4.6292,4.5274,4.5005,4.4272,0.0,0.0,0.0,0.0,0.0,3.9993,3.9388,0.0,0.0,0.0,0.0,0.0,0.0,3.3917,3.4884,3.6212,3.7948,4.303,4.7589,5.0531,5.3512,5.5317,5.526,5.3674,5.1176,4.7643,4.6316,4.643,4.8189,5.0306,5.2232,5.3839,5.5886,5.7289,5.8017,5.8761,5.9133,5.9116,5.8372,5.7662,5.7036,5.6968,5.6917,5.6917,5.6917,5.6884,5.6681,5.5277,5.3805,5.1995,4.7885,4.6616,4.6667,4.3826,4.2388,4.1711,4.0891,0.0,0.0,0.0,0.0,0.0,0.0,0.0,0.0,0.0,0.0,0.0,0.0,0.0,0.0,0.0,0.0,0.0,0.0,0.0,0.0,0.0,0.0,0.0,0.0,4.5725,4.7984,5.0639,4.9646,4.8676,4.8882,4.9899,5.1029,5.2225,5.2368,5.3139,5.4961,5.4027,5.342,5.3474,0.0,0.0,0.0,0.0,5.09,5.0196,5.0196,4.9583,4.8282,4.8282,4.7938,4.7309,4.7309,4.7309,4.7279,4.6696,4.6035,4.5395,4.4809,4.4213,4.3615,4.3319,4.2776,4.2036,4.0831,3.9993,3.9388,0.0,0.0,0.0,0.0,0.0,0.0,3.4674,3.5553,3.7174,4.0085,4.4254,4.7698,4.9669,5.2136,5.3649,5.3638,5.1089,4.873,4.6873,4.707,4.8243,5.0488,5.2164,5.4042,5.6122,5.7154,5.8051,5.8795,5.9539,5.9894,5.9877,5.9133,5.8727,5.8558,5.7949,5.7679,5.7679,5.7679,5.734,5.6731,5.5852,5.46,5.3044,5.0947,4.9492,4.8342,4.6566,4.5838,4.55,4.4192,4.32,4.2354,4.1153,3.9851,0.0,0.0,0.0,0.0,0.0,0.0,0.0,0.0,0.0,0.0,0.0,0.0,0.0,0.0,0.0,0.0,0.0,0.0,0.0,4.819,5.0122,5.1877,5.3907,5.3917,5.3411,5.2651,5.2796,5.3497,5.4836,5.4111,5.4383,5.6272,5.5266,5.4775,5.5193,5.4165,5.3268,5.259,5.1681,5.09,5.0196,5.0196,4.9583,4.8282,0.0,0.0,4.7309,4.7309,4.7309,4.7294,4.7174,4.6845,4.6441,4.6302,4.6003,4.5446,4.3396,4.1818,4.0756,4.0502,3.9993,3.9388,0.0,0.0,0.0,0.0,0.0,0.0,3.4821,3.5752,3.7165,3.9588,4.3388,4.6232,4.7058,4.9289,5.041,4.9613,4.8157,4.7501,4.8119,4.9591,5.1342,5.3355,5.4915,5.6252,5.7306,5.8068,5.8812,5.9556,6.0334,6.0706,6.0689,6.0334,5.9945,5.9539,5.9167,5.8795,5.8457,5.8457,5.8017,5.7256,5.6156,5.5277,5.4397,5.2486,5.1065,4.9965,4.8849,4.797,4.7141,4.5635,4.4891,4.4231,4.2337,4.1238,4.0578,0.0,0.0,0.0,0.0,0.0,0.0,0.0,0.0,0.0,0.0,0.0,0.0,0.0,0.0,4.2209,0.0,0.0,4.7767,5.071,5.279,5.4461,5.5756,5.6287,5.5886,5.4307,5.4422,5.5168,5.6449,5.6139,5.6463,5.8057,5.7328,5.6831,5.676,5.5827,5.4986,5.4337,5.3009,5.2036,5.1382,5.0998,5.0333,4.9368,4.9368,4.9197,4.8856,4.8856,4.8856,4.8856,4.8856,4.8346,4.7451,4.6743,4.6344,4.6071,4.482,4.3707,4.2729,4.1996,4.1531,4.119,0.0,0.0,0.0,0.0,0.0,0.0,0.0,3.5642,3.6817,3.8285,4.1827,4.4159,4.4012,4.603,4.6856,4.5553,4.6012,4.7376,4.9762,5.2258,5.4332,5.5868,5.7519,5.8325,5.8121,5.8998,5.9742,6.0334,6.1129,6.1518,6.1501,6.1366,6.096,6.0334,6.0165,5.9776,5.9218,5.9218,5.8795,5.8,5.6664,5.597,5.548,5.3348,5.208,5.1268,5.0084,4.8815,4.7479,4.5991,4.5297,4.4722,4.2878,4.2202,4.1931,4.1204,4.0561,0.0,0.0,0.0,0.0,0.0,0.0,0.0,0.0,0.0,4.1619,4.3081,4.3978,4.5094,4.7073,4.8528,5.0202,5.2587,5.4515,5.6021,5.6884,5.7526,5.7172,5.5271,5.5685,5.6605,5.7793,5.79,5.8511,5.9944,5.9371,5.8791,5.8513,5.7431,5.6578,5.6057,5.4512,5.338,5.2685,5.1957,5.1254,5.0605,5.0461,5.0397,5.0397,5.0397,5.0397,5.0381,5.03,4.9603,4.8482,4.726,4.673,4.673,4.673,4.6343,4.5532,4.3909,4.3199,4.2975,0.0,0.0,0.0,0.0,0.0,0.0,0.0,0.0,3.6615,3.7529,4.0506,4.2304,4.1572,4.302,4.3974,4.3773,4.6379,4.878,5.0564,5.3603,5.5738,5.6648,5.8835,5.9666,5.8879,6.03,6.1078,6.118,6.1907,6.2262,6.2245,6.1603,6.1247,6.1129,6.0419,6.0047,5.9979,5.9979,5.9556,5.8829,5.7983,5.6867,5.5547,5.3974,5.2875,5.1826,4.9137,4.7631,4.6701,4.5224,4.3819,4.2625,4.2371,4.1847,4.1187,4.0451,4.0163,4.0079,4.0011,3.9571,3.9563,4.1457,4.095,4.1035,0.0,0.0,4.55,4.6989,4.7868,4.8646,4.956,5.0405,5.1895,5.4854,5.5547,5.6207,5.7577,5.7831,5.7572,5.6679,5.7197,5.8231,5.9637,5.8847,5.9315,6.1891,6.043,5.9861,6.0858,5.8625,5.7279,5.7197,5.5432,5.4141,5.3412,5.2717,5.2013,5.1286,5.0662,5.0397,5.0397,5.0397,5.0397,5.0371,4.9968,4.9702,4.9509,4.8907,4.8688,4.8688,4.8688,4.8234,4.7292,4.4886,4.3615,4.2975,0.0,0.0,0.0,0.0,0.0,0.0,0.0,0.0,3.6009,3.7327,3.9074,4.0084,3.9738,4.0304,4.0891,4.135,4.436,4.7311,4.9937,5.4437,5.7366,5.8159,6.0435,6.1097,5.9801,6.0789,6.1298,6.1298,6.2026,6.2381,6.2381,6.2076,6.1704,6.1298,6.14,6.0926,6.0131,6.0605,6.0351,5.9539,5.8355,5.7273,5.6038,5.3247,5.1437,5.0118,4.802,4.6498,0.0,4.3267,4.276,4.2794,4.1931,4.1745,4.1694,4.095,4.0451,4.0096,4.0096,4.0798,4.1796,0.0,4.347,4.4604,4.6921,4.753,4.8054,4.9511,5.0422,5.1166,5.1944,5.2689,5.3737,0.0,5.6072,5.6714,5.7746,5.7526,5.6985,5.6258,5.6444,5.7205,5.8676,5.8736,5.9549,6.1598,6.1026,6.0947,6.1907,6.0051,5.898,5.898,5.6535,5.5114,5.4779,5.3658,5.293,5.2633,5.2335,5.2186,5.2186,5.2186,5.1938,5.1477,5.0826,5.0309,4.9874,4.9268,4.9001,4.9001,4.9001,4.8815,4.8301,4.6381,4.522,4.4522,0.0,0.0,0.0,0.0,0.0,0.0,0.0,0.0,0.0,0.0,3.7863,3.845,3.8689,3.8505,3.8689,3.9496,4.2304,4.5333,4.838,5.3867,5.7364,5.8142,6.1075,6.1932,6.0287,6.138,6.1821,6.1603,6.2127,6.2279,6.2093,6.2296,6.2009,6.1332,6.2059,6.1772,6.0757,6.1146,6.0842,5.9962,5.8473,5.7087,5.553,5.2181,4.961,4.7581,4.6092,4.4604,4.3031,4.0984,4.1018,4.1685,4.0629,4.0798,4.1271,4.0747,4.0358,4.0197,4.0603,4.2016,0.0,4.417,4.5889,4.7648,4.8612,4.939,5.0287,5.1589,5.2266,5.2807,5.3399,5.394,5.46,5.5564,5.6156,5.6748,5.7492,5.6968,5.6156,5.5226,5.4921,5.5277,5.6545,5.7729,5.9032,6.0554,6.0672,6.0994,6.1721,6.052,5.981,5.981,5.7543,5.6122,5.5681,5.4651,5.3907,5.3501,5.3501,5.3501,5.3501,5.3281,5.2858,5.2249,5.1319,5.0591,5.0033,4.9306,4.9001,4.9001,4.9001,4.8748,4.8257,4.7192,4.6464,4.5872,0.0,0.0,0.0,0.0,0.0,0.0,0.0,0.0,0.0,0.0,0.0,3.7841,3.8615,3.7991,3.786,3.867,4.0965,4.3406,4.5847,5.1353,5.4827,5.5585,6.016,6.1901,6.0143,6.2415,6.3222,6.2364,6.2381,6.2026,6.1349,6.2059,6.2009,6.1332,6.2059,6.2364,6.2279,6.1586,6.0842,5.9962,5.8473,5.6173,5.3348,5.1014,4.7898,4.453,4.298,4.1491,3.9995,3.8514,3.8041,3.8075,3.8024,3.8514,3.9089,3.9056,3.9571,4.0417,4.183,4.2811,4.3916,4.6143,4.7817,4.9323,5.0762,5.1674,5.2435,5.3264,5.345,5.3467,5.3501,5.3518,5.4025,5.548,5.5733,5.6004,5.6731,5.6207,5.5209,5.3737,5.2892,5.2739,0.0,5.5598,5.7492,5.8981,5.9082,5.9404,6.0131,5.9455,5.9049,5.9049,5.8254,5.7154,5.5698,5.5683,5.4938,5.3501,5.3501,5.3501,5.3467,5.2689,5.2317,5.2215,5.076,5.0101,5.0033,4.9306,4.9001,4.9001,4.9001,4.8122,4.6853,4.6802,4.6786,4.6549,0.0,0.0,0.0,0.0,0.0,0.0,0.0,0.0,0.0,0.0,0.0,0.0,0.0,0.0,0.0,0.0,3.8836,4.0946,4.3351,4.8857,5.259,5.3922,5.8086,6.0101,5.946,5.9717,5.9925,6.0148,5.9641,5.9285,5.9049,5.981,5.9759,5.9082,6.0317,6.0605,6.0131,5.9894,5.9336,5.8457,5.6494,5.4515,5.235,4.8612,4.5771,4.342,0.0,3.9073,3.8413,3.6884,3.6738,3.7161,3.7161,3.7669,3.8362,3.8853,3.9868,4.1153,4.2642,4.4688,4.679,4.8545,5.0101,5.1471,5.2503,5.2926,5.3027,5.2756,5.1928,5.1082,5.0608,5.0507,5.1014,5.2486,5.3991,5.5226,5.5987,5.6292,5.5513,5.301,5.3365,0.0,0.0,0.0,0.0,5.7391,5.7983,5.8592,5.9336,5.915,5.9015,5.9015,5.7357,5.6207,5.5681,5.4735,5.3991,5.3501,5.3501,5.3501,5.3501,5.323,5.2553,5.1555,5.1065,5.027,4.9357,4.9103,4.9001,4.9001,4.9001,4.8409,4.7479,4.6972,4.6481,4.5923,0.0,0.0,0.0,0.0,0.0,0.0,0.0,0.0,0.0,0.0,0.0,0.0,0.0,0.0,0.0,0.0,0.0,3.8615,4.0451,4.5351,4.8776,5.0101,5.4042,5.5942,5.5396,5.5444,5.5568,5.5818,5.5615,5.5632,5.5919,5.6951,5.7171,5.6765,5.7983,5.8271,5.7797,5.7273,5.6613,5.5666,5.3196,5.115,4.9218,4.55,4.2997,0.0,3.8447,3.733,3.6918,3.5921,3.6129,3.6795,3.6795,3.7483,3.8447,3.9174,4.0612,4.2439,4.4457,4.679,4.9052,5.0524,5.1809,5.279,5.3027,5.3078,5.2706,5.1386,5.0371,4.939,4.8392,4.8206,4.8697,5.0185,5.186,5.3433,5.4735,5.5074,5.4583,5.2926,5.3129,5.2909,0.0,0.0,0.0,5.5869,5.6444,5.7154,5.8169,5.7983,5.7949,5.822,5.6596,5.5581,5.531,5.4363,5.3754,5.3501,5.3501,5.3501,5.3501,5.3213,5.2401,5.12,5.093,5.0118,4.9001,4.9001,4.9001,4.9001,4.9001,4.8392,4.7462,4.6972,4.616,4.5229,0.0,0.0,0.0,0.0,0.0,0.0,0.0,0.0,0.0,0.0,0.0,0.0,0.0,0.0,0.0,0.0,0.0,0.0,3.7327,4.1109,4.367,4.4489,4.8405,4.9938,4.8657,5.0039,5.0519,4.9927,5.0541,5.1251,5.1995,5.345,5.4143,5.4228,5.4938,5.526,5.5175,5.3721,5.2638,5.1657,4.8781,4.6329,4.4192,4.1897,3.9732,3.7804,3.7009,3.6248,3.56,3.565,3.6214,3.6931,3.6965,3.7963,3.9259,4.0096,4.1863,4.4204,4.7179,4.9086,5.0557,5.1995,5.2909,5.323,5.2435,5.2181,5.1522,4.934,4.8798,4.8274,4.6819,4.6599,4.7107,4.8646,4.9627,5.0997,5.3247,5.2993,5.2824,0.0,0.0,0.0,0.0,0.0,0.0,5.4482,0.0,5.5209,5.6613,5.6072,5.6038,5.6731,5.6038,5.531,5.46,5.4549,5.4194,5.3501,5.3501,5.3501,5.3467,5.2672,5.1911,5.1166,5.0422,4.9678,4.9001,4.9001,4.8984,4.8951,4.8951,4.8037,4.6735,4.6735,4.5821,4.4615,0.0,0.0,0.0,0.0,0.0,0.0,0.0,0.0,0.0,0.0,0.0,0.0,0.0,0.0,0.0,0.0,0.0,0.0,3.5573,3.8891,4.1176,4.1992,4.5368,4.7302,4.7488,4.7033,4.6965,4.7346,4.6629,4.665,4.7394,4.78,4.8257,4.8781,4.8984,4.9069,4.9001,4.8088,4.7242,4.6409,4.4485,4.3064,4.183,3.9597,3.8396,3.7736,3.64,3.5769,3.5684,3.6282,3.7347,3.8531,3.9089,3.9901,4.1018,4.2905,4.4621,4.6464,4.8883,5.0625,5.1978,5.2959,5.2909,5.2418,5.1657,5.0642,4.9373,4.7699,4.6024,4.4553,4.3606,4.391,4.4959,4.7022,4.9813,0.0,5.4076,5.5547,0.0,5.4482,0.0,5.4211,5.3281,5.3196,0.0,0.0,5.4583,5.4752,5.5141,5.5513,5.5801,5.5987,5.5277,5.4786,5.4583,5.4059,5.3687,5.3501,5.3501,5.3501,5.3467,5.2672,5.1911,5.1166,5.0422,4.9678,4.9001,4.9001,4.868,4.8189,4.8189,4.7293,4.5974,4.5974,4.5382,4.4615,0.0,0.0,0.0,0.0,0.0,0.0,0.0,0.0,0.0,0.0,0.0,0.0,0.0,0.0,0.0,0.0,0.0,0.0,0.0,3.689,3.8524,3.8982,4.1449,4.2783,4.2757,4.2092,4.1717,4.1654,4.1673,4.1863,4.2303,4.2946,4.3453,4.387,4.3859,4.4045,4.4282,4.3572,4.3014,0.0,0.0,3.9918,3.9089,3.7516,3.6884,3.6766,3.5904,3.6022,3.6867,3.8616,3.9749,4.0578,4.1313,4.2523,4.3978,4.5585,4.709,4.8646,5.0541,5.1928,5.2942,5.3399,5.2909,5.1944,5.0557,4.9357,4.7817,4.5331,4.3809,4.2591,4.1525,4.1931,4.3081,0.0,0.0,0.0,5.323,5.5226,5.6224,0.0,5.5936,0.0,5.46,5.4482,5.4651,0.0,5.4482,5.4397,5.5057,5.4871,5.4888,5.5209,5.4499,5.411,5.411,5.3704,5.3501,5.3501,5.3501,5.3501,5.3467,5.2672,5.1911,5.1166,0.0,4.9678,4.9001,4.9001,4.8578,4.7889,4.7889,4.6993,4.5703,4.5703,4.5229,4.4615,0.0,0.0,0.0,0.0,0.0,0.0,0.0,0.0,0.0,0.0,3.2601,0.0,0.0,0.0,0.0,0.0,0.0,0.0,0.0,0.0,3.6303,3.6303,3.7781,3.8218,3.7414,3.7103,3.6509,3.5657,3.6757,3.7364,3.7483,3.8674,3.9266,3.9351,3.9259,3.9555,4.0121,3.9471,3.9268,3.9234,3.7973,3.7127,3.6575,0.0,3.56,3.56,3.56,3.6512,3.8227,4.1255,4.2422,4.2777,4.3826,4.5568,4.7411,4.8376,4.956,5.0862,5.235,5.3264,5.3771,5.367,5.2892,5.1572,4.9373,4.8054,4.63,4.2861,4.2066,4.161,4.035,4.0696,4.1762,4.3426,0.0,4.824,5.1944,5.3771,5.526,5.6647,5.6799,5.6562,5.5919,5.5784,5.575,5.5817,5.4482,5.4211,5.5497,5.4346,5.389,5.4431,5.3822,5.3501,5.3501,5.3501,5.3501,5.3501,5.3501,5.345,5.3315,5.252,5.1758,5.1014,5.027,4.9593,4.9001,4.9001,4.8623,4.8035,4.8035,4.7119,4.5841,4.5841,4.5298,4.4615,0.0,0.0,0.0,0.0,0.0,0.0,0.0,0.0,0.0,0.0,3.2601,3.2913,0.0,0.0,0.0,0.0,0.0,0.0,0.0,0.0,0.0,3.6303,3.7412,3.8167,3.8433,3.6591,3.5743,3.5939,3.4751,3.4489,3.5081,3.4726,3.4895,3.5436,3.4827,3.4619,3.4742,3.4624,3.4912,3.5453,3.5182,3.5385,3.5785,3.565,0.0,0.0,3.56,3.6197,3.754,4.1085,4.3159,4.4666,4.7225,4.8714,4.9915,5.1944,5.2706,5.323,5.4718,5.5226,5.5175,5.4549,5.2892,5.0828,4.8612,4.6046,0.0,4.1779,4.0899,4.04,4.0146,4.0696,4.21,4.4857,0.0,0.0,0.0,0.0,5.5835,0.0,0.0,0.0,0.0,0.0,0.0,0.0,0.0,5.4515,5.4769,5.4549,5.4194,5.3704,5.3568,5.3501,5.3501,5.3501,5.3501,5.3501,5.3501,5.3162,5.2486,5.1742,5.0997,5.0253,4.9509,0.0,4.9001,4.9001,4.8886,4.8739,4.8739,4.7824,4.6531,4.6531,4.5713,4.4615,0.0,0.0,0.0,0.0,0.0,0.0,0.0,3.0577,3.1715,3.4211,3.4124,3.3995,3.438,3.4045,3.3807,0.0,0.0,0.0,0.0,0.0,0.0,3.561,3.6678,3.7083,3.6684,3.5764,3.4894,3.4079,0.0,3.3186,3.278,3.2797,3.2797,3.2763,3.2408,3.2459,3.2831,3.2831,3.3254,3.3964,3.4336,3.4709,3.5081,3.5447,0.0,0.0,3.6079,3.6468,3.7303,4.0612,4.2455,4.4181,4.8731,5.0947,5.2164,5.3636,5.4346,5.4888,5.5987,5.6562,5.6579,5.5463,5.3467,5.0997,4.802,0.0,0.0,4.1001,4.0367,4.0096,4.0096,4.0696,0.0,4.3623,0.0,0.0,0.0,0.0,0.0,0.0,0.0,0.0,0.0,0.0,0.0,0.0,0.0,5.5581,5.5192,5.4448,5.3873,5.3518,5.3501,5.3501,5.3501,5.3501,5.3501,5.3501,5.3501,5.3293,5.2846,5.2107,5.155,5.1171,5.0408,5.0107,5.0107,5.0107,4.9861,4.9469,4.9469,4.8793,4.7791,4.738,4.6784,4.6144,0.0,0.0,0.0,0.0,0.0,0.0,0.0,3.1452,3.2706,3.5642,3.5591,3.5279,3.5279,3.4546,3.399,0.0,0.0,0.0,0.0,0.0,0.0,0.0,0.0,0.0,3.5084,0.0,0.0,3.2934,3.3249,0.0,0.0,0.0,0.0,0.0,3.1258,3.1512,3.2056,3.2056,3.2496,0.0,0.0,3.4353,0.0,0.0,0.0,0.0,0.0,3.661,3.7149,3.9948,4.129,4.2753,4.8052,5.111,5.2892,5.3467,5.4735,5.6105,5.685,5.7679,5.7966,5.6342,5.3991,5.115,4.7597,4.479,0.0,4.0502,4.0096,4.0045,3.9893,4.0324,4.1018,0.0,4.2557,4.4519,0.0,0.0,0.0,0.0,0.0,0.0,0.0,0.0,0.0,0.0,0.0,0.0,5.5497,5.4364,5.375,5.375,5.3898,5.3979,5.3979,5.3979,5.3979,5.3979,5.3979,5.3768,5.3366,5.2787,5.233,5.1918,5.1351,5.1086,5.1086,5.1086,5.0746,5.0204,5.0204,4.9748,4.9013,4.8182,4.7802,4.7576,0.0,0.0,0.0,0.0,0.0,0.0,0.0,3.1549,3.3115,3.4894,3.5752,3.6174,3.6174,3.5408,3.4601,0.0,0.0,0.0,0.0,0.0,0.0,0.0,0.0,0.0,0.0,0.0,0.0,3.5025,3.3928,0.0,0.0,0.0,0.0,0.0,0.0,3.1241,3.1292,3.1292,0.0,0.0,0.0,0.0,0.0,0.0,0.0,0.0,0.0,3.6022,3.6778,3.9065,4.0038,4.0815,4.388,4.7426,5.0422,5.0473,0.0,0.0,5.7594,5.8829,5.9387,5.7239,5.3991,5.0524,4.7479,0.0,4.1153,4.0282,4.0096,3.991,3.9208,3.9157,3.9665,4.1068,4.1373,4.298,0.0,0.0,0.0,0.0,0.0,0.0,0.0,0.0,0.0,0.0,0.0,0.0,5.4719,5.4567,5.4513,5.4513,5.5161,5.5495,5.5495,5.5495,5.5495,5.5495,5.5495,5.4748,5.3402,5.3331,5.2537,5.1192,5.1121,5.1086,0.0,5.1086,5.0998,5.0824,5.0824,5.0361,4.9613,4.8798,4.8171,4.7576,0.0,0.0,0.0,0.0,0.0,0.0,3.065,3.1458,3.2816,3.544,3.6083,3.6468,3.6978,3.6285,3.5257,3.3917,0.0,0.0,0.0,0.0,0.0,0.0,0.0,0.0,0.0,0.0,3.4329,3.4818,3.4313,0.0,0.0,0.0,0.0,0.0,0.0,0.0,3.119,3.119,0.0,0.0,0.0,0.0,0.0,0.0,0.0,0.0,0.0,0.0,3.6575,3.7793,3.8339,3.8705,3.9674,4.2927,4.6857,4.9382,5.2892,5.6512,5.8789,6.048,6.1188,5.9412,5.5692,5.168,4.8675,0.0,4.2003,4.1279,4.1105,4.0804,3.9668,3.9838,4.0079,3.9909,3.9884,4.1231,4.5179,0.0,0.0,0.0,0.0,0.0,0.0,0.0,0.0,0.0,0.0,0.0,5.527,5.5259,5.5262,5.5262,5.5535,5.5706,5.5706,5.5706,5.5706,5.5706,5.5706,5.5131,5.4066,5.4066,5.345,5.2353,5.2353,5.2353,0.0,5.2353,5.2327,5.2273,5.2273,5.2113,5.1751,5.0949,5.0201,4.9441,0.0,0.0,0.0,0.0,0.0,2.8521,3.0705,3.125,3.2406,3.5202,3.5771,3.6229,3.707,3.6413,3.544,3.4266,3.3935,0.0,0.0,0.0,0.0,0.0,0.0,0.0,0.0,0.0,3.5042,3.5394,3.562,3.5744,0.0,0.0,0.0,0.0,0.0,0.0,0.0,0.0,0.0,0.0,0.0,0.0,0.0,0.0,0.0,0.0,0.0,0.0,0.0,0.0,0.0,3.7458,3.7691,3.9919,4.3204,4.6852,5.1367,5.5654,5.7968,6.0198,6.1559,6.0052,5.6144,5.1944,0.0,0.0,4.2426,4.1917,4.181,4.1435,4.0272,4.0503,4.0537,3.9657,3.9501,4.0599,4.3788,4.4595,0.0,0.0,0.0,0.0,0.0,0.0,0.0,0.0,0.0,0.0,5.6376,5.6385,5.6277,5.6059,5.6268,5.6385,5.6385,5.6385,5.6385,5.6385,5.6143,5.5615,5.4834,5.4574,5.4014,5.3185,5.3185,5.3185,0.0,5.3185,5.3078,5.2858,5.2858,5.2858,5.2747,5.194,5.1279,5.0674,0.0,0.0,0.0,0.0,0.0,0.0,2.9971,3.0889,3.1984,3.3605,3.4509,3.5353,3.6211,3.5536,3.5023,3.5004,3.4266,0.0,0.0,0.0,0.0,0.0,0.0,0.0,0.0,0.0,3.6933,3.7465,3.8274,3.866,3.8608,3.7092,3.6686,3.7142,0.0,0.0,0.0,0.0,0.0,0.0,0.0,0.0,3.7173,0.0,0.0,0.0,0.0,0.0,0.0,0.0,0.0,0.0,0.0,3.9102,3.9643,4.2154,4.832,5.4338,5.4345,5.7222,5.9876,5.8383,5.4507,5.0619,0.0,4.5174,4.181,4.181,4.181,4.1563,4.0846,4.0704,4.0704,4.0666,4.0666,4.146,4.3681,4.5329,0.0,0.0,0.0,0.0,0.0,0.0,0.0,0.0,0.0,0.0,5.795,5.7973,5.7637,5.6912,5.7589,5.7973,5.7973,5.7973,5.7973,5.7955,5.7166,5.6359,5.5556,5.4766,5.3977,5.3185,0.0,5.3185,0.0,5.3185,5.2729,5.1995,5.1995,5.1995,5.1903,5.1114,5.082,5.0674,0.0,0.0,0.0,0.0,0.0,0.0,0.0,2.9237,3.0143,3.1201,3.2509,3.3665,3.4504,3.5367,3.5899,3.5899,3.4614,0.0,0.0,0.0,0.0,0.0,0.0,0.0,0.0,3.5847,3.7199,3.8243,3.9049,3.9453,3.9435,3.8386,3.7699,3.725,3.5882,0.0,0.0,0.0,0.0,0.0,0.0,3.7781,3.7685,0.0,0.0,0.0,0.0,0.0,0.0,0.0,0.0,0.0,0.0,0.0,0.0,4.1415,4.5311,4.987,5.2135,5.4046,5.5293,5.4852,5.1896,4.8889,4.7876,4.521,4.2959,4.2959,4.2959,4.2612,4.1461,4.1707,4.1767,4.0851,4.1106,4.1851,0.0,0.0,0.0,0.0,0.0,0.0,0.0,0.0,0.0,0.0,0.0,0.0,5.7997,5.7997,5.7886,5.766,5.7886,5.774,5.7189,5.7189,5.6895,5.6345,5.6088,5.5556,5.4766,5.4528,5.3959,0.0,5.3185,5.3185,5.3185,5.3185,5.3059,5.2821,5.2821,5.2821,5.2803,5.2546,5.2087,5.1499,0.0,0.0,0.0,0.0,0.0,0.0,0.0,2.8076,2.8911,2.9849,3.1133,3.2433,3.3665,3.5,3.5936,3.6266,3.5349,0.0,0.0,0.0,0.0,0.0,0.0,0.0,3.4711,3.6224,3.772,3.9212,4.0345,4.0895,4.0877,4.038,3.9627,3.8689,3.7539,3.65,0.0,0.0,0.0,0.0,3.8515,3.8771,3.82,0.0,0.0,0.0,0.0,0.0,0.0,0.0,0.0,0.0,0.0,0.0,0.0,0.0,4.3076,4.6011,4.9283,5.1186,5.2307,5.2307,5.0048,4.7718,4.7204,4.5241,4.3515,4.3515,4.3515,4.3153,4.2013,4.245,4.263,4.1497,4.1943,4.2562,0.0,0.0,0.0,0.0,0.0,0.0,0.0,0.0,0.0,0.0,0.0,0.0,5.7997,5.7997,5.7997,5.7997,5.7997,5.7611,5.6822,5.6804,5.64,5.5614,5.528,5.4876,5.4399,5.4087,5.3683,0.0,5.3185,5.3185,0.0,5.3185,5.3185,5.3185,5.3185,5.3023,5.2747,5.2747,5.205,5.1004,0.0,0.0,0.0,0.0,0.0,0.0,0.0,2.7408,2.8314,2.9386,3.0351,3.1624,3.3431,3.4491,3.5426,3.6229,0.0,0.0,0.0,0.0,0.0,0.0,0.0,0.0,3.5575,3.6949,3.8506,4.0202,4.1934,4.2783,4.2783,4.2783,4.2214,4.1113,3.957,3.8138,3.6982,3.7723,3.7632,3.7105,3.904,3.9368,0.0,0.0,0.0,0.0,0.0,0.0,0.0,0.0,0.0,0.0,0.0,0.0,0.0,0.0,0.0,0.0,0.0,4.8545,5.027,5.0215,4.8452,4.6764,4.6764,4.5021,0.0,4.3496,4.346,4.3185,4.2506,4.2947,4.3185,4.2506,4.3002,4.3515,0.0,0.0,0.0,0.0,0.0,0.0,0.0,0.0,0.0,0.0,0.0,0.0,5.7997,5.7997,5.796,5.7923,5.7905,5.7538,5.673,5.6675,5.6235,5.5409,5.4675,5.4308,5.4289,5.3555,5.3185,0.0,5.3185,5.3185,5.3185,5.3185,5.3185,5.3185,5.3151,5.2656,5.1977,5.194,5.0987,4.9684,0.0,0.0,0.0,0.0,0.0,0.0,0.0,0.0,0.0,0.0,3.0205,3.1455,3.1916,3.4376,3.6083,0.0,0.0,0.0,0.0,0.0,0.0,0.0,0.0,0.0,3.5593,3.8045,3.9619,4.0202,4.2495,4.3615,4.3615,4.3615,4.3049,4.1974,4.0983,3.969,3.8256,3.8473,3.8436,3.8308,3.8786,3.8872,0.0,0.0,0.0,0.0,3.8707,3.9625,0.0,0.0,0.0,0.0,0.0,0.0,0.0,0.0,4.2158,4.2598,4.3975,0.0,4.5057,4.4452,4.3864,4.3442,0.0,4.2983,4.2763,4.3369,4.3002,4.2708,4.313,4.2873,4.2708,4.3149,4.3386,4.3515,0.0,0.0,0.0,0.0,0.0,0.0,0.0,0.0,0.0,0.0,0.0,5.7997,5.7997,5.7997,5.7721,5.7097,5.7079,5.6693,5.5886,5.5262,5.4564,5.3775,5.3573,5.3482,5.3482,5.3277,5.3185,5.3185,5.3185,5.3185,5.3185,5.3185,5.3185,5.3151,5.2527,5.216,5.1922,5.1316,5.0839,5.0435,0.0,0.0,0.0,0.0,0.0,0.0,0.0,0.0,0.0,0.0,0.0,3.1025,3.1359,3.4321,0.0,0.0,0.0,0.0,0.0,0.0,0.0,0.0,0.0,3.5872,3.6458,3.8358,3.9754,4.0614,4.2687,4.3706,4.3724,4.4088,4.3561,4.2249,4.1075,3.9863,3.8726,3.9093,3.9038,3.8726,3.9093,0.0,0.0,0.0,0.0,0.0,3.8707,3.9496,0.0,4.0967,4.1919,4.28,0.0,0.0,0.0,0.0,4.2268,4.2947,4.3386,4.3515,4.3387,4.2947,4.2837,4.2745,4.2378,4.2304,4.2323,4.2396,0.0,4.1882,4.2323,4.2341,4.2433,4.2873,4.3259,0.0,0.0,0.0,0.0,0.0,0.0,0.0,0.0,0.0,0.0,0.0,0.0,5.6895,5.6895,5.6895,5.6693,5.6253,5.5886,5.5482,5.5042,5.462,5.4014,5.3185,5.3185,5.3185,5.3185,5.3185,5.3004,5.2656,5.2656,5.2435,5.2142,5.2509,5.2656,5.2619,5.216,5.1756,5.1353,5.0545,4.9994,4.9591,0.0,0.0,0.0,0.0,0.0,0.0,0.0,0.0,0.0,0.0,0.0,0.0,0.0,0.0,0.0,0.0,0.0,0.0,0.0,0.0,0.0,0.0,3.6541,3.6868,3.7676,3.8597,3.9774,4.1279,4.302,4.3882,4.3882,4.469,4.4085,4.2231,4.0616,3.9441,3.8744,3.9423,3.9313,3.8762,3.9441,0.0,0.0,0.0,0.0,0.0,0.0,0.0,0.0,4.0689,4.146,4.2029,4.1462,0.0,0.0,0.0,0.0,0.0,4.3515,4.3515,4.3478,4.3349,4.3331,4.313,4.2451,4.2194,4.1992,0.0,0.0,4.1168,4.1407,4.2029,0.0,0.0,0.0,0.0,0.0,0.0,0.0,0.0,0.0,0.0,0.0,0.0,0.0,0.0,0.0,5.5614,5.5614,5.5614,5.5559,5.5409,5.4748,5.4344,5.4216,5.4216,5.3867,5.3185,5.3185,5.3151,5.3023,5.3023,5.2582,5.1811,0.0,0.0,5.0857,5.1536,5.1811,5.1793,5.1665,5.1206,5.0508,4.9682,4.893,4.8306,0.0,0.0,0.0,0.0,0.0,0.0,0.0,0.0,0.0,0.0,0.0,0.0,0.0,0.0,0.0,0.0,0.0,0.0,0.0,0.0,0.0,3.834,3.7694,3.7694,3.8505,3.9974,4.1187,4.2121,4.4415,4.5535,4.5553,4.6361,4.515,4.2231,4.0616,3.9441,3.8707,3.8836,3.8817,3.8707,3.8836,0.0,0.0,0.0,0.0,0.0,0.0,0.0,0.0,4.0029,4.0616,4.137,4.1937,0.0,0.0,0.0,0.0,0.0,4.3515,4.3515,4.3332,4.2653,4.2488,4.2451,4.2323,4.1772,4.1644,0.0,0.0,0.0,0.0,4.3222,4.3534,0.0,0.0,0.0,0.0,0.0,0.0,0.0,0.0,0.0,0.0,0.0,0.0,0.0,0.0,5.5614,5.5614,5.5614,5.528,5.4601,5.4454,5.4069,5.339,5.339,5.3314,5.3185,5.3185,5.2839,5.2179,5.2179,5.1738,5.0986,0.0,5.0912,5.082,5.093,5.0986,5.0912,5.0235,4.9886,4.9684,4.882,4.8416,4.8306,0.0,0.0,0.0,0.0,0.0,0.0,0.0,0.0,0.0,0.0,0.0,0.0,0.0,0.0,0.0,0.0,0.0,0.0,0.0,0.0,3.8891,3.9331,3.8982,3.8964,3.9331,4.049,4.1717,4.2947,4.4507,4.5259,4.5259,4.5186,4.3901,4.1625,4.0891,3.9863,3.8707,3.8707,3.8707,3.8707,0.0,0.0,0.0,0.0,0.0,0.0,0.0,0.0,0.0,0.0,4.0139,4.0598,4.1405,0.0,0.0,0.0,0.0,0.0,4.2965,4.3167,4.3296,4.2506,4.2635,4.2818,4.2396,4.2011,4.1827,4.2139,0.0,0.0,0.0,0.0,4.4176,4.6305,0.0,0.0,0.0,0.0,0.0,0.0,0.0,0.0,5.4987,5.4601,5.4473,5.4913,5.4546,5.4308,5.4308,5.4308,5.3922,5.3133,5.3096,5.2711,5.1922,5.1903,5.2123,5.2546,5.2105,5.172,5.1353,5.1353,5.0912,5.0141,0.0,4.9884,4.9499,4.9958,5.0141,5.0105,4.9739,4.961,4.95,4.8618,4.8306,4.8306,0.0,0.0,0.0,0.0,0.0,0.0,0.0,0.0,0.0,0.0,0.0,0.0,0.0,0.0,0.0,0.0,0.0,0.0,0.0,3.8248,3.9056,3.9845,4.0084,4.0267,4.0451,4.1075,4.2176,4.3773,4.4397,4.4691,4.469,4.4066,4.2928,4.137,4.1168,4.0306,3.8964,3.8781,3.8707,3.8707,0.0,0.0,0.0,0.0,0.0,0.0,0.0,0.0,0.0,0.0,0.0,0.0,0.0,0.0,0.0,4.1956,4.2451,4.28,4.2194,4.2598,4.302,4.2213,4.2763,4.3387,4.2965,4.2855,4.2745,4.2306,0.0,0.0,0.0,4.3663,0.0,4.8398,0.0,0.0,0.0,0.0,0.0,0.0,5.2949,5.328,5.5133,5.4032,5.339,5.3812,5.328,5.2858,5.2656,5.2656,5.2362,5.1738,5.1536,5.1132,5.0508,5.0141,5.0527,5.1701,5.1096,5.071,5.0508,5.0508,5.0068,4.9317,4.9317,4.8912,4.8361,4.9022,4.9317,4.9317,4.9317,4.9317,4.9225,4.8545,4.8306,4.8306,0.0,0.0,0.0,0.0,0.0,0.0,0.0,0.0,0.0,0.0,0.0,0.0,0.0,0.0,0.0,0.0,0.0,0.0,0.0,3.8248,3.9056,3.9845,4.0616,4.1352,4.2103,4.2176,4.3002,4.4617,4.4654,4.4691,4.4691,4.4636,4.3773,4.2176,4.1425,4.0616,3.9753,3.9019,3.8707,3.8707,3.8707,0.0,0.0,0.0,0.0,0.0,0.0,0.0,0.0,0.0,0.0,0.0,0.0,0.0,4.0212,4.0967,4.1224,4.126,4.1187,4.1772,4.2194,4.1389,4.2359,4.3681,4.4378,4.4526,4.4727,4.5406,0.0,0.0,0.0,4.5792,4.7663,5.0215,0.0,0.0,0.0,0.0,5.5923,5.4473,5.4252,5.4308,5.4473,5.372,5.2913,5.2215,5.2105,5.1756,5.1022,5.0967,5.0949,5.0894,5.016,4.9739,4.9702,4.8141,4.8544,5.0894,5.0839,5.0398,4.9702,4.9702,4.9205,4.8398,4.8398,4.8361,4.8306,4.8379,4.8398,4.8398,4.8398,4.8398,4.8398,4.8324,4.8306,4.8306,0.0,0.0,0.0,0.0,0.0,0.0,0.0,0.0,0.0,0.0,0.0,0.0,0.0,0.0,0.0,0.0,0.0,0.0,0.0,3.7496,3.8539,3.9827,4.0671,4.1242,4.1535,4.2047,4.3094,4.4691,4.4691,4.4691,4.4691,4.4195,4.3094,4.1535,4.1242,4.0396,3.9129,3.8836,3.8707,3.8707,3.8707,3.8707,0.0,0.0,0.0,0.0,0.0,0.0,0.0,0.0,3.8707,3.8836,3.9643,3.99,4.0065,4.0857,4.1095,4.1032,4.0692,4.1597,4.247,4.1871,4.2969,4.4364,4.5005,4.5904,4.6785,4.7339,4.8035,0.0,0.0,0.0,4.9152,5.0843,5.2749,0.0,5.435,5.4932,5.4895,5.3794,5.3665,5.3463,5.2949,5.2619,5.2123,5.1316,5.1242,5.1114,5.082,5.0802,5.0325,4.9279,4.8948,4.8402,4.7621,4.6782,4.693,4.8066,4.8365,4.8323,4.8067,4.8563,4.8618,4.8306,4.8306,4.8306,4.8306,4.8306,4.8306,4.8306,4.8306,4.8306,4.8306,4.8306,4.8306,4.8306,0.0,0.0,0.0,0.0,0.0,0.0,0.0,0.0,0.0,0.0,0.0,0.0,0.0,0.0,0.0,0.0,0.0,0.0,3.5826,3.6905,3.8098,3.946,4.0543,4.1095,4.1095,4.1901,4.2965,4.4323,4.458,4.4563,4.4305,4.3754,4.291,4.1846,4.1334,4.0618,3.979,3.9019,3.8854,3.9056,3.8799,3.8707,0.0,0.0,0.0,0.0,0.0,0.0,0.0,0.0,3.8829,3.8922,3.9475,3.9587,3.9656,4.028,4.0474,4.0403,4.0159,4.1295,4.2444,4.1851,4.3366,4.5259,4.6266,4.7473,4.8645,4.9717,5.0246,5.0057,4.8598,0.0,0.0,0.0,5.3136,5.4503,5.4773,5.4685,5.4285,5.3492,5.3054,5.2645,5.22,5.1925,5.1485,5.0806,5.0509,5.025,4.9991,4.975,4.9066,4.7936,4.7639,4.709,4.6206,4.573,4.56,4.5847,4.6403,4.6774,4.691,4.7444,4.7922,4.8268,4.8268,4.8416,4.8675,4.8675,4.8604,4.8495,4.8345,4.8306,4.8306,4.8306,4.8383,4.8477,0.0,0.0,0.0,0.0,0.0,0.0,0.0,0.0,0.0,0.0,0.0,0.0,0.0,0.0,0.0,0.0,0.0,0.0,3.4949,3.6541,3.7841,3.8652,4.0215,4.1095,4.1095,4.1882,4.269,4.3515,4.4305,4.4287,4.3515,4.3515,4.3496,4.3423,4.1809,4.1534,4.2103,3.9717,3.9166,3.9808,3.9038,3.8707,3.8799,0.0,0.0,0.0,0.0,0.0,0.0,0.0,3.9093,3.9093,3.9093,3.8923,3.878,3.9022,3.9112,3.9192,3.9529,4.0806,4.1913,4.1125,4.3391,4.6366,4.8445,4.9232,5.0235,5.2783,5.1347,4.9381,4.8583,4.9037,0.0,5.1745,5.4069,5.5675,5.5694,5.5282,5.469,5.3889,5.2725,5.2125,5.2456,5.1767,5.1119,5.0708,4.9879,4.9031,4.823,4.7424,4.6996,4.6996,4.6218,4.5798,4.5798,4.4995,4.4593,4.4612,4.5415,4.6002,4.639,4.639,4.7071,4.8192,4.8192,4.8678,4.9489,4.9489,4.9265,4.8863,4.8477,4.8306,4.8306,4.8306,4.8568,4.8913,0.0,0.0,0.0,0.0,0.0,0.0,0.0,0.0,0.0,0.0,0.0,0.0,0.0,0.0,0.0,0.0,0.0,0.0,3.4949,3.5463,3.6376,3.7804,3.9405,4.0267,4.0267,4.1607,4.269,4.3515,4.3736,4.3718,4.3515,4.3515,4.2892,4.1791,4.1297,4.06,3.9717,3.9001,3.8836,3.9074,3.9405,3.9533,3.9625,0.0,0.0,0.0,0.0,0.0,0.0,0.0,0.0,0.0,3.945,3.9821,4.0146,3.9614,3.9895,4.0306,4.0022,4.0722,4.1831,4.3006,0.0,0.0,0.0,5.0459,5.0729,0.0,5.3058,5.2074,5.1825,0.0,0.0,5.2384,5.3522,5.4486,5.4799,5.4223,5.3654,5.3409,5.2523,5.1759,5.1273,5.1024,5.0337,4.9041,4.8701,4.8197,4.7405,4.7141,4.6746,4.6161,4.5916,4.5634,4.5311,4.484,4.4726,4.4943,4.4941,4.5305,4.5993,4.6557,4.7009,4.7368,4.7368,4.7834,4.864,4.9244,4.9431,4.9311,4.9187,4.9139,4.9139,4.9139,4.9218,4.9326,0.0,0.0,0.0,0.0,0.0,0.0,0.0,0.0,0.0,0.0,2.7272,2.8212,0.0,0.0,0.0,0.0,0.0,0.0,3.4491,3.4821,3.5738,3.7437,3.8726,3.9863,4.0818,4.1791,4.2543,4.302,4.3332,4.3515,4.3515,4.3515,4.2983,4.2047,4.1735,4.1038,4.0084,3.9441,3.9368,3.968,3.9827,3.9958,4.0169,0.0,0.0,0.0,0.0,0.0,0.0,0.0,0.0,0.0,3.9797,4.0072,4.0306,3.9916,4.0168,4.0536,4.032,4.112,0.0,4.3917,4.6105,4.8606,5.1288,0.0,0.0,0.0,5.4299,5.3722,5.3722,5.3145,0.0,5.2816,5.3252,5.3658,5.3946,5.34,5.2963,5.2963,5.2054,5.116,5.0487,5.0122,4.9451,4.8244,4.7857,4.7464,4.6989,4.6628,4.6209,4.5745,4.5726,4.557,4.5302,4.5107,4.5107,4.5302,4.5096,4.5255,4.5726,4.6076,4.6506,4.6989,4.7293,4.7705,4.8218,4.8933,4.9221,4.9208,4.9056,4.9206,4.9451,4.9112,4.9306,4.9746,0.0,0.0,0.0,0.0,0.0,0.0,0.0,0.0,0.0,0.0,2.7099,2.7812,0.0,0.0,0.0,0.0,0.0,0.0,0.0,3.4472,3.5665,3.7419,3.8487,4.0084,4.2359,4.2341,4.2304,4.2304,4.3112,4.346,4.3404,4.3478,4.3477,4.3401,4.261,4.2222,4.2071,4.0525,4.0286,4.0914,4.0249,4.013,4.0523,4.2118,0.0,0.0,0.0,0.0,0.0,0.0,0.0,0.0,4.0139,3.997,3.9829,4.0061,4.0196,4.032,4.0556,4.1835,4.3335,4.4297,4.7105,0.0,5.1654,5.4414,5.6406,5.553,0.0,5.4376,5.4376,5.3087,5.2269,5.3068,5.3203,5.3203,5.3203,5.2828,5.2508,5.2431,5.1337,5.0382,4.9877,4.917,4.8531,4.8029,4.7308,4.6865,4.6797,4.6028,4.5594,4.5594,4.5594,4.5594,4.5594,4.5594,4.5594,4.5594,4.5594,4.5594,4.5586,4.5273,4.5733,4.6836,4.7644,4.799,4.8048,4.8608,4.8838,4.8834,4.8553,4.8909,4.9509,4.872,4.9162,5.0159,0.0,0.0,0.0,0.0,0.0,0.0,0.0,0.0,0.0,0.0,0.0,0.0,0.0,0.0,0.0,0.0,0.0,0.0,0.0,3.3972,3.5092,3.7401,4.0084,4.2066,4.3222,4.2616,4.2304,4.2304,4.3112,4.3167,4.2561,4.3185,4.3295,4.2924,4.2114,4.1563,4.1116,4.009,3.9758,3.9965,4.0421,4.0634,4.0791,4.1788,4.1613,0.0,0.0,0.0,0.0,0.0,0.0,0.0,4.0406,4.0833,4.1201,4.0581,4.0905,4.1443,4.1492,4.2297,0.0,4.5797,4.8865,5.1635,5.2683,5.3491,5.378,5.2914,5.3126,5.3491,5.3491,5.3164,5.2991,5.3164,5.3203,5.3203,5.3203,5.2544,5.1811,5.1188,5.0272,4.9369,4.8576,4.8356,4.7943,4.7212,4.7,4.6605,4.5913,4.571,4.5594,4.5594,4.5594,4.5594,4.5594,4.5594,4.5594,4.5594,4.5594,4.5594,4.5594,4.5541,4.5637,4.5932,4.6797,4.7154,4.7269,4.8692,4.9268,4.9325,4.9916,5.0278,5.0413,5.0221,5.034,5.0565,0.0,0.0,0.0,0.0,0.0,0.0,0.0,0.0,0.0,0.0,0.0,0.0,0.0,0.0,0.0,0.0,0.0,0.0,0.0,0.0,3.4908,3.7382,4.0212,4.1919,4.2341,4.1937,4.1552,4.1148,4.1956,4.2323,4.2323,4.3293,4.3611,4.3342,4.2698,4.2063,4.1422,4.0531,4.016,4.0198,4.0639,4.0892,4.1124,4.1939,4.1838,4.1301,4.1475,0.0,0.0,0.0,0.0,0.0,0.0,0.0,4.1085,4.0631,4.1123,4.1788,4.1788,4.272,0.0,4.7355,0.0,5.2135,5.301,5.2876,5.2442,5.1981,5.2577,5.3203,5.3203,5.2856,5.2452,5.2068,5.1645,5.1241,5.0818,5.0375,4.9933,4.951,4.9048,4.8452,4.7605,4.7528,4.7182,4.6336,4.6278,4.6086,4.5614,4.5594,4.5594,4.5594,4.5594,4.5594,4.5594,4.5594,4.5594,4.5594,4.5594,4.5594,4.5594,4.5594,4.5594,4.5633,4.6086,4.6278,4.6374,4.7663,4.8432,4.8817,4.9279,4.9971,5.0654,5.0231,5.0346,5.0712,0.0,0.0,0.0,0.0,0.0,0.0,0.0,0.0,0.0,0.0,0.0,0.0,0.0,0.0,0.0,0.0,0.0,0.0,0.0,0.0,0.0,3.7401,3.968,4.0948,4.1095,4.0948,4.0579,3.99,4.0607,4.1448,4.2419,4.3361,4.3834,4.3942,4.3402,4.2753,4.198,4.0973,4.0621,4.0746,4.0613,4.0794,4.1227,4.1905,4.1904,4.1585,4.1585,4.1585,4.147,4.0746,0.0,0.0,0.0,0.0,4.0496,4.0496,4.1008,4.1604,4.175,4.3124,4.5316,4.8586,5.0452,0.0,5.2568,5.2222,5.1692,5.1692,5.2279,5.2779,5.2779,5.2183,5.1433,5.0606,4.9875,4.9106,4.8221,4.8105,4.8048,4.7913,4.7894,4.7567,4.6759,4.6682,4.6374,4.5652,4.5594,4.5594,4.5594,4.5594,4.5594,4.5594,4.5594,4.5594,4.5594,4.5594,4.5594,4.5594,4.5594,4.5594,4.5594,4.5594,4.5594,4.5594,4.5594,4.5594,4.5671,4.6547,4.7298,4.7913,4.8048,4.9067,5.0385,4.9663,4.9952,5.0712,0.0,0.0,0.0,0.0,0.0,0.0,0.0,0.0,0.0,0.0,2.7869,2.8443,0.0,0.0,0.0,0.0,0.0,0.0,3.3752,0.0,0.0,3.7456,3.9145,4.0396,4.1077,4.0414,4.001,3.99,4.0237,4.1225,4.2824,4.2913,4.327,4.3802,4.296,4.2316,4.1735,4.017,3.9901,4.0477,3.9786,3.9937,4.0622,4.0737,4.0734,4.0669,4.0669,4.0669,4.0669,4.0535,4.0496,0.0,0.0,0.0,4.0496,4.0496,4.0573,4.0843,4.1585,0.0,4.6075,0.0,4.9567,4.9952,0.0,0.0,5.0856,0.0,5.0962,5.1039,5.1039,5.0943,5.0567,4.9702,4.9471,4.9106,4.8221,4.8105,4.7836,4.7135,4.7058,4.6721,4.5864,4.5768,4.5729,4.5614,4.5594,4.5594,4.5594,4.5594,4.5594,4.5594,4.5594,4.5594,4.5594,4.5594,4.5594,4.5594,4.5594,4.5594,4.5594,4.5594,4.5594,4.5594,4.5594,4.5594,4.5671,4.6547,4.6962,4.7135,4.7836,4.8702,4.9548,4.9433,4.9952,5.0712,0.0,0.0,0.0,0.0,0.0,0.0,0.0,0.0,0.0,0.0,0.0,2.9003,0.0,0.0,0.0,3.2546,3.3005,3.3421,3.377,3.4908,3.572,3.6083,3.7239,3.8248,3.9074,3.8877,3.9011,3.9456,3.976,4.0885,4.2728,4.2704,4.3585,4.5126,4.3532,4.2713,4.2431,4.07,3.9919,3.9842,3.9938,3.9919,3.9823,3.9823,4.0112,4.0439,3.9996,4.0112,4.0496,4.0496,4.0496,4.0496,4.0496,0.0,0.0,0.0,4.0854,4.1527,4.2835,4.4028,4.5374,0.0,4.8336,4.8894,4.976,0.0,5.0558,5.0067,5.0366,5.0712,5.0712,5.0308,4.9683,4.8817,4.8298,4.7682,4.6817,4.6701,4.6567,4.6201,4.6163,4.6009,4.5633,4.5594,4.5594,4.5594,4.5594,4.5594,4.5594,4.5152,4.4874,4.4874,4.4874,4.4874,4.4874,4.5364,4.5594,4.5594,4.5594,4.5594,4.5594,4.5594,4.5594,4.5594,4.5594,4.5594,4.5633,4.6009,4.6471,4.6942,4.7298,4.7952,4.874,4.9221,4.9644,5.0029,0.0,0.0,0.0,0.0,0.0,0.0,0.0,0.0,0.0,0.0,0.0,0.0,0.0,0.0,0.0,0.0,3.3458,3.3807,3.3807,3.4362,3.4784,3.5004,3.5844,3.667,3.7474,3.7956,3.8497,3.9112,3.9529,4.0829,4.2926,4.2794,4.4057,4.6371,4.4314,4.3162,4.2662,4.115,4.0285,3.995,4.0131,3.9958,3.9611,3.9611,3.9977,4.0419,3.9823,3.9996,0.0,0.0,0.0,0.0,4.0496,4.0496,0.0,0.0,0.0,4.1797,0.0,0.0,4.4355,4.5855,4.7028,4.7971,0.0,0.0,4.9856,0.0,4.9586,5.0029,5.0029,4.9683,4.9106,4.824,4.7432,4.6605,4.5729,4.5594,4.5594,4.5594,4.5594,4.5594,4.5594,4.5594,4.5594,4.5594,4.5594,4.5498,4.5287,4.4643,4.4201,4.3989,4.3989,4.3989,4.3989,4.4836,4.5267,4.5267,4.5498,4.5594,4.5594,4.5594,4.5594,4.5594,4.5594,4.5594,4.5594,4.5594,4.597,4.6567,4.6567,4.7201,4.8182,4.8836,4.9356,4.9817,0.0,0.0,0.0,0.0,0.0,0.0,0.0,0.0,0.0,0.0,0.0,0.0,3.2297,3.2546,3.2913,3.3678,3.377,3.3807,3.3807,3.3844,3.4197,3.4968,3.5844,0.0,3.7474,3.8512,3.9075,3.9112,3.9754,4.1359,4.3814,4.3299,4.4434,4.6799,4.5019,4.3355,4.1808,4.0893,4.095,4.1519,3.9988,3.9785,4.0439,4.0439,4.0458,4.0496,4.0458,0.0,0.0,0.0,0.0,0.0,0.0,4.0496,4.0496,0.0,0.0,0.0,0.0,4.2527,0.0,4.422,4.572,0.0,0.0,0.0,0.0,4.8182,4.8202,4.824,4.824,4.8875,4.9106,4.824,4.7432,4.6605,4.5729,4.5594,4.5594,4.5594,4.5594,4.5594,4.5594,4.5594,4.5594,4.5594,4.5594,4.5248,4.4412,4.4316,4.3951,4.3181,4.3162,4.3162,4.3162,4.3951,4.4374,4.4374,4.521,4.5594,4.5594,4.5594,4.5594,4.5594,4.5594,4.5594,4.5594,4.5594,4.5633,4.5671,4.5671,4.6663,4.8105,4.8144,4.9202,5.0635,0.0,0.0,0.0,0.0,0.0,0.0,0.0,0.0,0.0,0.0,0.0,0.0,0.0,3.3073,3.3495,3.377,3.3807,3.3807,3.3807,3.3807,3.4174,3.4954,3.5298,3.6177,3.7719,3.8334,3.9013,3.9742,4.0138,4.1104,4.2551,4.2351,4.3047,4.4432,4.3816,4.3489,4.3278,4.1324,4.0689,4.0912,4.0304,3.9938,3.9669,3.9104,3.9246,0.0,0.0,0.0,0.0,0.0,0.0,0.0,4.0496,4.015,3.9631,3.9065,3.9669,4.0573,0.0,0.0,0.0,4.3816,4.4778,4.5528,4.6635,4.7528,4.7952,4.7451,4.774,4.7952,4.7432,4.7586,4.7702,4.7375,4.6624,4.5951,4.5633,4.5594,4.5594,4.5594,4.5594,4.5594,4.5594,4.5594,4.5594,4.5594,4.5594,4.546,4.5152,4.4605,4.4162,4.3874,4.3874,4.4143,4.471,4.4998,4.5133,4.5152,4.546,4.5594,4.5594,4.5594,4.5594,4.5594,4.5594,4.5594,4.5594,4.5594,4.5594,4.5594,4.5594,4.6317,4.7394,4.7913,4.8856,4.9952,0.0,0.0,0.0,0.0,0.0,0.0,0.0,0.0,2.9627,3.0703,0.0,0.0,0.0,0.0,3.3807,3.3807,3.3807,3.3807,3.3807,3.4064,3.4435,3.4986,3.5536,3.6487,3.7869,3.8204,3.8942,4.0101,4.0096,4.0681,4.1788,4.1788,4.2277,4.3066,4.2489,4.2854,4.3797,4.2382,4.1631,4.1362,4.1046,4.0796,4.0469,0.0,0.0,0.0,0.0,0.0,0.0,0.0,0.0,0.0,0.0,3.9534,3.8738,3.8161,3.8988,0.0,3.9746,0.0,0.0,0.0,0.0,4.3835,4.5297,0.0,4.6355,4.6086,4.6451,4.6759,4.6509,4.6471,4.6567,4.6846,4.6163,4.5594,4.5594,4.5594,4.5594,4.5594,4.5594,4.5594,4.5594,4.5594,4.5594,4.5594,4.5594,0.0,4.519,4.4355,4.3758,4.347,4.347,4.3739,4.4316,4.4605,4.4767,4.4767,4.5325,4.5594,4.5594,4.5594,4.5594,4.5594,4.5594,4.5594,4.5594,4.5594,4.5594,4.5594,4.5594,4.6124,4.7,4.7798,4.8644,4.951,0.0,0.0,0.0,0.0,0.0,0.0,0.0,0.0,3.1089,3.2018,0.0,0.0,0.0,0.0,0.0,3.3807,3.3825,3.3844,3.3844,3.4564,3.5023,3.5078,3.6648,3.7659,3.7951,3.8211,3.8931,4.011,3.9578,4.0162,4.175,4.175,4.222,4.2951,4.1247,4.1439,4.3047,4.3797,4.372,4.3028,0.0,4.2258,4.297,0.0,0.0,0.0,4.2047,4.175,0.0,4.0785,0.0,0.0,0.0,3.8738,3.8027,3.7988,3.8604,0.0,0.0,0.0,0.0,0.0,0.0,0.0,4.2854,0.0,4.3297,4.4105,4.4278,4.4566,4.5421,4.5575,4.5883,4.6721,4.6144,4.5594,4.5594,4.5594,4.5594,4.5594,4.5594,4.5594,4.5594,4.5594,4.5594,4.5594,4.5594,4.5229,4.4374,4.3605,4.2797,4.1942,4.1904,4.1904,4.1904,4.2758,4.3162,4.3181,4.4825,4.5594,4.5594,4.5594,4.5594,4.5594,4.5594,4.5594,4.5594,4.5594,4.5594,4.5594,4.5594,4.6124,4.6981,4.7778,4.8625,4.951,0.0,0.0,0.0,0.0,0.0,2.9834,3.101,3.1481,3.1999,0.0,0.0,0.0,3.3793,3.4307,3.4417,3.3844,3.4325,3.4674,3.4674,3.4876,3.5536,3.6762,3.7452,3.8206,3.9112,3.9445,3.9853,4.0389,4.0234,4.0419,4.0854,4.0854,4.0997,4.1208,4.0727,4.0439,4.0315,3.9912,0.0,4.2912,4.0835,4.0854,0.0,0.0,0.0,0.0,0.0,4.0777,4.1681,0.0,4.1189,4.1835,0.0,0.0,3.8681,3.743,3.8123,0.0,3.8238,0.0,0.0,0.0,0.0,0.0,0.0,0.0,0.0,4.3258,4.3893,4.4374,4.4624,4.5171,4.5691,4.5913,4.5768,4.5594,4.5594,4.5594,4.5594,4.5594,4.5594,4.5594,4.5594,4.5594,4.5594,0.0,4.5594,4.5498,4.5248,4.5037,4.4806,4.4547,4.4547,4.4547,4.4547,4.4786,4.4921,4.4921,4.5383,4.5594,4.5594,4.5594,4.5594,4.5594,4.5594,4.5594,4.5594,4.5594,4.5594,4.5594,4.5594,4.6124,4.6923,4.7154,4.8144,4.9433,0.0,0.0,0.0,2.9886,3.0621,3.1289,3.1987,3.2638,3.3161,0.0,0.0,0.0,3.3807,3.4853,3.5206,3.4362,3.4729,3.5004,3.5004,3.5334,3.6025,3.7114,3.7963,3.884,3.9797,3.9631,3.9878,4.0496,4.0169,3.9996,4.0015,4.0342,4.0131,3.9457,3.9457,3.94,3.9207,3.7623,0.0,0.0,4.0796,0.0,0.0,4.0854,4.1066,0.0,0.0,0.0,4.272,4.1873,4.2027,0.0,0.0,0.0,0.0,0.0,0.0,0.0,0.0,0.0,0.0,0.0,0.0,0.0,4.1066,4.1008,4.0893,0.0,4.1893,4.2316,4.2643,4.3431,4.4124,4.4489,4.4844,4.519,4.5556,4.5594,4.5594,4.5594,4.5594,4.5594,4.5594,4.5594,4.5594,4.5594,4.5594,4.5441,4.5075,4.5402,4.5441,4.5075,4.5056,4.5056,4.5056,4.5056,4.5056,4.5056,4.5441,4.5594,4.5594,4.5594,4.5594,4.5594,4.5594,4.5594,4.5594,4.5594,4.5594,4.5594,4.5594,4.5913,4.6394,4.6778,4.774,4.8913,0.0,0.0,2.9401,3.0268,3.1952,3.3089,3.2888,3.3773,3.4355,0.0,3.4082,3.4082,3.4082,3.5404,3.5991,3.5206,3.5059,3.5041,3.5151,3.5905,3.6491,3.6807,3.837,3.9486,4.0091,3.9376,3.9503,4.0496,3.9785,3.9438,3.9457,4.0073,3.9515,3.8007,3.7892,3.8238,3.8738,0.0,0.0,4.015,4.1027,4.2066,0.0,0.0,4.2643,4.3932,4.3316,4.3624,4.4182,4.347,4.2585,0.0,0.0,0.0,0.0,0.0,3.929,0.0,0.0,0.0,0.0,0.0,0.0,0.0,4.013,3.9841,3.941,0.0,3.9381,3.9765,4.04,4.1354,4.2297,4.2989,4.3855,4.4701,4.5498,4.5594,4.5594,4.5594,4.5594,4.5594,4.5594,4.5594,4.5594,4.5594,4.5594,4.5267,4.4489,4.519,4.5248,4.447,4.4432,4.4432,4.4432,4.4432,4.4432,4.4451,4.5229,4.5594,4.5594,4.5594,4.5594,4.5594,4.5594,4.5594,4.5594,4.5594,4.5594,4.5594,4.5594,4.5594,4.5691,4.6471,4.7336,4.8221,0.0,2.9786,3.0445,3.2215,3.3106,3.3896,3.4844,3.4945,3.5117,3.572,3.5807,3.5807,3.5807,3.6101,3.6229,3.6064,3.5389,3.5298,3.6009,3.6411,3.6924,3.764,3.9094,3.9972,4.0101,4.014,4.0276,4.0496,4.0342,4.0265,4.0265,3.9765,3.8988,3.7969,3.7276,3.6692,3.6346,0.0,0.0,3.7526,3.8392,0.0,4.2931,4.1354,4.1393,4.2354,4.2893,4.3624,4.4278,4.4124,4.3066,4.1673,0.0,0.0,0.0,0.0,0.0,0.0,0.0,0.0,0.0,0.0,0.0,0.0,3.8941,3.9576,4.0004,0.0,3.9873,4.1143,4.0593,4.2316,4.3662,4.3181,4.4355,4.5421,4.5575,4.5594,4.5594,4.5594,4.5594,4.5594,4.5594,4.5594,4.5594,4.5594,4.5594,4.5537,4.5364,4.5518,4.5518,4.5344,4.5344,4.5344,4.5344,4.5344,4.5344,4.5344,4.5518,4.5594,4.5594,4.5594,4.5594,4.5594,4.5594,4.5594,4.5594,4.5594,4.5594,4.5594,4.5594,4.5594,4.5614,4.5787,4.6817,4.8125,3.0067,3.0412,3.1022,3.3054,3.4089,3.4867,3.5491,3.5976,3.6395,3.685,3.7603,3.7804,3.6997,3.7606,3.7771,3.6978,3.6505,3.6266,3.6303,3.6557,3.6951,3.7526,3.8767,3.9719,4.0285,4.0422,4.0496,4.0496,4.0496,4.0073,3.9238,3.9284,3.8392,3.6757,3.6712,3.6712,3.6796,0.0,3.8738,3.9892,3.9892,0.0,4.1143,4.0689,4.1046,4.1865,4.2297,4.3258,4.4105,4.2835,4.3031,0.0,0.0,4.093,4.1786,0.0,4.076,4.1311,0.0,0.0,0.0,4.0941,0.0,0.0,0.0,3.9858,3.9883,3.8984,3.9121,3.9396,3.9354,0.0,4.1345,4.1736,4.2516,4.3498,4.4767,4.496,4.496,4.496,4.4605,4.4509,4.4913,4.496,4.5133,4.5575,4.5594,4.5594,4.5594,4.5594,4.5594,4.5594,4.5594,4.5594,4.5594,4.5594,4.5594,4.5594,4.5594,4.5594,4.5594,4.5594,4.5594,4.5594,4.5594,4.5594,4.5594,4.5594,4.5643,4.5685,4.5637,4.5883,4.6257,4.6325,4.7407,4.8855,3.0716,3.1046,3.1637,3.3521,3.4704,3.5465,3.5706,3.6474,3.7125,3.7456,3.8906,3.946,3.8319,3.9203,3.9512,3.8521,3.7754,3.7253,3.7015,3.6922,3.6974,3.7171,3.8423,3.9493,4.0239,4.0419,4.0496,4.0496,4.0342,3.9592,3.8257,3.8623,3.7796,3.6,3.6327,3.7142,3.82,0.0,0.0,4.2104,0.0,4.1181,4.0304,4.0631,4.1181,4.1788,4.1788,4.2777,4.3739,4.1689,4.2903,4.453,4.0242,4.1334,0.0,0.0,0.0,0.0,0.0,0.0,0.0,0.0,0.0,4.1244,0.0,0.0,0.0,3.9468,3.8484,0.0,0.0,0.0,0.0,0.0,0.0,0.0,0.0,4.3624,0.0,4.4259,4.3297,4.3047,4.4182,4.4297,4.4662,4.5537,4.5594,4.5594,4.5594,4.5594,4.5594,4.5594,4.5594,4.5594,4.5594,4.5594,4.5594,4.5594,4.5594,4.5594,4.5594,4.5594,4.5594,4.5594,4.5637,4.5635,4.5643,4.5645,4.572,4.5815,4.5685,4.618,4.697,4.7068,4.8186,4.9653,3.2116,3.2293,3.2725,3.4087,3.4431,3.4911,3.6055,3.5687,3.5811,3.7309,3.8906,4.0102,4.0618,4.0212,4.0396,4.1644,3.8714,3.7567,3.9381,0.0,3.7375,3.7112,3.9172,4.0031,3.9457,4.015,4.0496,4.0496,3.9785,3.9342,3.913,3.768,3.7257,3.7661,3.625,3.6949,3.915,0.0,3.8834,0.0,4.0931,4.2585,0.0,4.2181,4.1712,4.1788,4.1788,4.2431,4.3181,0.0,4.3063,4.3165,0.0,4.1853,4.2194,0.0,0.0,0.0,0.0,0.0,0.0,0.0,4.2342,0.0,0.0,0.0,4.133,3.8932,0.0,0.0,0.0,0.0,0.0,0.0,0.0,0.0,4.0154,4.1143,4.2643,4.4124,4.2228,4.1728,4.4066,4.4297,4.4662,4.5537,4.5594,4.5594,4.5594,4.5594,4.5594,4.5594,4.5594,4.5594,4.5594,4.5594,4.5594,4.5594,4.5594,4.5594,4.5594,4.5594,4.5594,4.5603,4.5737,4.5789,4.5783,4.585,4.5867,4.5886,4.5815,4.635,4.7169,4.7189,4.8283,4.9785,3.2896,3.3279,3.3836,3.4611,3.5173,3.5688,3.6215,3.7184,3.8267,3.9441,4.0983,4.2121,0.0,0.0,0.0,0.0,0.0,3.9733,0.0,0.0,3.9138,3.9581,3.8946,3.9023,3.9977,3.9881,3.9804,3.9804,3.895,3.8546,3.8527,3.7796,3.7392,3.7219,3.65,0.0,3.8584,0.0,3.9361,0.0,0.0,0.0,0.0,4.17,4.1046,4.1104,4.1623,4.2047,4.2277,0.0,4.2287,0.0,0.0,0.0,0.0,0.0,0.0,0.0,0.0,0.0,0.0,0.0,0.0,0.0,4.1422,0.0,4.1475,0.0,0.0,0.0,0.0,0.0,0.0,0.0,4.0499,0.0,0.0,0.0,4.0538,0.0,0.0,0.0,4.3451,4.4028,4.4259,4.4162,4.4586,4.4855,4.4855,4.4855,4.5075,4.5575,4.5594,4.5594,4.5594,4.5594,4.5594,4.5594,4.568,4.5723,4.5723,4.5757,4.5763,4.5783,4.5834,4.5861,4.5861,4.59,4.5955,4.6001,4.5983,4.6796,4.8037,4.861,4.9582,5.0618,3.3695,0.0,3.4324,3.4614,3.5202,3.5771,3.6229,3.8157,3.9937,4.0967,4.2304,0.0,4.3773,4.3497,0.0,0.0,4.2971,4.2287,0.0,0.0,4.0578,0.0,0.0,0.0,0.0,3.9988,3.9873,3.9631,3.8546,3.8238,3.8661,3.7969,3.768,3.7738,3.7507,3.8027,3.9065,0.0,3.9977,4.0593,4.1643,4.1912,4.1604,4.0804,4.0362,4.0246,4.0893,4.1258,4.1373,4.0989,4.1731,0.0,4.0049,0.0,0.0,0.0,0.0,0.0,4.1621,0.0,0.0,0.0,0.0,0.0,0.0,0.0,0.0,0.0,0.0,0.0,0.0,0.0,0.0,0.0,0.0,4.0588,0.0,0.0,0.0,0.0,0.0,0.0,0.0,4.3835,4.4066,4.347,4.397,4.4201,4.397,4.4182,4.4586,4.5229,4.5479,4.5594,4.5594,4.5594,4.562,4.5668,4.5754,4.5803,4.5832,4.5877,4.5899,4.5903,4.5932,4.5944,4.5967,4.5992,4.6075,4.6207,4.6676,4.7569,4.8701,4.9439,5.0367,5.1268,3.4789,3.433,0.0,3.3844,3.3862,3.4431,3.6046,3.7698,3.9313,0.0,0.0,0.0,0.0,0.0,0.0,0.0,0.0,4.4852,4.6108,0.0,4.1208,0.0,0.0,4.1635,0.0,0.0,4.1316,4.0458,3.8815,3.8834,4.0362,3.7892,3.8046,4.0342,3.9554,4.0123,4.1615,4.0816,4.0477,4.0439,3.9708,3.8911,3.8334,0.0,4.0015,3.9342,3.9381,0.0,0.0,4.1489,4.1797,0.0,0.0,0.0,0.0,0.0,0.0,0.0,0.0,0.0,0.0,4.1426,0.0,0.0,0.0,0.0,4.2148,0.0,0.0,0.0,0.0,0.0,0.0,4.0235,0.0,0.0,0.0,0.0,0.0,0.0,0.0,0.0,0.0,4.3835,4.4297,0.0,4.4297,4.3951,4.3181,4.3874,4.4316,4.4335,4.5171,4.5594,4.5594,4.5594,4.5665,4.579,4.5796,4.5825,4.5894,4.5899,4.5899,4.5907,4.6039,4.6087,4.6091,4.6226,4.6289,4.6465,4.8144,4.8847,4.8886,4.8926,4.998,5.1387,0.0,0.0,0.0,0.0,0.0,3.5151,3.685,3.8909,0.0,0.0,0.0,0.0,0.0,4.8141,4.8642,0.0,0.0,4.7838,4.8039,4.5721,0.0,0.0,0.0,4.3159,0.0,0.0,0.0,4.1354,3.9681,3.9719,4.1316,3.9335,3.9469,4.1316,4.0477,4.0419,0.0,0.0,0.0,0.0,0.0,3.8931,3.9669,0.0,3.9188,3.8584,3.9708,3.9554,0.0,3.9854,4.0142,4.0087,3.9684,4.0321,4.1178,4.0803,4.0936,0.0,0.0,0.0,4.168,4.1933,0.0,0.0,0.0,0.0,0.0,0.0,0.0,0.0,0.0,0.0,4.3418,4.2518,4.2379,0.0,0.0,0.0,0.0,0.0,0.0,0.0,0.0,0.0,0.0,0.0,4.1477,0.0,4.1401,4.272,4.3739,4.4278,4.5152,4.5643,4.5725,4.5725,4.5777,4.5876,4.5959,4.6008,4.6036,4.6119,4.6152,4.6173,4.6203,4.6226,4.6245,4.6289,4.6308,4.6426,4.7578,4.8398,4.9023,5.0156,5.0918,5.1406,3.6252,0.0,0.0,0.0,0.0,0.0,3.8153,0.0,0.0,0.0,4.7223,0.0,4.9903,0.0,5.0579,0.0,5.0616,5.0043,4.9344,4.7825,0.0,4.7285,4.5565,0.0,0.0,0.0,0.0,0.0,4.095,4.1046,4.2643,4.0969,4.0931,4.2258,4.197,4.1189,4.0169,0.0,4.0604,0.0,0.0,3.8007,0.0,0.0,3.8411,3.8527,0.0,3.8642,3.8084,3.8642,3.9034,3.922,3.8816,3.9664,4.0772,4.0684,4.0916,4.125,4.1445,4.1367,0.0,4.2207,4.2012,0.0,4.2676,0.0,0.0,0.0,0.0,0.0,0.0,0.0,0.0,4.3398,4.3027,4.2656,0.0,4.2226,0.0,0.0,0.0,0.0,0.0,0.0,0.0,0.0,0.0,0.0,0.0,4.2201,4.3407,4.3954,4.5102,4.5757,4.583,4.585,4.5881,4.5978,4.6069,4.6119,4.6174,4.6268,4.6308,4.6308,4.6308,4.6308,4.6308,4.6308,4.6308,4.6426,4.7598,4.8418,4.9062,5.0469,5.1152,5.1406,0.0,0.0,0.0,0.0,3.7771,0.0,0.0,0.0,4.6159,0.0,4.9334,5.0875,5.0952,5.1669,5.2296,5.2695,5.2282,0.0,5.0246,4.9714,0.0,0.0,4.74,4.6824,4.5761,0.0,0.0,0.0,0.0,4.2739,4.4259,4.2547,4.222,4.3124,4.3855,0.0,3.9515,4.1989,4.1123,3.8046,3.7142,3.6365,3.5827,3.6462,3.7757,3.9015,3.7353,3.7238,3.7873,3.7911,3.8488,3.9179,3.9307,3.9976,4.0602,3.9962,4.0458,4.1016,4.0195,4.0566,4.1406,4.2246,4.2422,0.0,0.0,0.0,4.4766,0.0,0.0,0.0,0.0,0.0,0.0,4.293,4.3183,4.3125,0.0,0.0,0.0,0.0,0.0,0.0,0.0,0.0,0.0,0.0,0.0,0.0,0.0,4.2265,4.3269,4.3404,4.5023,4.5903,4.5907,4.5907,4.5981,4.6113,4.6113,4.6175,4.6308,4.6308,4.6308,4.6308,4.6308,4.6308,4.6308,4.6348,4.6367,4.6543,4.8281,4.8984,4.9121,4.9941,5.0742,5.1406,3.867,3.9316,3.9866,0.0,3.9717,3.9863,0.0,0.0,0.0,0.0,5.016,5.2029,5.2919,5.3756,5.4278,5.4446,5.376,0.0,0.0,0.0,0.0,4.9844,4.8585,4.7757,4.7465,4.6236,0.0,4.5152,0.0,4.3671,4.4239,4.1912,4.1643,4.3085,4.2643,4.1604,4.0285,4.1585,4.1258,3.9727,3.8257,3.8296,3.9027,0.0,3.7392,3.8277,3.7834,3.7007,3.6231,3.6827,3.718,3.7504,3.8268,3.9146,4.0006,4.0511,4.0927,4.1152,4.0937,4.1035,4.1543,4.3008,4.2871,4.2793,0.0,0.0,0.0,0.0,0.0,0.0,0.0,0.0,0.0,0.0,0.0,0.0,0.0,0.0,0.0,0.0,0.0,0.0,0.0,0.0,0.0,0.0,0.0,0.0,0.0,0.0,4.3359,4.3408,4.5023,4.5959,4.6045,4.6045,4.6115,4.6247,4.6247,4.6268,4.6308,4.6308,4.6308,4.6308,4.6308,4.6308,4.6348,4.6992,4.7266,4.7441,4.9199,5.0234,5.0781,5.1016,5.1211,5.1406,3.968,0.0,0.0,4.1682,0.0,0.0,4.2599,0.0,0.0,4.8581,5.1168,0.0,5.3256,5.4146,5.4675,5.4539,5.3759,0.0,5.2163,0.0,0.0,4.9615,4.8884,4.8257,4.7754,4.6341,0.0,4.5603,0.0,4.3726,4.3365,4.2181,4.1739,4.197,4.2258,4.1277,3.9431,3.9931,4.0277,4.0342,3.8661,3.8565,0.0,3.7392,3.7,3.7392,3.7026,3.6288,3.5571,3.6055,3.6723,3.7455,3.805,3.9159,4.0326,4.0832,4.1083,4.1191,4.1191,4.1191,4.1504,4.2812,4.2754,4.2754,4.4121,4.4726,4.5,0.0,4.5293,4.5488,0.0,0.0,0.0,0.0,0.0,0.0,0.0,0.0,0.0,0.0,0.0,0.0,0.0,0.0,0.0,0.0,0.0,0.0,0.0,0.0,4.3493,4.3522,4.518,4.6113,4.6198,4.6569,4.6595,4.6308,4.6308,4.6308,4.6308,4.6308,4.6308,4.6308,4.6308,4.6523,4.6914,4.7402,4.7812,4.8301,4.9668,5.0683,5.1406,5.1406,5.1406,5.1406,0.0,0.0,0.0,0.0,0.0,0.0,0.0,4.6544,0.0,4.9693,0.0,5.3588,5.2836,5.3701,5.4155,5.376,0.0,5.2043,5.0923,5.1318,5.0577,4.8365,4.8596,4.8315,4.7313,4.6174,0.0,0.0,0.0,4.306,4.2319,4.2462,4.1816,4.0554,4.197,0.0,0.0,3.8161,3.9008,4.0227,3.8873,3.8257,3.8084,3.7334,3.6904,3.6615,3.6038,3.575,3.5662,3.5593,3.6684,3.8063,3.8229,3.9379,4.0703,4.0937,4.1083,4.1191,4.1191,4.1191,4.1387,4.2207,4.2402,4.2637,4.3496,4.4375,4.5,4.5,4.5605,4.5703,0.0,0.0,0.0,0.0,0.0,0.0,0.0,0.0,0.0,0.0,0.0,0.0,0.0,0.0,0.0,0.0,0.0,0.0,0.0,0.0,4.3521,4.3691,4.5273,4.623,4.6465,4.7109,4.7109,4.6465,4.6348,4.6308,4.6308,4.6308,4.6367,4.6465,4.6465,4.6953,4.7773,4.7891,4.8457,4.9297,5.0058,5.0781,5.1406,5.1406,5.1406,5.1406,0.0,0.0,0.0,0.0,0.0,4.6703,4.8046,4.9052,5.0121,5.1399,5.3207,5.4179,5.3656,5.3778,5.3741,5.3347,5.2523,0.0,0.0,0.0,0.0,4.9192,4.8163,4.7498,4.7293,4.6174,4.5588,0.0,0.0,4.1732,4.2899,4.062,3.9881,4.0481,4.0138,0.0,3.9073,3.9073,0.0,3.9534,3.9919,3.9669,3.9053,3.8892,3.795,3.6769,3.7353,3.7103,3.6392,3.5752,3.622,3.7262,3.7996,3.8516,3.9144,4.0586,4.1083,4.1191,4.1191,4.1191,4.1387,4.2207,4.2402,4.2637,4.3496,4.4375,4.5,4.5,4.5117,4.5351,4.5762,0.0,0.0,0.0,0.0,0.0,0.0,0.0,0.0,0.0,0.0,0.0,0.0,0.0,0.0,0.0,0.0,0.0,0.0,0.0,4.2948,0.0,4.4687,4.5918,0.0,0.0,4.6816,4.7363,4.6641,4.6308,4.6308,4.6308,4.6699,4.7363,4.7363,4.7871,4.873,4.9453,5.0234,5.0976,5.1133,5.1289,5.1406,5.1406,5.1406,5.1406,0.0,0.0,0.0,0.0,0.0,0.0,0.0,5.1971,0.0,5.2073,5.2897,5.3479,5.3251,5.3381,5.3406,5.3231,5.2029,5.1279,5.1279,5.0106,4.9202,4.8741,4.7673,0.0,4.6429,4.4713,4.355,4.2945,0.0,4.0088,4.1705,3.9438,3.8834,3.9595,0.0,3.9354,0.0,0.0,0.0,4.0585,4.0535,4.0265,3.9881,3.9457,3.8777,3.8046,3.8007,3.8027,3.7926,3.7109,3.7503,3.8387,3.8832,3.9375,4.0012,4.0851,4.115,4.1191,4.1191,4.1191,4.1387,4.2207,4.2402,4.2637,4.3496,4.4375,4.5,4.5,4.5351,4.5801,4.6211,4.5234,0.0,0.0,0.0,0.0,0.0,0.0,0.0,0.0,0.0,0.0,0.0,0.0,0.0,0.0,0.0,0.0,0.0,0.0,4.3262,0.0,0.0,0.0,4.6914,0.0,4.7402,4.6933,4.6953,4.6738,4.6328,4.6777,4.7207,4.7637,4.8086,4.8769,4.9648,5.0488,5.1055,5.1406,5.1406,5.1406,5.1406,5.1406,5.1699,5.207,0.0,4.4311,0.0,0.0,4.9074,0.0,5.24,5.4142,5.4638,5.2992,5.2952,5.3011,5.2827,5.2875,5.2856,5.2683,5.1452,5.0616,5.0442,4.9606,4.874,4.7885,4.7058,4.6297,4.5614,4.3607,4.1774,0.0,0.0,0.0,4.0465,3.9142,3.8512,3.8464,0.0,0.0,0.0,0.0,4.0219,4.1219,4.0708,4.0496,4.0439,3.9804,3.9457,3.9227,3.8719,3.8854,3.923,3.8806,3.9073,3.9617,3.9655,4.0257,4.0957,4.1152,4.1191,4.1191,4.1191,4.1191,4.1348,4.1992,4.2266,4.2578,4.3262,4.4238,4.5,4.5,4.5683,4.6308,4.6308,4.5586,0.0,0.0,0.0,0.0,0.0,0.0,0.0,0.0,0.0,0.0,0.0,0.0,0.0,0.0,0.0,0.0,4.1504,0.0,0.0,0.0,0.0,4.6289,4.6855,0.0,4.8125,4.7129,4.7637,4.7519,4.6875,4.7558,4.7988,4.8183,4.8887,4.9668,5.0508,5.1133,5.1406,5.1426,5.1601,5.168,5.168,5.168,5.2226,5.2988,0.0,0.0,0.0,0.0,0.0,0.0,5.2665,5.4373,5.5564,5.5388,5.4756,5.4037,5.3248,5.2471,5.1741,5.1,5.0789,5.0366,4.9567,4.8702,4.7865,4.7049,4.6173,4.5691,4.5594,4.4377,4.217,0.0,0.0,4.1901,0.0,4.0327,3.9212,0.0,0.0,0.0,0.0,3.9804,4.0054,3.9592,4.0246,4.0496,4.0496,4.0419,3.9938,3.9381,4.0035,3.9842,3.943,4.0198,4.0073,3.961,3.9613,3.9808,4.0176,4.0976,4.1191,4.1191,4.1191,4.1191,4.1211,4.1289,4.1855,4.2422,4.25,4.3808,4.5,4.5,4.5683,4.6308,4.6308,4.5586,4.5039,0.0,0.0,0.0,0.0,0.0,0.0,0.0,0.0,0.0,0.0,4.3359,0.0,0.0,4.3086,0.0,0.0,0.0,0.0,4.3672,4.4629,4.6269,4.8633,4.8027,4.8437,4.9824,4.9121,4.873,4.8652,4.873,4.9219,4.9961,5.0039,5.0547,5.1289,5.1367,5.1406,5.1484,5.2266,5.2578,5.2578,5.2578,5.3125,5.3887,0.0,0.0,0.0,0.0,0.0,0.0,0.0,5.4024,5.4203,5.4203,5.4376,5.4376,5.401,5.2741,5.1587,5.077,5.0231,4.9548,4.8682,4.7836,4.7241,4.6915,4.6077,4.5594,4.5594,4.416,4.2231,0.0,0.0,0.0,0.0,0.0,0.0,0.0,0.0,3.9181,3.9496,3.9488,3.9681,4.0054,4.0362,4.0496,4.0496,4.0496,4.0304,4.0054,4.0381,4.0285,4.0084,4.0552,4.0519,4.0322,4.0401,4.0546,4.0742,4.1094,4.1191,4.1191,4.1191,4.1191,4.1445,4.2441,4.2949,4.3457,4.4492,4.5273,4.5781,4.5781,4.6055,4.6308,4.6308,4.6016,4.5781,4.5781,0.0,0.0,0.0,0.0,0.0,0.0,0.0,0.0,0.0,0.0,0.0,0.0,0.0,0.0,0.0,0.0,0.0,4.4473,0.0,4.7051,4.8105,4.8808,4.9258,4.9414,4.9609,4.9414,4.8926,4.9433,5.0137,5.0918,5.0918,5.1406,5.2187,5.2187,5.248,5.3008,5.334,5.3476,5.3476,5.3476,5.4023,5.4785,4.9562,0.0,5.0867,0.0,5.2724,5.2499,5.4239,5.3972,5.3587,5.3587,5.3895,5.401,5.376,5.2433,5.1221,5.0394,4.999,4.9202,4.7836,4.7451,4.7038,4.654,4.5923,0.0,4.5594,4.4182,4.2615,4.088,4.0337,0.0,0.0,0.0,0.0,0.0,3.9042,3.9123,3.9731,3.9423,3.9758,4.0496,4.0496,4.0496,4.0496,4.0496,4.0496,4.0496,4.0496,4.0534,4.0588,4.0696,4.0794,4.0874,4.0964,4.1082,4.1191,4.1191,4.1367,4.1543,4.1543,4.1738,4.2226,4.3398,4.3887,4.4394,4.5644,4.6113,4.6308,4.6308,4.6308,4.6308,4.6308,4.6308,4.6308,4.6308,0.0,0.0,0.0,0.0,0.0,0.0,4.3262,4.2715,4.2773,4.334,0.0,0.0,0.0,0.0,0.0,0.0,0.0,0.0,0.0,0.0,4.7988,4.9453,5.0019,4.9648,5.0254,5.0234,4.9668,5.0273,5.0859,5.1406,5.168,5.2129,5.2715,5.2988,5.3437,5.4023,5.4277,5.4375,5.4375,5.4375,5.4922,5.5644,4.9858,5.0727,5.1689,5.2978,5.3192,5.3481,5.4357,5.4491,5.4472,5.4472,5.3741,5.2895,5.2019,5.1202,5.0366,4.949,5.0183,4.9606,4.7077,4.7663,4.7355,0.0,0.0,4.5594,4.5594,4.4739,4.347,4.1769,0.0,0.0,4.0526,0.0,3.7989,3.8093,3.9731,3.9558,3.8151,3.9769,4.0496,4.0496,4.0496,4.0496,4.0496,4.0496,4.0496,4.0496,4.0496,4.0595,4.0721,4.0779,4.0899,4.0994,4.0996,4.1082,4.1191,4.1191,4.1758,4.2383,4.2383,4.3008,4.3672,4.3691,4.4355,4.498,4.5019,4.5683,4.6308,4.6308,4.6308,4.6308,4.6308,4.6308,4.6308,4.6308,0.0,0.0,0.0,0.0,0.0,0.0,4.5723,4.5566,4.3848,4.3691,0.0,0.0,0.0,0.0,0.0,0.0,0.0,4.373,4.623,0.0,4.8887,4.9766,5.0586,5.1367,5.1387,5.1387,5.1367,5.1387,5.1387,5.1445,5.2305,5.2695,5.2773,5.3633,5.3984,5.4082,5.4941,5.5273,5.5273,5.5273,5.584,5.6465,5.125,5.248,5.3607,5.4019,5.4087,5.4184,5.4453,5.3491,5.2741,5.2741,5.201,5.1395,5.1106,5.0837,5.0346,0.0,4.9106,4.8355,0.0,4.6586,4.6172,4.5614,4.5594,4.5594,4.5594,4.5325,4.4374,4.2701,0.0,0.0,0.0,4.0312,3.97,3.9734,4.0262,4.0196,3.9731,4.0258,4.0496,4.0496,4.0496,4.0496,4.0496,4.0496,4.0496,4.0496,4.0496,4.0595,4.0701,4.0779,4.1273,4.1804,4.1281,4.1171,4.1426,4.2578,4.2656,4.2539,4.3125,4.3496,4.3848,4.4433,4.4785,4.5156,4.5742,4.6094,4.6308,4.6308,4.6308,4.6308,4.6308,4.6308,4.6308,4.6308,4.6308,0.0,0.0,0.0,0.0,0.0,4.4726,4.4316,4.375,4.4238,0.0,0.0,0.0,0.0,0.0,0.0,0.0,0.0,4.7734,0.0,4.9785,5.0605,5.1445,5.2285,5.2285,5.2598,5.3164,5.3164,5.3164,5.3183,5.3476,5.3926,5.4492,5.4765,5.5234,5.5801,5.6074,5.6191,5.6191,5.6191,5.6367,5.6562,5.1904,5.3049,5.3914,5.3587,5.353,5.3626,5.3953,5.2818,5.2019,5.2346,5.1664,5.1029,5.0731,5.0712,0.0,4.9471,4.8894,4.8105,4.6962,4.6394,4.5932,4.5614,4.5594,4.5594,4.5594,4.5594,0.0,4.3547,4.3758,4.341,4.2521,4.1466,4.0804,4.0496,4.0492,4.0512,4.0496,4.0496,4.0496,4.0496,4.0496,4.0496,4.0496,4.0496,4.0523,4.0581,4.0581,4.0891,4.1317,4.1344,4.2017,4.2801,4.2675,4.2402,4.2285,4.3008,4.3281,4.3496,4.4043,4.4433,4.4805,4.5351,4.5488,4.5625,4.6172,4.6308,4.6308,4.6308,4.6308,4.6308,4.6308,4.6308,4.6308,4.6308,4.6308,4.6308,4.6308,0.0,0.0,0.0,0.0,0.0,0.0,4.4863,4.5137,0.0,0.0,0.0,0.0,0.0,4.6894,4.7109,4.8594,4.9648,5.0195,5.1328,5.2168,5.2695,5.3027,5.3476,5.4004,5.4004,5.4004,5.4023,5.4355,5.4805,5.5332,5.5644,5.6113,5.6601,5.6601,5.6601,5.6601,5.6601,5.6601,5.6601,5.1904,5.2654,5.3029,0.0,5.2135,5.2442,5.326,5.2577,5.2269,5.3087,5.2385,5.1529,5.0789,5.0712,5.0346,4.9471,0.0,0.0,4.7077,4.6923,4.6509,4.5633,4.5594,4.5594,4.5594,4.5594,4.5171,4.4297,4.3547,4.3143,4.3085,4.2277,4.1434,4.0584,4.0538,4.0535,4.0612,4.0535,4.0573,4.0669,4.055,4.0543,4.0612,4.0623,4.0731,4.0878,4.0889,4.1548,4.2383,4.2383,4.3016,4.3926,4.4668,4.4433,4.3711,4.291,4.3789,4.5019,4.5078,4.5683,4.6308,4.6308,4.6308,4.6308,4.6308,4.6308,4.6308,4.6308,4.6308,4.6308,4.6308,4.6308,4.6308,4.6308,4.6308,4.6308,4.6308,0.0,0.0,0.0,0.0,0.0,4.6308,4.5625,4.5527,0.0,0.0,0.0,0.0,0.0,4.7441,4.6504,4.8945,5.0312,5.0371,5.1973,5.2812,5.2891,5.3769,5.418,5.418,5.418,5.418,5.4238,5.5039,5.539,5.5449,5.6269,5.6601,5.6601,5.6601,5.6601,5.6601,5.6601,5.6601,5.6601,0.0,0.0,5.4126,5.3914,5.4395,5.4876,5.5068,5.3857,5.2972,5.3164,5.1914,5.0914,5.0731,5.0712,5.0346,4.9471,4.9394,4.8952,4.7894,4.7231,4.6509,4.5633,4.5594,4.5594,4.5594,4.5594,4.5171,4.4297,4.4105,4.3701,4.3104,4.2893,4.2327,4.1453,4.0811,4.0973,4.1747,4.0869,4.128,4.2371,4.1033,4.1017,4.1813,4.1964,4.2274,4.2625,4.2724,4.2997,4.3283,4.3283,4.3914,4.4609,4.4141,4.4785,4.5644,4.5449,4.5195,4.5156,4.5801,4.6133,4.6308,4.6308,4.6308,4.6308,4.6308,4.6308,4.6308,4.6308,4.6308,4.6308,4.6308,4.6308,4.6308,4.6308,4.6308,4.6308,4.6308,4.6308,0.0,0.0,4.6894,4.7031,4.6367,4.6719,4.707,0.0,0.0,4.7578,4.8242,4.9687,4.9824,4.832,5.0137,5.1445,5.2109,5.3164,5.4023,5.4687,5.5566,5.5976,5.5976,5.5976,5.5976,5.5996,5.6191,5.6289,5.6308,5.6504,5.6601,5.6601,5.6601,5.6601,5.6601,5.6601,5.6601,5.6601,5.2481,5.3876,5.4934,5.4549,5.4857,5.5145,5.5145,5.3703,5.275,5.3145,5.1741,5.0712,5.0712,5.0712,5.0346,4.9471,4.9048,4.8452,4.7605,4.6778,4.6086,4.5614,4.5594,4.5594,4.5594,4.5594,4.5364,4.4893,4.4893,4.4662,4.422,4.3835,4.3393,4.2912,4.2101,4.1965,4.2333,4.2202,4.2963,4.4105,4.2482,4.2723,4.402,4.3456,4.3455,4.3724,4.3546,4.3802,4.4247,4.4247,4.484,4.5508,4.5039,4.5547,4.6308,4.6308,4.5957,4.5703,4.6172,4.6308,4.6308,4.6308,4.6308,4.6308,4.6308,4.6601,4.6894,4.6894,4.7207,4.748,4.748,4.7168,4.6894,4.6894,4.6562,4.6308,4.6308,4.6308,4.6445,4.6855,4.7305,4.7578,4.75,4.793,4.8183,4.8183,4.8555,0.0,4.8906,5.0879,5.1387,5.0078,5.1699,5.2812,5.3281,5.416,5.5039,5.5898,5.6367,5.6601,5.6601,5.6601,5.6601,5.6601,5.6601,5.6601,5.6601,5.6601,5.6601,5.6601,5.6601,5.6601,5.6601,5.6601,5.6601,5.6601,5.3395,5.4645,5.5472,5.4799,5.4684,5.4645,5.4511,5.3126,5.2308,5.2933,5.1664,5.0712,5.0712,5.0712,5.0346,4.9471,4.8721,4.7952,4.7135,4.6394,4.5922,4.5787,4.5671,4.5594,4.5594,4.5594,4.5594,4.5594,4.5594,4.5594,4.5575,4.4836,4.4432,4.4267,4.3671,4.3169,4.2865,4.3762,4.4737,4.5539,4.4339,4.4826,4.6166,4.4906,4.4538,4.4592,4.4151,4.4523,4.5195,4.5195,4.5683,4.6308,4.6308,4.6308,4.6308,4.6308,4.6308,4.6308,4.6308,4.6308,4.6328,4.6465,4.6504,4.6523,4.666,4.7266,4.7793,4.7793,4.8379,4.8906,4.8906,4.8183,4.7598,4.7598,4.6875,4.6308,4.6308,0.0,4.6777,4.7519,4.7832,4.8281,4.9023,4.9219,4.9336,4.9453,5.0156,5.0312,4.9707,5.1855,5.2754,5.2012,5.3418,5.4258,5.4394,5.5137,5.5879,5.6601,5.6601,5.6601,5.6601,5.6601,5.6601,5.6601,5.6601,5.6601,5.6601,5.6601,5.6601,5.6601,5.6601,5.6601,5.6601,5.6601,5.6601,5.6601,5.4299,5.5049,5.5665,5.553,5.5511,5.528,5.4607,5.3645,5.2779,5.2173,5.1279,5.0712,5.0712,5.0712,5.0346,4.9471,4.9279,4.8836,4.7971,4.7798,4.7403,4.6718,4.5988,4.5594,4.5594,4.5594,4.5594,4.5594,4.5594,4.5594,4.5594,4.546,4.5017,4.4306,4.4309,4.4253,4.4208,4.4321,4.4934,4.5853,4.5858,4.6021,4.6279,4.6053,4.5903,4.5843,4.5873,4.5976,4.6094,4.6094,4.6191,4.6308,4.6308,4.6308,4.6308,4.6308,4.6308,4.6308,4.6308,4.6308,4.6484,4.7207,4.7402,4.7598,4.832,4.8594,4.8691,4.8691,4.8808,4.8906,4.8906,4.8183,4.7598,4.7598,4.6875,4.6308,4.6308,0.0,4.7441,4.7578,4.8906,4.9844,4.998,5.0605,5.1328,5.2051,5.2246,5.2578,5.3183,5.4277,5.4824,5.4707,5.4961,5.5449,5.6191,5.6328,5.6465,5.6601,5.6601,5.6601,5.6601,5.6601,5.6601,5.6601,5.6601,5.6601,5.6601,5.6601,5.6601,5.6601,5.6601,5.6601,5.6601,5.6601,5.6601,5.6601,5.3799,5.4838,5.5703,5.5703,5.5703,5.5568,5.5203,5.4049,5.3068,5.2654,5.1491,5.0712,5.0712,5.0712,5.0346,4.9471,4.9817,4.9529,4.8202,4.7702,4.7287,4.6919,4.6065,4.5594,4.5594,4.5594,4.5594,4.5594,4.5594,4.5594,4.5594,4.5673,4.5495,4.5124,4.5288,4.5351,4.536,4.5409,4.5687,4.6136,4.6255,4.629,4.6296,4.6306,4.6268,4.6222,4.6289,4.6308,4.6308,4.6308,4.6308,4.6308,4.6308,4.6308,4.6308,4.6308,4.6308,4.6406,4.6875,4.6992,4.7207,4.8086,4.8301,4.8418,4.8808,4.9258,4.9726,5.0156,5.0625,5.0957,5.0957,4.9883,4.9004,4.9004,4.748,4.6621,4.7578,4.8047,4.8633,4.9531,5.0762,5.1738,5.2207,5.2578,5.2969,5.3379,5.3398,5.3574,5.3984,5.4824,5.5293,5.5293,5.5762,5.6191,5.6601,5.6601,5.6601,5.6601,5.6601,5.6601,5.6601,5.6601,5.6601,5.6601,5.6601,5.6601,5.6601,5.6601,5.6601,5.6601,5.6601,5.6601,5.6601,5.6601,5.6894,5.7305,5.3453,5.453,5.5472,5.5665,5.5703,5.5568,5.5184,5.403,5.3068,5.2664,5.1491,5.0712,5.0712,5.0712,5.0442,4.976,5.0308,5.0048,4.8509,4.7625,4.7095,4.692,4.6065,4.5594,4.5594,4.5594,4.562,4.5651,4.5651,4.5657,4.5673,4.5777,4.582,4.5832,4.6011,4.6108,4.6113,4.6247,4.6308,4.6308,4.6308,4.6308,4.6308,4.6308,4.6308,4.6308,4.6308,4.6308,4.6308,4.6308,4.6308,4.6308,4.6308,4.6308,4.6308,4.6308,4.6445,4.6758,4.7422,4.7598,4.7851,4.8926,4.9199,4.9297,4.9687,5.0293,5.1016,5.1836,5.2539,5.3008,5.3008,5.1621,5.0488,5.0488,0.0,4.7441,4.8984,4.9355,5.0039,5.1523,5.2461,5.334,5.4219,5.4297,5.4394,5.459,5.4609,5.4609,5.4609,5.5234,5.5605,5.5605,5.625,5.6601,5.6601,5.6601,5.6601,5.6601,5.6601,5.6719,5.6894,5.6699,5.6719,5.6894,5.6699,5.6601,5.6601,5.6601,5.6601,5.6601,5.6601,5.6719,5.6894,5.6894,5.7441,5.8203,5.4241,5.4491,5.4818,5.5568,5.5703,5.5184,5.3626,5.328,5.2645,5.1097,5.0789,5.0712,5.0712,5.0712,5.0673,5.0616,5.0654,5.0308,4.9375,4.849,4.7692,4.6934,4.6077,4.5594,4.5594,4.5594,4.5657,4.5783,4.5783,4.582,4.5872,4.5881,4.5885,4.5894,4.6036,4.6108,4.6113,4.6247,4.6308,4.6308,4.6308,4.6308,4.6308,4.6308,4.6308,4.6308,4.6308,4.6308,4.6308,4.6308,4.6308,4.6308,4.6308,4.6308,4.6308,4.6308,4.6875,4.7519,4.7578,4.7598,4.8008,4.9687,5.0098,5.0508,5.207,5.2461,5.2754,5.3633,5.3867,5.3906,5.3906,5.248,5.1308,5.1308,0.0,0.0,4.9961,5.0742,5.1562,5.248,5.3379,5.4258,5.5117,5.5195,5.5547,5.6348,5.6406,5.6406,5.6406,5.6465,5.6504,5.6504,5.6562,5.6601,5.6601,5.6601,5.6601,5.6601,5.6601,5.7012,5.7773,5.6973,5.7031,5.7754,5.6953,5.6601,5.6601,5.6601,5.6601,5.6601,5.6601,5.709,5.7793,5.7793,5.8359,5.9101,5.353,5.4126,5.4607,5.4895,5.4953,5.4568,5.3376,5.2741,5.2173,5.1529,5.101,5.0712,5.0712,5.0712,5.0712,5.0712,5.0712,5.0327,4.9452,4.8586,4.75,4.6154,4.5778,4.5594,4.5594,4.5688,4.5747,4.5803,4.5842,4.5872,4.5903,4.5985,4.6011,4.6033,4.6152,4.6224,4.6225,4.6289,4.6308,4.6308,4.6308,4.6308,4.6308,4.6308,4.6308,4.6308,4.6308,4.6308,4.6308,4.6308,4.6308,4.6308,4.6308,4.6308,4.6406,4.6953,4.7715,4.8516,4.9062,4.9219,4.9492,5.0644,5.1348,5.1914,5.2558,5.3125,5.375,5.4629,5.4805,5.4805,5.4805,5.3828,5.3008,5.3008,0.0,5.0937,5.2363,5.2812,5.334,5.4219,5.5078,5.5742,5.6074,5.6113,5.623,5.6582,5.6601,5.6601,5.6601,5.6601,5.6601,5.6601,5.6601,5.6601,5.6601,5.6601,5.6875,5.7402,5.7402,5.7578,5.791,5.8125,5.8105,5.791,5.8125,5.8203,5.8203,5.8203,5.8203,5.8203,5.8203,5.8418,5.8711,5.8711,5.9238,5.9941,5.2991,5.3683,5.426,5.478,5.4664,5.4203,5.3337,5.2462,5.1808,5.1568,5.1029,5.0712,5.0712,5.0712,5.0712,5.0712,5.0712,5.0327,4.9452,4.8346,4.7095,4.5652,4.565,4.5669,4.5657,4.577,4.5842,4.589,4.5935,4.5985,4.6033,4.6117,4.6152,4.6173,4.6268,4.6308,4.6308,4.6308,4.6308,4.6308,4.6308,4.6308,4.6308,4.6308,4.6308,4.6308,4.6308,4.6308,4.6308,4.6308,4.6308,4.6348,4.6621,4.6894,4.7285,4.8164,4.8848,4.9492,5.0351,5.0781,5.1113,5.168,5.2266,5.2832,5.3398,5.3984,5.4668,5.5527,5.5703,5.5703,5.5703,5.5,5.4414,5.4414,5.3183,5.2734,5.4199,5.4414,5.4726,5.5605,5.623,5.6601,5.6601,5.6601,5.6601,5.6601,5.6601,5.6601,5.6601,5.6601,5.6738,5.6992,5.6738,5.6855,5.7402,5.7148,5.7305,5.789,5.8183,5.8437,5.8691,5.9043,5.9004,5.8691,5.9043,5.9199,5.9199,5.9199,5.9199,5.9199,5.9199,5.9355,5.957,5.957,6.0098,6.0801,5.2856,5.3203,5.3703,5.5376,5.5011,5.4184,5.3318,5.2442,5.1606,5.0808,5.0712,5.0712,5.0712,5.0712,5.0712,5.0712,5.0712,5.0327,4.9452,4.7844,4.6525,4.5652,4.5735,4.5803,4.5803,4.5876,4.5974,4.6108,4.6108,4.6173,4.6308,4.6308,4.6308,4.6308,4.6308,4.6308,4.6308,4.6308,4.6308,4.6308,4.6308,4.6308,4.6308,4.6308,4.6308,4.6308,4.6308,4.6308,4.6308,4.6308,4.6308,4.6465,4.7344,4.8203,4.9082,4.9941,5.0215,5.0391,5.1191,5.2051,5.2715,5.2695,5.2715,5.3164,5.4902,5.5312,5.5566,5.6426,5.6601,5.6601,5.6601,5.5898,5.5312,5.5312,5.457,5.4316,5.5195,5.5312,5.5625,5.6504,5.6601,5.6601,5.6601,5.6601,5.6601,5.6601,5.6601,5.6601,5.6601,5.6621,5.7012,5.7871,5.707,5.7441,5.918,5.834,5.791,5.793,5.8808,5.9629,6.0371,5.957,5.9648,6.0351,5.9551,5.9219,5.9219,5.9219,5.9219,5.9219,5.9219,5.9707,6.041,6.041,6.0957,6.1699,5.2087,5.2288,5.2442,5.2953,5.2837,5.2395,5.1568,5.1221,5.0971,5.0731,5.0712,5.0712,5.0712,5.0712,5.0712,5.0712,5.0712,5.0366,4.9586,4.8508,4.753,4.6758,4.6129,4.5816,4.5862,4.5978,4.605,4.6108,4.6199,4.6268,4.6308,4.6308,4.6308,4.6308,4.6308,4.6308,4.6308,4.6308,4.6308,4.6308,4.6308,4.6308,4.6308,4.6308,4.6308,4.6308,4.6308,4.6308,4.6308,4.6308,4.7109,4.8164,4.8437,4.9101,4.9863,5.0117,5.1035,5.2012,5.2246,5.2949,5.3476,5.2851,5.3613,5.4668,5.5176,5.5762,5.6289,5.6543,5.6601,5.6601,5.6601,5.6387,5.6211,5.6211,5.5996,5.5918,5.6172,5.6211,5.6308,5.6562,5.6601,5.6601,5.6601,5.6601,5.6601,5.6601,5.7168,5.7519,5.7519,5.8086,5.8262,5.791,5.8242,5.8672,5.9199,5.834,5.8496,5.9668,5.9922,6.0176,6.041,6.0781,6.0742,6.043,6.0781,6.0957,6.0957,6.0957,6.0957,6.0957,6.0957,6.1094,6.1308,6.1308,6.1484,6.1699,5.1731,5.1904,5.2,5.2346,5.2135,5.1731,5.1241,5.0894,5.0712,5.0712,5.0712,5.0712,5.0712,5.0712,5.0712,5.0712,5.0712,5.0558,5.0221,4.8991,4.8299,4.8304,4.6761,4.5939,4.5981,4.6113,4.6175,4.6175,4.6268,4.6308,4.6308,4.6308,4.6308,4.6308,4.6308,4.6308,4.6308,4.6308,4.6308,4.6308,4.6308,4.6308,4.6308,4.6308,4.6308,4.6308,4.6308,4.6308,4.6308,4.6308,4.7598,4.9238,4.9375,4.998,5.0742,5.1094,5.1914,5.2773,5.3125,5.3848,5.4394,5.3867,5.4512,5.539,5.5742,5.6211,5.6601,5.6601,5.6601,5.6719,5.7051,5.6836,5.6719,5.7051,5.6816,5.6601,5.6601,5.6601,5.6601,5.6601,5.6601,5.6601,5.6601,5.6914,5.7265,5.7598,5.8125,5.8418,5.8418,5.8906,5.9101,5.8906,5.9082,5.9512,6.0176,5.9316,5.9394,6.039,6.0742,6.0918,6.0937,6.1465,6.1406,6.0937,6.1465,6.1699,6.1699,6.1699,6.1699,6.1699,6.1699,6.1699,6.1699,6.1699,6.1699,6.1699,5.1654,5.1788,5.2038,5.2837,5.2318,5.1788,5.1788,5.1164,5.0712,5.0712,5.0712,5.0712,5.0712,5.0712,5.0702,5.0721,5.0731,5.0837,5.1087,4.9436,4.8929,4.9961,4.7583,4.6273,4.6351,4.6324,4.6308,4.6308,4.6308,4.6308,4.6308,4.6308,4.6308,4.6308,4.6308,4.6308,4.6308,4.6308,4.6348,4.6406,4.6328,4.6348,4.6406,4.6328,4.6308,4.6308,4.6308,4.6308,4.6348,4.6641,4.8144,4.9922,5.0293,5.0937,5.1699,5.2558,5.2871,5.3105,5.3906,5.4746,5.543,5.543,5.543,5.5625,5.6426,5.6601,5.6621,5.6699,5.6719,5.6973,5.7851,5.7305,5.6992,5.7871,5.7285,5.6738,5.6816,5.6777,5.6758,5.6816,5.6758,5.6758,5.6816,5.7558,5.8379,5.9238,5.9316,5.9316,5.9316,5.9375,5.9726,6.0371,5.9765,6.0156,6.1699,6.0918,6.0527,6.0527,6.1328,6.1699,6.1699,6.1699,6.1699,6.1699,6.1699,6.1699,6.1699,6.1699,6.1699,6.1699,6.1699,6.1699,6.1699,6.1699,6.1699,6.1699,5.0933,5.0952,5.101,5.1202,5.1087,5.0952,5.0952,5.0808,5.0712,5.0712,5.0712,5.0712,5.0712,5.0712,5.0749,5.0851,5.0952,5.1064,5.1164,5.0209,4.9795,5.0136,4.8319,4.7596,4.8279,4.6972,4.6308,4.6308,4.6308,4.6308,4.6308,4.6308,4.6308,4.6308,4.6308,4.6308,4.6308,4.6308,4.6699,4.7266,4.6562,4.6719,4.7246,4.6562,4.6308,4.6308,4.6308,4.6308,4.6719,4.9394,5.0625,5.1152,5.1914,5.2285,5.2598,5.3457,5.4199,5.4785,5.4961,5.5644,5.6328,5.6328,5.6328,5.6367,5.6562,5.6601,5.6797,5.748,5.7617,5.7871,5.8769,5.8203,5.789,5.8789,5.8183,5.7851,5.8535,5.8047,5.7871,5.8555,5.8027,5.789,5.8574,5.8808,5.9258,6.0078,6.0137,6.0137,6.0137,6.0781,6.0937,6.043,6.0898,6.1328,6.1699,6.1504,6.1426,6.1426,6.1601,6.1699,6.1699,6.1699,6.1699,6.1699,6.1699,6.1699,6.1699,6.1699,6.1699,6.1699,6.1699,6.1699,6.1699,6.1699,6.1699,6.1699,5.0712,5.0712,5.0712,5.0712,5.0712,5.0712,5.0712,5.0712,5.0712,5.0712,5.0712,5.0712,5.0712,5.0757,5.0852,5.103,5.108,5.1159,5.1288,5.0474,5.023,5.0742,4.9121,4.8633,4.9492,4.8223,4.7344,4.6914,4.7344,4.7109,4.6308,4.6738,4.6699,4.6308,4.6308,4.6308,4.6328,4.6738,4.7187,4.7558,4.7109,4.7187,4.75,4.6621,4.6308,4.6308,4.6308,4.7344,4.9004,5.0801,5.1953,5.2676,5.2871,5.3105,5.3496,5.4355,5.4941,5.539,5.5801,5.625,5.6601,5.6601,5.6601,5.6601,5.6601,5.6914,5.7344,5.7812,5.8223,5.8789,5.9629,5.9082,5.8808,5.9648,5.9062,5.8672,5.914,5.8808,5.8691,5.914,5.8808,5.8848,5.9687,5.9765,6.0117,6.0957,6.1015,6.1015,6.1015,6.1445,6.1484,6.1035,6.1465,6.1699,6.1699,6.1699,6.1699,6.1699,6.1699,6.1699,6.1699,6.1699,6.1699,6.1699,6.1699,6.1699,6.1699,6.1699,6.1699,6.1699,6.1699,6.1699,6.1699,6.1699,6.1699,6.1699,5.0712,5.0712,5.0712,5.0712,5.0712,5.0712,5.0712,5.0712,5.0702,5.073,5.073,5.073,5.0775,5.0874,5.1014,5.1194,5.1178,5.1222,5.1386,5.0679,5.0594,5.1367,4.9941,4.9512,5.0391,4.9551,4.8691,4.7812,4.8555,4.8086,4.6543,4.7266,4.7129,4.6308,4.6308,4.6308,4.6367,4.7226,4.7695,4.7812,4.7812,4.791,4.7949,4.6953,4.6465,4.6387,4.6953,4.8984,5.1406,5.1406,5.2558,5.3945,5.3594,5.3828,5.4394,5.5273,5.5527,5.5683,5.6406,5.6601,5.664,5.6777,5.6816,5.6855,5.7012,5.748,5.7949,5.8086,5.8808,5.9648,6.0469,5.9961,5.9668,6.0488,5.9941,5.9453,5.9609,5.9492,5.9453,5.9609,5.9629,5.9883,6.0566,6.0625,6.0918,6.164,6.1699,6.1699,6.1699,6.1699,6.1699,6.1699,6.1699,6.1699,6.1699,6.1699,6.1699,6.1699,6.1699,6.1699,6.1699,6.1699,6.1699,6.1699,6.1699,6.1699,6.1699,6.1699,6.1699,6.1699,6.1699,6.1699,6.1699,6.1699,6.1699,6.1699,5.0712,5.0712,5.0712,5.0712,5.0712,5.0712,5.0712,5.0712,5.0749,5.0867,5.0871,5.0911,5.102,5.1113,5.1163,5.1201,5.1291,5.1364,5.1406,5.1288,5.1269,5.1387,5.0527,5.041,5.1211,5.0449,4.9609,4.8711,4.8848,4.8398,4.7422,4.7539,4.7129,4.6308,4.6308,4.6308,4.6367,4.7226,4.8047,4.8711,4.8711,4.918,4.9707,4.8301,4.7168,4.6699,4.9648,5.1016,5.1406,5.1406,5.2558,5.4082,5.4531,5.4883,5.5293,5.6172,5.6426,5.6445,5.6562,5.6601,5.6777,5.7539,5.7715,5.793,5.8672,5.8359,5.8105,5.8867,5.9668,6.0508,6.1367,6.082,6.0527,6.1387,6.0801,6.0508,6.1269,6.0703,6.0527,6.1269,6.1367,6.1406,6.1504,6.1523,6.1562,6.1699,6.1699,6.1699,6.1699,6.1699,6.1699,6.1699,6.1699,6.1699,6.1699,6.1699,6.1699,6.1699,6.1699,6.1699,6.1699,6.1699,6.1699,6.1699,6.1699,6.1699,6.1699,6.1699,6.1699,6.1699,6.1699,6.1699,6.1699,6.1699,6.1699,6.1699,5.0712,5.0712,5.0712,5.0712,5.0712,5.074,5.0789,5.0814,5.0867,5.0997,5.1016,5.102,5.1084,5.1154,5.1236,5.1317,5.1366,5.1406,5.1406,5.1406,5.1406,5.1406,5.1055,5.1035,5.1387,5.1055,5.0683,5.0293,5.0293,4.9375,4.7617,4.8105,4.7598,4.6328,4.6816,4.7031,4.7129,4.8476,4.9277,4.9629,4.9629,4.9863,5.0078,4.8945,4.8183,4.8066,5.0527,5.1406,5.1406,5.1406,5.3203,5.5508,5.5762,5.5937,5.6094,5.6484,5.6601,5.6601,5.6601,5.6601,5.6816,5.7676,5.789,5.8125,5.9004,5.9258,5.9414,5.9785,6.0547,6.123,6.1621,6.1387,6.125,6.164,6.1387,6.1269,6.164,6.1367,6.1269,6.164,6.1699,6.1699,6.1699,6.1699,6.1699,6.1699,6.1699,6.1699,6.1699,6.1699,6.1699,6.1699,6.1699,6.1699,6.1699,6.1699,6.1699,6.1699,6.1699,6.1699,6.1699,6.1699,6.1699,6.1699,6.1699,6.1699,6.1699,6.1699,6.1699,6.1699,6.1699,6.1699,6.1699,6.1699,6.1699,6.1699]}]]